     2              OBSERVATION DATA                        RINEX VERSION / TYPE
ASHCAN V. 1.94 20000418 20:43:15UTC                         PGM / RUN BY / DATE
KIN_ HECTOR_NW_KIN                                          MARKER NAME
JEG                                                         OBSERVER / AGENCY
LP03042 ASHTECH Z-XII3 CB00 1D02                            REC # / TYPE / VERS
CR519993004 ASH701945B_M                                    ANT # / TYPE
        0.0000        0.0000        0.0000                  APPROX POSITION XYZ
        1.2070        0.0000        0.0000                  ANTENNA: DELTA H/E/N
     1     1                                                WAVELENGTH FACT L1/2
     5    L1    L2    C1    P1    P2                        # / TYPES OF OBSERV
  1980     9     1    20    57    2.000000                  TIME OF FIRST OBS
  1980     9     1    22     3    4.000000                  TIME OF LAST OBS
     1                                                      INTERVAL
                                                            END OF HEADER
 80  9  1 20 57  2.0000000  0  6 30 24 17  5  6 10                   0.000000000
    -47237.999 9    -30728.37848  20628537.698    20628537.8704   20628545.9734
     54333.404 9     34231.86647  21856906.491    21856905.9294   21856914.4914
   -115416.863 9    -77303.87452         0.000           0.0004          0.0005
     41503.433 9     28591.79748  20798977.923    20798976.9284   20798986.4354
    -70918.21519    -37431.42346         0.000           0.0005   22180531.2404
    -52795.875 9    -34824.99048  20852268.051    20852267.5964   20852276.5254
 80  9  1 20 57  3.0000000  0  6 30 24 17  5  6 10                   0.000000000
    -48620.206 9    -31805.42448  20628274.661    20628274.8924   20628282.9584
     55888.223 9     35443.41047  21857202.288    21857201.5544   21857210.3704
   -118916.833 9    -80031.11752         0.000           0.0004          0.0005
     42597.618 9     29444.40548  20799186.221    20799185.3444   20799194.6744
    -73862.02419    -39725.29746         0.000           0.0005   22179971.0994
    -54102.685 9    -35843.28148  20852019.506    20852018.8584   20852027.8134
 80  9  1 20 57  4.0000000  0  7 30 24 17  4  5  6 10                0.000000000
    -50001.205 9    -32881.52348  20628011.892    20628011.8854   20628020.1584
     57443.798 9     36655.55247  21857498.238    21857497.8994   21857506.4244
   -122415.958 9    -82757.69852         0.000           0.0004          0.0005
     27098.69618     29870.883 1         0.000           0.0005          0.000
     43692.944 9     30297.90648  20799394.523    20799393.8594   20799403.0994
    -76805.06119    -42018.56546         0.000           0.0005   22179411.0944
    -55408.186 9    -36860.54948  20851771.239    20851770.4004   20851779.3844
 80  9  1 20 57  5.0000000  0  7 30 24 17  4  5  6 10                0.000000000
    -51379.274 9    -33955.34148  20627749.659    20627749.6864   20627757.9434
     59001.804 9     37869.58047  21857794.696    21857794.3344   21857802.8914
   -125912.554 9    -85482.31152         0.000           0.0004          0.0005
     29457.750 8     13381.47142         0.000           0.0004          0.0004
     44791.097 9     31153.60748  20799603.284    20799602.6254   20799612.0954
    -79745.66319    -44309.93547         0.000           0.0005   22178851.5484
    -56710.690 9    -37875.48748  20851523.513    20851522.5214   20851531.5274
 80  9  1 20 57  6.0000000  0  7 30 24 17  4  5  6 10                0.000000000
    -52756.166 9    -35028.24648  20627487.672    20627487.6074   20627495.9154
     60560.509 9     39084.15047  21858091.108    21858090.9784   21858099.5114
   -129408.351 9    -88206.29952         0.000           0.0004          0.0005
     31817.267 8     15220.05642         0.000           0.0004          0.0004
     45890.344 9     32010.15848  20799812.208    20799811.8204   20799821.2574
    -82685.55719    -46600.76247         0.000           0.0005   22178292.1304
    -58011.935 9    -38889.44448  20851275.798    20851274.9634   20851283.9174
 80  9  1 20 57  7.0000000  0  6 30 24 17  5  6 10                   0.000000000
    -54132.400 9    -36100.63748  20627225.896    20627225.8594   20627234.0364
     62119.419 9     40298.88247  21858387.641    21858387.6634   21858396.1834
   -132903.865 9    -90930.07052         0.000           0.0004          0.0005
     46990.172 9     32867.16048  20800021.483    20800021.1254   20800030.5334
    -85625.24119    -48891.42347         0.000           0.0005   22177732.7734
    -59312.412 9    -39902.80448  20851028.412    20851027.4744   20851036.4274
 80  9  1 20 57  8.0000000  0  7 30 24 17  4  5  6 10                0.000000000
    -55507.885 9    -37172.44548  20626964.169    20626964.1504   20626972.2784
     63678.601 9     41513.83247  21858684.095    21858684.2784   21858692.8844
   -136399.037 9    -93653.56752         0.000           0.0004          0.0005
     36536.205 8     18897.15242         0.000           0.0004          0.0004
     48090.662 9     33724.68148  20800231.088    20800230.5804   20800239.9514
    -88564.65919    -51181.87647         0.000           0.0005   22177173.4624
    -60612.063 9    -40915.51748  20850781.130    20850780.1754   20850789.1144
 80  9  1 20 57  9.0000000  0  7 30 24 17  4  5  6 10                0.000000000
    -56882.687 9    -38243.71748  20626702.363    20626702.5714   20626710.6464
     65237.990 9     42728.93747  21858980.867    21858980.9724   21858989.6174
   -139893.927 9    -96376.84852         0.000           0.0004          0.0005
     38895.618 8     20735.65642         0.000           0.0004          0.0004
     49191.752 9     34582.67148  20800440.694    20800440.0954   20800449.4844
    -91503.88619    -53472.17747         0.000           0.0005   22176614.1264
    -61910.956 9    -41927.63648  20850533.945    20850533.0364   20850541.9634
 80  9  1 20 57 10.0000000  0  7 30 24 17  4  5  6 10                0.000000000
    -58257.496 9    -39314.99748  20626440.746    20626440.9524   20626449.0294
     66796.909 9     43943.67847  21859277.628    21859277.6174   21859286.2654
   -143389.209 9    -99100.43152         0.000           0.0004          0.0005
     41254.285 8     22573.57942         0.000           0.0004          0.0004
     50292.774 9     35440.60748  20800650.214    20800649.6104   20800658.9954
    -94443.56119    -55762.83047         0.000           0.0005   22176054.7264
    -63209.743 9    -42939.67948  20850286.753    20850285.8974   20850294.8024
 80  9  1 20 57 11.0000000  0  7 30 24 17  4  5  6 10                0.000000000
    -59631.950 9    -40386.00048  20626179.120    20626179.4134   20626187.4874
     68355.699 9     45158.31947  21859574.468    21859574.2624   21859582.8904
   -146884.544 9   -101824.05452         0.000           0.0004          0.0005
     43612.545 8     24411.18442         0.000           0.0004          0.0004
     51394.052 9     36298.74448  20800859.778    20800859.1754   20800868.5744
    -97383.39019    -58053.59647         0.000           0.0005   22175495.3174
    -64508.103 9    -43951.38548  20850039.732    20850038.8284   20850047.7194
 80  9  1 20 57 12.0000000  0  6 30 24 17  5  6 10                   0.000000000
    -61005.662 9    -41456.42548  20625917.885    20625917.9844   20625926.0744
     69914.772 9     46373.17847  21859871.135    21859870.9164   21859879.5764
   -150379.540 9   -104547.41252         0.000           0.0004          0.0005
     52495.997 9     37157.40148  20801069.306    20801068.8504   20801078.2614
   -100322.95919    -60344.16947         0.000           0.0005   22174935.9384
    -65805.637 9    -44962.44948  20849792.799    20849791.9294   20849800.8224
 80  9  1 20 57 13.0000000  0  7 30 24 17  4  5  6 10                0.000000000
    -62379.400 9    -42526.87048  20625656.586    20625656.5654   20625664.6644
     71473.349 9     47587.65647  21860167.842    21860167.5214   21860176.1824
   -153874.971 9   -107271.10852         0.000           0.0004          0.0005
     48328.317 8     28085.81342         0.000           0.0004          0.0004
     53597.834 9     38015.97148  20801278.808    20801278.5154   20801287.9394
   -103263.00619    -62635.10747         0.000           0.0005   22174376.4644
    -67103.094 9    -45973.45248  20849545.968    20849545.0104   20849553.9074
 80  9  1 20 57 14.0000000  0  7 30 24 17  4  5  6 10                0.000000000
    -63753.120 9    -43597.30048  20625395.161    20625395.1364   20625403.2424
     73031.463 9     48801.77047  21860464.405    21860464.0264   21860472.7024
   -157370.787 9   -109995.10752         0.000           0.0004          0.0005
     50685.131 8     29922.29142         0.000           0.0004          0.0004
     54699.613 9     38874.49648  20801488.405    20801488.1394   20801497.5674
   -106203.526 9    -64926.41747  22173806.140    22173805.6544   22173816.8944
    -68400.447 9    -46984.37248  20849299.068    20849298.1514   20849307.0444
 80  9  1 20 57 15.0000000  0  6 30 24 17  5  6 10                   0.000000000
    -65126.449 9    -44667.42448  20625133.665    20625133.7874   20625141.9134
     74589.461 9     50015.79547  21860760.936    21860760.4904   21860769.1924
   -160866.633 9   -112719.12752         0.000           0.0004          0.0005
     55801.693 9     39733.25848  20801698.086    20801697.8344   20801707.2844
   -109144.160 9    -67217.81347  22173246.518    22173246.0314   22173257.2964
    -69697.333 9    -47994.93048  20849052.343    20849051.3624   20849060.2514
 80  9  1 20 57 16.0000000  0  6 30 24 17  5  6 10                   0.000000000
    -66499.298 9    -45737.17348  20624872.286    20624872.5284   20624880.6614
     76147.510 9     51229.85547  21861057.369    21861056.9654   21861065.6674
   -164362.387 9   -115443.07752         0.000           0.0004          0.0005
     56904.196 9     40592.34748  20801907.926    20801907.6494   20801917.1024
   -112084.746 9    -69509.17347  22172686.960    22172686.7084   22172697.7154
    -70993.635 9    -49005.03248  20848805.518    20848804.6634   20848813.5544
 80  9  1 20 57 17.0000000  0  6 30 24 17  5  6 10                   0.000000000
    -67871.897 9    -46806.73048  20624611.016    20624611.3294   20624619.4834
     77705.328 9     52443.73847  21861353.843    21861353.4004   21861362.1054
   -167858.310 9   -118167.15952         0.000           0.0004          0.0005
     58006.869 9     41451.57048  20802117.835    20802117.4644   20802126.9224
   -115025.572 9    -71800.72047  22172127.119    22172127.3864   22172138.0884
    -72289.618 9    -50014.88748  20848558.871    20848558.0544   20848566.9544
 80  9  1 20 57 18.0000000  0  7 30 24 17  4  5  6 10                0.000000000
    -69243.936 9    -47875.85148  20624349.990    20624350.2294   20624358.3834
     79263.236 9     53657.69747  21861650.485    21861649.8754   21861658.5924
   -171354.071 9   -120891.11352         0.000           0.0004          0.0005
     60109.127 8     37265.66742         0.000           0.0004          0.0004
     59110.016 9     42311.16448  20802327.849    20802327.4084   20802336.8634
   -117966.327 9    -74092.21747  22171567.687    22171567.3734   22171578.4754
    -73584.961 9    -51024.24348  20848312.259    20848311.5744   20848320.4704
 80  9  1 20 57 19.0000000  0  7 30 24 17  4  5  6 10                0.000000000
    -70615.273 9    -48944.42648  20624089.058    20624089.2604   20624097.4094
     80821.375 9     54871.83247  21861946.984    21861946.3804   21861955.1034
   -174849.543 9   -123614.84352         0.000           0.0004          0.0005
     62464.708 8     39101.18542         0.000           0.0004          0.0004
     60213.823 9     43171.26948  20802538.036    20802537.4334   20802546.9094
   -120906.816 9    -76383.50847  22171008.159    22171007.6814   22171018.9114
    -74879.488 9    -52032.96548  20848065.843    20848065.2054   20848074.1254
 80  9  1 20 57 20.0000000  0  6 30 24 17  5  6 10                   0.000000000
    -71986.344 9    -50012.79348  20623828.116    20623828.3714   20623836.5234
     82379.318 9     56085.80847  21862243.192    21862242.8144   21862251.5374
   -178345.151 9   -126338.67752         0.000           0.0004          0.0005
     61317.812 9     44031.51848  20802748.104    20802747.5184   20802756.9874
   -123847.514 9    -78674.95047  22170448.697    22170448.1484   22170459.3004
    -76173.674 9    -53041.41948  20847819.636    20847818.9454   20847827.8764
 80  9  1 20 57 21.0000000  0  7 30 24 17  4  5  6 10                0.000000000
    -73357.145 9    -51080.95048  20623567.232    20623567.5214   20623575.6554
     83937.046 9     57299.62047  21862539.605    21862539.2294   21862547.9894
   -181840.896 9   -129062.61652         0.000           0.0004          0.0005
     67174.466 8     42771.12842         0.000           0.0004          0.0004
     62421.999 9     44891.92048  20802958.176    20802957.6424   20802967.1094
   -126788.423 9    -80966.56447  22169888.984    22169888.6854   22169899.6404
    -77467.514 9    -54049.60548  20847573.392    20847572.7364   20847581.6594
 80  9  1 20 57 22.0000000  0  6 30 24 17  5  6 10                   0.000000000
    -74727.287 9    -52148.59148  20623306.581    20623306.7824   20623314.9364
     85494.993 9     58513.60547  21862835.820    21862835.6944   21862844.4434
   -185336.399 9   -131786.37052         0.000           0.0004   23843036.2335
     63526.785 9     45752.78848  20803168.467    20803167.8774   20803177.3394
   -129729.085 9    -83257.98547  22169329.224    22169329.2624   22169340.0524
    -78760.583 9    -55057.18848  20847327.286    20847326.6464   20847335.5774
 80  9  1 20 57 23.0000000  0  7 30 24 17  4  5  6 10                0.000000000
    -76096.610 9    -53215.59648  20623045.970    20623046.2124   20623054.3574
     87053.282 9     59727.85547  21863132.527    21863132.2394   21863140.9924
   -188831.467 9   -134509.78443         0.000           0.0004   23842370.9874
     71883.807 8     46440.74942         0.000           0.0004          0.0004
     64632.319 9     46614.24148  20803379.046    20803378.2414   20803387.7044
   -132669.410 9    -85549.14347  22168769.852    22168769.8104   22168780.5314
    -80052.751 9    -56064.07248  20847081.381    20847080.7564   20847089.6734
 80  9  1 20 57 24.0000000  0  6 30 24 17  5  6 10                   0.000000000
    -77465.582 9    -54282.32548  20622785.475    20622785.7134   20622793.8664
     88611.451 9     60942.01347  21863429.282    21863428.7634   21863437.5224
   -192326.613 9   -137233.25644         0.000           0.0004   23841705.9514
     65738.118 9     47475.90148  20803589.564    20803588.6954   20803598.1364
   -135609.850 9    -87840.39047  22168210.458    22168210.2474   22168220.9674
    -81344.480 9    -57070.60948  20846835.873    20846834.9764   20846843.8934
 80  9  1 20 57 25.0000000  0  6 30 24 17  5  6 10                   0.000000000
    -78834.069 9    -55348.67948  20622525.131    20622525.2934   20622533.4394
     90169.653 9     62156.19847  21863725.674    21863725.2584   21863734.0334
   -195821.657 9   -139956.65344         0.000           0.0004   23841041.1434
     66844.352 9     48337.90048  20803799.844    20803799.1904   20803808.6484
   -138550.228 9    -90131.59547  22167651.217    22167650.7454   22167661.4354
    -82635.625 9    -58076.69448  20846590.395    20846589.2774   20846598.2014
 80  9  1 20 57 26.0000000  0  7 30 24 17  4  5  6 10                0.000000000
    -80202.020 9    -56414.61548  20622264.843    20622264.9834   20622273.1274
     91727.928 9     63370.44047  21864022.008    21864021.7934   21864030.5854
   -199316.593 9   -142679.96844         0.000           0.0004   23840376.0694
     78946.288 8     51944.26842         0.000           0.0004          0.0004
     67951.035 9     49200.24548  20804010.214    20804009.7744   20804019.2234
   -141490.553 9    -92422.75147  22167092.028    22167091.2524   22167101.9054
    -83926.154 9    -59082.30048  20846344.942    20846343.7074   20846352.6224
 80  9  1 20 57 27.0000000  0  6 30 24 17  5  6 10                   0.000000000
    -81569.809 9    -57480.42548  20622004.471    20622004.7134   20622012.8604
     93285.912 9     64584.45147  21864318.580    21864318.2674   21864327.0474
   -202811.775 9   -145403.47245         0.000           0.0004   23839711.3714
     69057.796 9     50062.65248  20804220.497    20804220.3784   20804229.8234
   -144431.184 9    -94714.14847  22166532.336    22166531.6504   22166542.3064
    -85216.443 9    -60087.72048  20846099.459    20846098.1464   20846107.0654
 80  9  1 20 57 28.0000000  0  6 30 24 17  5  6 10                   0.000000000
    -82937.019 9    -58545.78348  20621744.260    20621744.5134   20621752.6564
     94844.052 9     65798.58347  21864615.147    21864614.7824   21864623.5574
   -206306.772 9   -148126.83545         0.000           0.0004   23839046.4484
     70165.080 9     50925.46948  20804431.327    20804431.1124   20804440.5414
   -147371.655 9    -97005.41747  22165972.410    22165972.0774   22165982.7464
    -86506.038 9    -61092.59648  20845854.111    20845852.7664   20845861.6834
 80  9  1 20 57 29.0000000  0  6 30 24 17  5  6 10                   0.000000000
    -84303.592 9    -59610.64548  20621484.323    20621484.4834   20621492.6284
     96402.364 9     67012.85147  21864911.472    21864911.3274   21864920.0914
   -209801.536 9   -150850.01145         0.000           0.0004   23838381.5564
     71272.913 9     51788.71348  20804642.304    20804641.9164   20804651.3694
   -150311.953 9    -99296.55647  22165412.674    22165412.5354   22165423.2334
    -87794.914 9    -62096.91048  20845608.704    20845607.4864   20845616.4184
 80  9  1 20 57 30.0000000  0  6 30 24 17  5  6 10                   0.000000000
    -85669.758 9    -60675.18848  20621224.307    20621224.5134   20621232.6774
     97960.637 9     68227.08747  21865207.996    21865207.8614   21865216.6144
   -213296.286 9   -153573.17945         0.000           0.0004   23837716.2764
     72381.087 9     52652.22248  20804853.234    20804852.8004   20804862.2414
   -153252.316 9   -101587.74547  22164853.097    22164852.9724   22164863.6854
    -89083.298 9    -63100.84448  20845363.463    20845362.3264   20845371.2554
 80  9  1 20 57 31.0000000  0  6 30 24 17  5  6 10                   0.000000000
    -87034.097 9    -61738.30848  20920757.354    20920757.3314   20920765.4804
     99517.400 9     69440.15247  22165296.593    22165296.5554   22165305.3154
   -216787.463 9   -156293.56445         0.000           0.0004   24136844.6424
     73488.560 9     53515.18348  21104856.697    21104855.9824   21104865.4294
   -156189.693 9   -103876.60347  22464086.461    22464086.4374   22464097.1664
    -90369.815 9    -64103.32248  21144910.980    21144909.9644   21144918.8874
 80  9  1 20 57 32.0000000  0  6 30 24 17  5  6 10                   0.000986487
    -88398.824 9    -62801.72948  20920497.673    20920497.6514   20920505.8104
    101076.216 9     70654.81347  22165593.175    22165593.1794   22165601.9694
   -220281.555 9   -159016.22145         0.000           0.0004   24136179.9604
     74598.037 9     54379.71148  21105067.897    21105067.1064   21105076.5544
   -159129.518 9   -106167.36947  22463526.710    22463526.9944   22463537.7124
    -91656.572 9    -65105.98648  21144666.130    21144665.0734   21144674.0074
 80  9  1 20 57 33.0000000  0  6 30 24 17  5  6 10                   0.000986321
    -89763.061 9    -63864.77248  20920237.956    20920238.0314   20920246.1884
    102635.056 9     71869.48747  22165890.090    22165889.7844   22165898.5894
   -223775.55619   -161738.80645         0.000           0.0005   24135515.2004
     75707.924 9     55244.55448  21105278.964    21105278.3204   21105287.7624
   -162069.318 9   -108458.11747  22462967.417    22462967.5914   22462978.2834
    -92942.761 9    -66108.21148  21144421.649    21144420.3424   21144429.2914
 80  9  1 20 57 34.0000000  0  6 30 24 17  5  6 10                   0.000985831
    -91126.796 9    -64927.42348  20919978.411    20919978.5304   20919986.6904
    104193.968 9     73084.22547  22166186.836    22166186.4484   22166195.2424
   -227269.43519   -164461.29645         0.000           0.0005   24134850.1404
     76818.266 9     56109.75348  21105490.345    21105489.6044   21105499.0494
   -165009.040 9   -110748.80647  22462407.725    22462408.1794   22462418.8674
    -94228.318 9    -67109.94048  21144177.006    21144175.7124   21144184.6494
 80  9  1 20 57 35.0000000  0  6 30 24 17  5  6 10                   0.000985338
    -92490.300 9    -65989.89348  20919718.954    20919719.0604   20919727.2154
    105752.645 9     74298.77947  22166483.570    22166483.0534   22166491.8714
   -230763.49819   -167183.93045         0.000           0.0005   24134185.2114
     77928.735 9     56975.05148  21105701.592    21105700.9174   21105710.3714
   -167949.026 9   -113039.70147  22461848.221    22461848.7164   22461859.4064
    -95513.580 9    -68111.44048  21143932.332    21143931.1114   21143940.0494
 80  9  1 20 57 36.0000000  0  6 30 24 17  5  6 10                   0.000984848
    -93853.310 9    -67051.97648  20919459.538    20919459.6794   20919467.8354
    107311.342 9     75513.34847  22166780.102    22166779.6584   22166788.4804
   -234257.45719   -169906.48345         0.000           0.0005   24133520.3174
     79039.641 9     57840.69048  21105912.912    21105912.3314   21105921.7744
   -170888.991 9   -115330.58147  22461289.044    22461289.2434   22461299.9354
    -96798.257 9    -69112.48448  21143687.532    21143686.6604   21143695.5874
 80  9  1 20 57 37.0000000  0  7 30 24 17  4  5  6 10                0.000984356
    -95215.652 9    -68113.53948  20919200.306    20919200.4494   20919208.6114
    108870.291 9     76728.11647  22167076.596    22167076.3124   22167085.1464
   -237751.12519   -172628.80845         0.000           0.0005   24132855.1994
    104824.000 8     58273.668 1         0.000           0.0004          0.000
     80151.144 9     58706.79348  21106124.492    21106123.8344   21106133.2764
   -173828.717 9   -117621.27447  22460729.833    22460729.8204   22460740.5104
    -98082.146 9    -70112.91648  21143442.804    21143442.3294   21143451.2694
 80  9  1 20 57 38.0000000  0  7 30 24 17  4  5  6 10                0.000983865
    -96577.401 9    -69174.64349  20918941.274    20918941.3184   20918949.4764
    110429.359 9     77942.97047  22167373.227    22167372.9874   22167381.8174
   -241244.61219   -175350.99445         0.000           0.0005   24132190.6474
    107175.795 8     73941.72152         0.000           0.0004          0.0005
     81263.157 9     59573.29648  21106336.011    21106335.4684   21106344.9044
   -176768.334 9   -119911.87747  22460170.780    22460170.4084   22460181.1284
    -99365.357 9    -71112.82148  21143198.331    21143198.1594   21143207.1014
 80  9  1 20 57 39.0000000  0  7 30 24 17  4  5  6 10                0.000983372
    -97938.520 9    -70235.25649  20918682.351    20918682.3174   20918690.4774
    111988.598 9     79157.96147  22167670.015    22167669.7124   22167678.5464
   -244737.81619   -178072.95745         0.000           0.0005   24131525.9814
    109527.530 8     75774.28352         0.000           0.0004          0.0005
     82375.720 9     60440.22448  21106547.602    21106547.1514   21106556.5924
   -179707.794 9   -122202.35847  22459611.455    22459611.0354   22459621.7974
   -100647.845 9    -72112.16148  21142954.305    21142954.0974   21142963.0514
 80  9  1 20 57 40.0000000  0  7 30 24 17  4  5  6 10                0.000982878
    -99299.007 9    -71295.37449  20918423.520    20918423.3974   20918431.5564
    113548.045 9     80373.11347  22167966.745    22167966.4464   22167975.2924
   -248230.75819   -180794.71745         0.000           0.0005   24130861.1424
    111879.210 8     77606.81052         0.000           0.0004          0.0005
     83488.864 9     61307.60648  21106759.591    21106758.9854   21106768.4354
   -182647.033 9   -124492.67147  22459052.184    22459051.7124   22459062.4694
   -101929.570 9    -73110.90948  21142710.387    21142710.1964   21142719.1394
 80  9  1 20 57 41.0000000  0  7 30 24 17  4  5  6 10                0.000982384
   -100658.826 9    -72354.97049  20918164.794    20918164.6464   20918172.7934
    115107.719 9     81588.44347  22168263.669    22168263.2614   22168272.1074
   -251723.41019   -183516.25045         0.000           0.0005   24130196.2734
    114230.844 8     79439.29252         0.000           0.0004          0.0005
     84602.590 9     62175.44548  21106971.661    21106970.9084   21106980.3654
   -185586.094 9   -126782.83947  22458492.770    22458492.4194   22458503.1834
   -103210.536 9    -74109.06148  21142466.936    21142466.4554   21142475.3944
 80  9  1 20 57 42.0000000  0  7 30 24 17  4  5  6 10                0.000981893
   -102017.929 9    -73414.01249  20917906.126    20917906.0154   20917914.1624
    116667.644 9     82803.96747  22168560.436    22168560.1054   22168568.9494
   -255215.72319   -186237.51945         0.000           0.0005   24129531.6074
    116582.480 8     81271.78152         0.000           0.0004          0.0005
     85716.947 9     63043.77448  21107183.585    21107182.9614   21107192.4274
   -188524.908 9   -129072.82447  22457933.105    22457933.1474   22457943.9204
   -104490.683 9    -75106.57548  21142223.632    21142222.8644   21142231.8024
 80  9  1 20 57 43.0000000  0  6 30 24 17  5  6 10                   0.000981402
   -103376.443 9    -74472.59449  20917647.656    20917647.5144   20917655.6644
    118227.760 9     84019.64147  22168857.051    22168856.9704   22168865.8034
   -258707.76319   -188958.57745         0.000           0.0005   24128867.0004
     86831.865 9     63912.53648  21107395.607    21107395.1444   21107404.6104
   -191463.540 9   -131362.66047  22457373.637    22457373.9244   22457384.7164
   -105770.086 9    -76103.51248  21141980.386    21141979.3724   21141988.3194
 80  9  1 20 57 44.0000000  0  7 30 24 17  4  5  6 10                0.000980912
   -104734.639 9    -75530.92849  20917389.204    20917389.0434   20917397.2084
    119787.716 9     85235.19347  22169153.947    22169153.8244   22169162.6694
   -262199.85419   -191679.67645         0.000           0.0005   24128202.6354
    121285.221 8     84936.33252         0.000           0.0004          0.0005
     87947.012 9     64781.47648  21107607.651    21107607.3474   21107616.8064
   -194402.340 9   -133652.62847  22456814.433    22456814.6814   22456825.4784
   -107049.071 9    -77100.12348  21141737.275    21141736.0114   21141744.9544
 80  9  1 20 57 45.0000000  0  7 30 24 17  4  5  6 10                0.000980422
   -106092.404 9    -76588.92649  20917130.775    20917130.6724   20917138.8154
    121347.670 9     86450.73847  22169450.900    22169450.6794   22169459.5124
   -265691.87419   -194400.71845         0.000           0.0005   24127538.0574
    123636.138 8     86768.25552         0.000           0.0004          0.0005
     89062.527 9     65650.70248  21107819.922    21107819.6314   21107829.0964
   -197341.177 9   -135942.63047  22456255.216    22456255.4184   22456266.2134
   -108327.504 9    -78096.30348  21141493.828    21141492.7394   21141501.6704
 80  9  1 20 57 46.0000000  0  7 30 24 17  4  5  6 10                0.000979934
   -107449.447 9    -77646.36049  20916872.480    20916872.4414   20916880.5894
    122907.946 9     87666.53847  22169747.976    22169747.5834   22169756.4304
   -269183.46119   -197121.42245         0.000           0.0005   24126873.5614
    125987.134 8     88600.24552         0.000           0.0004          0.0005
     90178.718 9     66520.46248  21108032.389    21108032.0434   21108041.4944
   -200279.707 9   -138232.38647  22455695.934    22455696.2354   22455707.0294
   -109605.066 9    -79091.80348  21141250.635    21141249.5974   21141258.5354
 80  9  1 20 57 47.0000000  0  7 30 24 17  4  5  6 10                0.000979441
   -108806.111 9    -78703.50149  20916614.295    20916614.2594   20916622.4234
    124468.130 9     88882.26347  22170044.698    22170044.4684   22170053.3164
   -272675.05619   -199842.13245  24126192.354    24126191.9555   24126209.4234
    128337.790 8     90431.95952         0.000           0.0004          0.0005
     91295.201 9     67390.44748  21108245.258    21108244.4964   21108253.9514
   -203218.350 9   -140522.23647  22455136.790    22455137.0224   22455147.8424
   -110882.153 9    -80086.93348  21141007.688    21141006.6064   21141015.5294
 80  9  1 20 57 48.0000000  0  6 30 24 17  5  6 10                   0.000978949
   -110162.168 9    -79760.16749  20916356.353    20916356.2084   20916364.3714
    126028.473 9     90098.11447  22170341.653    22170341.4024   22170350.2484
   -276166.390 9   -202562.64146  24125527.887    24125527.1054   24125545.1394
     92412.222 9     68260.84948  21108457.872    21108457.0494   21108466.5094
   -206156.851 9   -142811.97047  22454577.871    22454577.8394   22454588.6684
   -112158.530 9    -81081.51148  21140764.988    21140763.7244   21140772.6494
 80  9  1 20 57 49.0000000  0  6 30 24 17  5  6 10                   0.000978456
   -111517.788 9    -80816.49649  20916098.148    20916098.2464   20916106.4024
    127588.805 9     91313.95747  22170638.681    22170638.3264   22170647.1654
   -279657.612 9   -205283.06446  24124862.937    24124862.7354   24124881.0484
     93529.628 9     69131.55148  21108670.539    21108669.7024   21108679.1524
   -209095.348 9   -145101.70747  22454018.648    22454018.6664   22454029.4834
   -113434.336 9    -82075.64548  21140522.333    21140520.9324   21140529.8654
 80  9  1 20 57 50.0000000  0  6 30 24 17  5  6 10                   0.000977963
   -112873.090 9    -81872.57549  20915840.210    20915840.3454   20915848.5024
    129149.013 9     92529.70147  22170935.623    22170935.2314   22170944.0794
   -283148.863 9   -208003.50846  24124198.120    24124198.2754   24124216.8424
     94647.277 9     70002.44448  21108883.248    21108882.3654   21108891.8284
   -212034.035 9   -147391.58747  22453459.713    22453459.4434   22453470.2484
   -114709.727 9    -83069.45348  21140279.655    21140278.2304   21140287.1634
 80  9  1 20 57 51.0000000  0  6 30 24 17  5  6 10                   0.000977468
   -114227.113 9    -82927.65449  20915582.360    20915582.6734   20915590.8284
    130710.039 9     93746.08447  22171232.608    22171232.2654   22171241.1294
   -286639.200 9   -210723.23946  24123533.006    24123533.8154   24123552.6254
     95766.129 9     70874.27748  21109096.189    21109095.2874   21109104.7464
   -214971.923 9   -149680.84447  22452900.661    22452900.3814   22452911.2134
   -115983.737 9    -84062.18348  21140037.297    21140035.7984   21140044.7344
 80  9  1 20 57 52.0000000  0  6 30 24 17  5  6 10                   0.000976976
   -115580.307 9    -83982.09149  20915324.751    20915325.1824   20915333.3524
    132271.465 9     94962.78147  22171529.600    22171529.3904   22171538.2634
   -290129.015 9   -213442.56446  24122868.788    24122869.7454   24122888.6034
     96885.754 9     71746.70848  21109309.328    21109308.3404   21109317.7954
   -217909.405 9   -151969.78347  22452341.532    22452341.3774   22452352.1934
   -117256.787 9    -85054.16748  21139795.254    21139793.5464   21139802.4904
 80  9  1 20 57 53.0000000  0  6 30 24 17  5  6 10                   0.000976486
   -116932.628 9    -85035.84549  20915067.388    20915067.8404   20915076.0024
    133833.312 9     96179.80047  22171826.823    22171826.6144   22171835.4814
   -293618.333 9   -216161.50146  24122204.709    24122205.4354   24122224.5774
     98006.182 9     72619.76848  21109522.401    21109521.5624   21109531.0214
   -220846.521 9   -154258.44147  22451782.974    22451782.4744   22451793.2934
   -118528.873 9    -86045.40248  21139553.201    21139551.4634   21139560.4084
 80  9  1 20 57 54.0000000  0  6 30 24 17  5  6 10                   0.000975999
   -118284.444 9    -86089.20949  20914810.422    20914810.5984   20914818.7784
    135395.180 9     97396.84047  22172124.184    22172123.8284   22172132.7024
   -297107.514 9   -218880.32846  24121541.635    24121541.6044   24121560.6484
     99127.023 9     73493.14548  21109735.609    21109734.8354   21109744.3004
   -223783.624 9   -156547.09247  22451223.740    22451223.5714   22451234.3764
   -119800.369 9    -87036.17848  21139311.082    21139309.5014   21139318.4424
 80  9  1 20 57 55.0000000  0  6 30 24 17  5  6 10                   0.000975509
   -119636.046 9    -87142.40549  20914553.177    20914553.3964   20914561.5694
    136956.835 9     98613.71247  22172421.207    22172420.9924   22172429.8654
   -300596.800 9   -221599.24146  24120878.118    24120877.4744   24120896.6874
    100248.027 9     74366.65448  21109949.024    21109948.1774   21109957.6394
   -226720.973 9   -158835.93347  22450664.733    22450664.6084   22450675.4084
   -121071.528 9    -88026.68948  21139068.980    21139067.6084   21139076.5574
 80  9  1 20 57 56.0000000  0  6 30 24 17  5  6 10                   0.000975020
   -120987.295 9    -88195.32549  20914296.148    20914296.2444   20914304.4264
    138518.414 9     99830.52747  22172718.294    22172718.1674   22172727.0304
   -304086.107 9   -224318.16946  24120214.512    24120213.4044   24120232.7444
    101369.309 9     75240.37748  21110162.174    21110161.5394   21110170.9994
   -229658.465 9   -161124.88447  22450105.710    22450105.6264   22450116.4154
   -122342.244 9    -89016.85248  21138827.024    21138825.8164   21138834.7664
 80  9  1 20 57 57.0000000  0  6 30 24 17  5  6 10                   0.000974530
   -122337.653 9    -89247.54949  20914039.161    20914039.2924   20914047.4634
    140080.407 9    101047.66547  22173015.376    22173015.4014   22173024.2814
   -307574.897 9   -227036.69146  24119550.980    24119549.3334   24119568.8204
    102491.398 9     76114.73048  21110375.617    21110375.0824   21110384.5514
   -232595.575 9   -163413.53347  22449546.907    22449546.7224   22449557.5174
   -123611.980 9    -90006.25348  21138584.962    21138584.1634   21138593.1114
 80  9  1 20 57 58.0000000  0  6 30 24 17  5  6 10                   0.000974040
   -123686.972 9    -90298.96549  20913782.318    20913782.5304   20913790.7114
    141643.008 9    102265.28247  22173312.696    22173312.7654   22173321.6414
   -311063.010 9   -229754.69346  24118887.167    24118885.5934   24118905.0114
    103614.449 9     76989.83248  21110589.209    21110588.7934   21110598.2594
   -235532.124 9   -165701.74847  22448988.205    22448987.8894   22448998.6874
   -124880.553 9    -90994.75048  21138343.380    21138342.7604   21138351.7194
 80  9  1 20 57 59.0000000  0  6 30 24 17  5  6 10                   0.000973550
   -125035.767 9    -91349.97349  20913525.584    20913525.8584   20913534.0284
    143205.679 9    103482.94247  22173610.323    22173610.1294   22173619.0064
   -314550.978 9   -232472.57846  24118223.330    24118222.2724   24118241.3034
    104737.942 9     77865.27748  21110802.903    21110802.5754   21110812.0424
   -238468.653 9   -167989.94547  22448429.421    22448429.1064   22448439.9024
   -126148.524 9    -91982.77848  21138102.134    21138101.4774   21138110.4464
 80  9  1 20 58  0.0000000  0  7 30 24 17  4  5  6 10                0.000973061
   -126383.905 9    -92400.47049  20913269.051    20913269.3054   20913277.4864
    144768.544 9    104700.75547  22173907.918    22173907.5334   22173916.4254
   -318038.686 9   -235190.25846  24117559.629    24117558.7124   24117577.6044
    158892.107 8    114241.07252         0.000           0.0004          0.0005
    105862.000 9     78741.16348  21111016.697    21111016.4674   21111025.9404
   -241405.038 9   -170278.03647  22447870.924    22447870.3334   22447881.1114
   -127415.758 9    -92970.23148  21137860.928    21137860.3144   21137869.2784
 80  9  1 20 58  1.0000000  0  7 30 24 17  4  5  6 10                0.000972572
   -127731.085 9    -93450.21849  20913012.583    20913012.9524   20913021.1354
    146331.926 9    105918.97447  22174205.300    22174205.0374   22174213.9084
   -321525.786 9   -237907.46946  24116896.225    24116895.2414   24116914.0424
    161242.539 8    116072.61952         0.000           0.0004          0.0005
    106986.960 9     79617.75448  21111230.750    21111230.5494   21111240.0214
   -244340.930 9   -172565.74047  22447312.307    22447311.6694   22447322.4434
   -128681.922 9    -93956.85148  21137620.004    21137619.4014   21137628.3654
 80  9  1 20 58  2.0000000  0  6 30 24 17  5  6 10                   0.000972084
   -129077.255 9    -94499.18149  20912756.511    20912756.8004   20912764.9744
    147895.845 9    107137.61347  22174503.198    22174502.6514   22174511.5274
   -325012.278 9   -240624.20346  24116233.073    24116232.0404   24116250.6054
    108112.845 9     80495.06448  21111444.978    21111444.8114   21111454.2804
   -247276.335 9   -174853.06347  22446753.878    22446753.0764   22446763.8354
   -129947.009 9    -94942.62948  21137379.235    21137378.6474   21137387.6174
 80  9  1 20 58  3.0000000  0  6 30 24 17  5  6 10                   0.000971595
   -130423.161 9    -95547.93949  20912500.341    20912500.6474   20912508.8344
    149459.582 9    108356.10947  22174801.053    22174800.2354   22174809.1054
   -328498.888 9   -243341.03246  24115569.539    24115568.4494   24115587.1004
    109238.913 9     81372.51548  21111659.241    21111659.1034   21111668.5664
   -250211.980 9   -177140.57647  22446195.350    22446194.4434   22446205.2024
   -131211.748 9    -95928.14048  21137138.545    21137137.9744   21137146.9504
 80  9  1 20 58  4.0000000  0  6 30 24 17  5  6 10                   0.000971103
   -131768.555 9    -96596.30049  20912244.420    20912244.6444   20912252.8304
    151023.396 9    109574.66547  22175098.748    22175097.8094   22175106.6864
   -331985.367 9   -246057.75346  24114905.564    24114904.9494   24114923.6644
    110365.439 9     82250.32348  21111873.599    21111873.4844   21111882.9514
   -253147.593 9   -179428.06447  22445636.561    22445635.8294   22445646.5764
   -132475.881 9    -96913.17948  21136897.976    21136897.4204   21136906.4014
 80  9  1 20 58  5.0000000  0  6 30 24 17  5  6 10                   0.000970613
   -133113.465 9    -97644.28049  20911988.393    20911988.7114   20911996.8924
    152587.214 9    110793.22547  22175396.368    22175395.3934   22175404.2984
   -335471.737 9   -248774.39346  24114241.952    24114241.4784   24114260.2164
    111492.364 9     83128.44448  21112088.026    21112087.9164   21112097.3824
   -256083.238 9   -181715.57447  22445077.736    22445077.1964   22445087.9324
   -133739.460 9    -97897.78448  21136657.501    21136656.9674   21136665.9254
 80  9  1 20 58  6.0000000  0  6 30 24 17  5  6 10                   0.000970121
   -134457.835 9    -98691.84049  20911732.577    20911732.8794   20911741.0634
    154151.119 9    112011.85347  22175693.995    22175692.9674   22175701.8724
   -338957.969 9   -251490.92546  24113578.234    24113577.9774   24113596.7634
    112619.751 9     84006.92748  21112302.558    21112302.4474   21112311.9234
   -259018.850 9   -184003.06147  22444518.991    22444518.5934   22444529.3134
   -135002.430 9    -98881.91448  21136417.162    21136416.6234   21136425.6004
 80  9  1 20 58  7.0000000  0  6 30 24 17  5  6 10                   0.000969632
   -135801.621 9    -99738.94449  20911476.871    20911477.1664   20911485.3484
    155715.174 9    113230.59647  22175991.689    22175990.6114   22175999.4994
   -342443.984 9   -254207.28946  24112914.842    24112914.0874   24112933.3834
    113747.662 9     84885.81648  21112517.189    21112517.0794   21112526.5514
   -261954.344 9   -186290.45147  22443960.314    22443960.0004   22443970.7074
   -136264.733 9    -99865.52348  21136176.969    21136176.4304   21136185.4054
 80  9  1 20 58  8.0000000  0  6 30 24 17  5  6 10                   0.000969142
   -137144.589 9   -100785.41249  20911221.330    20911221.6224   20911229.8064
    157279.568 9    114449.60247  22176289.431    22176288.3154   22176297.1894
   -345929.579 9   -256923.32446  24112251.479    24112250.6464   24112270.0634
    114876.296 9     85765.26848  21112731.962    21112731.8604   21112741.3334
   -264889.529 9   -188577.60147  22443401.954    22443401.4364   22443412.1374
   -137526.158 9   -100848.45148  21135936.917    21135936.3864   21135945.3604
 80  9  1 20 58  9.0000000  0  6 30 24 17  5  6 10                   0.000968652
   -138486.519 9   -101831.07149  20910965.964    20910966.2494   20910974.4204
    158844.553 9    115669.07247  22176587.300    22176586.1394   22176595.0294
   -349414.530 9   -259638.85946  24111588.212    24111587.6254   24111606.8664
    116005.879 9     86645.45848  21112946.929    21112946.8214   21112956.2974
   -267824.189 9   -190864.34847  22442843.132    22442842.9834   22442853.6974
   -138786.487 9   -101830.52448  21135697.078    21135696.5324   21135705.5274
 80  9  1 20 58 10.0000000  0  6 30 24 17  5  6 10                   0.000968163
   -139827.623 9   -102876.08649  20910710.775    20910711.0564   20910719.2334
    160409.957 9    116888.86747  22176885.207    22176884.0134   22176892.9104
   -352899.020 9   -262354.03646  24110925.040    24110924.4544   24110943.7834
    117136.225 9     87526.24548  21113162.025    21113161.9124   21113171.3944
   -270758.503 9   -193150.82247  22442284.636    22442284.6304   22442295.3384
   -140045.906 9   -102811.88648  21135457.421    21135456.8784   21135465.8514
 80  9  1 20 58 11.0000000  0  7 30 24 17  4  5  6 10                0.000967673
   -141167.905 9   -103920.45849  20910455.743    20910456.0124   20910464.1974
    161975.708 9    118108.92947  22177183.172    22177181.9564   22177190.8504
   -356383.095 9   -265068.88846  24110261.936    24110261.5834   24110280.7524
    184743.207 8    134385.26752         0.000           0.0004          0.0005
    118267.300 9     88407.59948  21113377.250    21113377.1434   21113386.6134
   -273692.514 9   -195437.05747  22441726.201    22441726.2964   22441737.0124
   -141304.450 9   -103792.56748  21135217.929    21135217.3744   21135226.3514
 80  9  1 20 58 12.0000000  0  6 30 24 17  5  6 10                   0.000967184
   -142507.609 9   -104964.38649  20910200.792    20910201.0594   20910209.2464
    163541.563 9    119329.07547  22177481.174    22177479.9404   22177488.8484
   -359866.994 9   -267783.60446  24109598.881    24109598.4124   24109617.7874
    119398.864 9     89289.33348  21113592.600    21113592.4844   21113601.9584
   -276626.451 9   -197723.24047  22441168.101    22441168.0034   22441178.7144
   -142562.356 9   -104772.75048  21134978.571    21134978.0094   21134986.9944
 80  9  1 20 58 13.0000000  0  6 30 24 17  5  6 10                   0.000966694
   -143846.952 9   -106008.02949  20909945.947    20909946.2054   20909954.3864
    165107.380 9    120549.19247  22177779.145    22177777.9144   22177786.8104
   -363350.894 9   -270498.32046  24108935.835    24108935.5714   24108954.8414
    120530.707 9     90171.28748  21113807.991    21113807.8754   21113817.3394
   -279560.527 9   -200009.52347  22440609.852    22440609.6594   22440620.3674
   -143819.835 9   -105752.60448  21134739.294    21134738.7254   21134747.7134
 80  9  1 20 58 14.0000000  0  6 30 24 17  5  6 10                   0.000966205
   -145185.514 9   -107051.06449  20909691.228    20909691.4724   20909699.6484
    166673.483 9    121769.53447  22178077.167    22178075.9374   22178084.8394
   -366834.431 9   -273212.75246  24108272.866    24108273.2404   24108291.9604
    121663.226 9     91053.76548  21114023.525    21114023.3964   21114032.8684
   -282494.363 9   -202295.62747  22440051.621    22440051.3664   22440062.0854
   -145076.490 9   -106731.81448  21134500.173    21134499.5904   21134508.5844
 80  9  1 20 58 15.0000000  0  6 30 24 17  5  6 10                   0.000965715
   -146523.599 9   -108093.72749  20909436.609    20909436.8484   20909445.0224
    168239.616 9    122989.89447  22178375.178    22178373.9514   22178382.8524
   -370317.882 9   -275927.11546  24107609.894    24107610.1594   24107629.0824
    122796.125 9     91936.54548  21114239.119    21114238.9764   21114248.4474
   -285428.242 9   -204581.76347  22439493.178    22439493.0524   22439503.7684
   -146332.606 9   -107710.60448  21134261.144    21134260.5564   21134269.5474
 80  9  1 20 58 16.0000000  0  6 30 24 17  5  6 10                   0.000965226
   -147860.757 9   -109135.66449  20909182.162    20909182.3944   20909190.5734
    169806.224 9    124210.63047  22178673.287    22178672.0554   22178680.9684
   -373800.785 9   -278641.05546  24106947.063    24106947.0484   24106966.3304
    123929.853 9     92819.96748  21114454.865    21114454.6974   21114464.1794
   -288361.715 9   -206867.58147  22438934.769    22438934.8394   22438945.5584
   -147587.725 9   -108688.61448  21134022.319    21134021.7214   21134030.7144
 80  9  1 20 58 17.0000000  0  6 30 24 17  5  6 10                   0.000964738
   -149196.984 9   -110176.88049  20908927.886    20908928.1104   20908936.2834
    171373.312 9    125431.73447  22178971.491    22178970.2684   22178979.1784
   -377283.171 9   -281354.59046  24106284.321    24106284.3974   24106303.6644
    125064.412 9     93704.03748  21114670.770    21114670.5984   21114680.0774
   -291294.779 9   -209153.08247  22438376.780    22438376.7054   22438387.4204
   -148841.851 9   -109665.85248  21133783.674    21133783.0674   21133792.0654
 80  9  1 20 58 18.0000000  0  7 30 24 17  4  5  6 10                0.000964249
   -150532.153 9   -111217.27249  20908673.832    20908674.0464   20908682.2344
    172940.998 9    126653.30547  22179269.826    22179268.6124   22179277.5164
   -380764.888 9   -284067.60246  24105621.748    24105621.8854   24105641.1504
    201193.567 8    147204.04752         0.000           0.0004          0.0005
    126199.919 9     94588.84448  21114886.871    21114886.6884   21114896.1674
   -294227.327 9   -211438.18147  22437818.710    22437818.6614   22437829.3684
   -150094.857 9   -110642.21948  21133545.228    21133544.6024   21133553.6154
 80  9  1 20 58 19.0000000  0  6 30 24 17  5  6 10                   0.000963760
   -151867.222 9   -112257.58649  20908419.778    20908419.9824   20908428.1754
    174508.358 9    127874.62047  22179568.067    22179566.8454   22179575.7614
   -384246.874 9   -286780.82446  24104959.091    24104959.3244   24104978.5584
    127335.446 9     95473.66748  21115102.968    21115102.7784   21115112.2524
   -297160.277 9   -213723.59247  22437260.583    22437260.5184   22437271.2324
   -151347.681 9   -111618.44548  21133306.838    21133306.1974   21133315.2014
 80  9  1 20 58 20.0000000  0  7 30 24 17  4  5  6 10                0.000963272
   -153201.502 9   -113297.28449  20908165.859    20908166.0584   20908174.2474
    176076.026 9    129096.18247  22179866.368    22179865.1594   22179874.0774
   -387728.475 9   -289493.74846  24104296.537    24104296.8434   24104316.0494
    205893.429 8    150866.36452         0.000           0.0004          0.0005
    128471.655 9     96359.01948  21115319.205    21115319.0094   21115328.4854
   -300092.982 9   -216008.81347  22436702.527    22436702.4544   22436713.1724
   -152599.660 9   -112594.01148  21133068.622    21133067.9714   21133076.9864
 80  9  1 20 58 21.0000000  0  6 30 24 17  5  6 10                   0.000962784
   -154535.183 9   -114336.51549  20907912.073    20907912.2744   20907920.4574
    177643.813 9    130317.83547  22180164.725    22180163.5124   22180172.4374
   -391209.880 9   -292206.52146  24103634.028    24103634.3614   24103653.5774
    129608.359 9     97244.75848  21115535.498    21115535.2894   21115544.7674
   -303025.617 9   -218293.97847  22436144.457    22436144.3804   22436155.1014
   -153850.967 9   -113569.05348  21132830.507    21132829.8564   21132838.8604
 80  9  1 20 58 22.0000000  0  6 30 24 17  5  6 10                   0.000962295
   -155868.117 9   -115375.16249  20907658.433    20907658.6194   20907666.8044
    179211.908 9    131539.72747  22180463.111    22180461.9164   22180470.8334
   -394690.912 9   -294919.00246  24102971.583    24102971.9104   24102991.1554
    130745.723 9     98131.01548  21115751.942    21115751.7294   21115761.2074
   -305958.009 9   -220578.95447  22435586.438    22435586.3674   22435597.0684
   -155101.449 9   -114543.45248  21132592.562    21132591.9014   21132600.9114
 80  9  1 20 58 23.0000000  0  7 30 24 17  4  5  6 10                0.000961807
   -157200.340 9   -116413.25849  20907404.940    20907405.1254   20907413.3204
    180780.245 9    132761.80947  22180761.555    22180760.3694   22180769.2844
   -398171.626 9   -297631.23546  24102309.195    24102309.5284   24102328.8124
    212943.144 8    156359.78352         0.000           0.0004          0.0005
    131883.692 9     99017.74248  21115968.524    21115968.2994   21115977.7824
   -308890.226 9   -222863.78847  22435028.462    22435028.3734   22435039.0974
   -156351.157 9   -115517.24948  21132354.740    21132354.0764   21132363.0824
 80  9  1 20 58 24.0000000  0  7 30 24 17  4  5  6 10                0.000961319
   -158531.812 9   -117450.76749  20907151.583    20907151.7604   20907159.9614
    182348.870 9    133984.11347  22181060.032    22181058.8524   22181067.7744
   -401651.989 9   -300343.19246  24101646.877    24101647.1874   24101666.5134
    215293.085 8    158190.95252         0.000           0.0004          0.0005
    133022.313 9     99904.97648  21116185.191    21116184.9594   21116194.4434
   -311822.214 9   -225148.45147  22434470.545    22434470.4494   22434481.1674
   -157600.051 9   -116490.41248  21132117.087    21132116.4204   21132125.4284
 80  9  1 20 58 25.0000000  0  6 30 24 17  5  6 10                   0.000960831
   -159862.802 9   -118487.90449  20906898.288    20906898.4654   20906906.6604
    183917.541 9    135206.44947  22181358.533    22181357.3564   22181366.2854
   -405132.259 9   -303055.07946  24100984.568    24100984.8564   24101004.2324
    134161.314 9    100792.50448  21116401.959    21116401.7194   21116411.1944
   -314754.252 9   -227433.15547  22433912.595    22433912.5054   22433923.2114
   -158848.398 9   -117463.14948  21131879.536    21131878.8854   21131887.8884
 80  9  1 20 58 26.0000000  0  6 30 24 17  5  6 10                   0.000960343
   -161193.334 9   -119524.68149  20906645.119    20906645.2914   20906653.4854
    185486.196 9    136428.77747  22181657.018    22181655.8594   22181664.7794
   -408612.465 9   -305766.91546  24100322.282    24100322.5444   24100341.9724
    135300.666 9    101680.30848  21116618.763    21116618.5094   21116627.9934
   -317686.377 9   -229717.92147  22433354.637    22433354.5424   22433365.2484
   -160096.229 9   -118435.48348  21131642.077    21131641.4094   21131650.4264
 80  9  1 20 58 27.0000000  0  6 30 24 17  5  6 10                   0.000959855
   -162523.006 9   -120560.78749  20906392.079    20906392.2464   20906400.4464
    187055.260 9    137651.42747  22181955.606    22181954.4624   22181963.3914
   -412092.225 9   -308478.40146  24099660.104    24099660.3334   24099679.8284
    136440.777 9    102568.70548  21116835.742    21116835.4794   21116844.9614
   -320618.184 9   -232002.44347  22432796.755    22432796.6484   22432807.3454
   -161343.144 9   -119407.10248  21131404.782    21131404.1334   21131413.1294
 80  9  1 20 58 28.0000000  0  6 30 24 17  5  6 10                   0.000959367
   -163851.813 9   -121596.21949  20906139.205    20906139.3714   20906147.5634
    188624.723 9    138874.38447  22182254.231    22182253.0964   22182262.0254
   -415571.498 9   -311189.50646  24098997.997    24098998.2014   24099017.7334
    137581.638 9    103457.68548  21117052.850    21117052.5794   21117062.0524
   -323549.672 9   -234286.71247  22432238.911    22432238.7944   22432249.4984
   -162589.150 9   -120378.01348  21131167.673    21131167.0084   21131176.0214
 80  9  1 20 58 29.0000000  0  6 30 24 17  5  6 10                   0.000000003
  -1675813.046 9  -1299747.82949  20618422.555    20618422.7134   20618430.9144
  -1320435.951 9  -1037017.04947  21895089.539    21895088.4164   21895097.3574
  -1929685.670 9  -1491018.71446  23810871.608    23810871.8074   23810891.3624
  -1371907.673 9  -1072767.75448  20829806.588    20829806.2954   20829815.7824
  -1837115.684 9  -1413688.79847  22144216.885    22144216.7684   22144227.4604
  -1674467.455 9  -1298465.00348  20843466.815    20843466.1694   20843475.1684
 80  9  1 20 58 30.0000000  0  6 30 24 17  5  6 10                   0.000000004
  -1676371.036 9  -1300182.62549  20618316.368    20618316.5274   20618324.7284
  -1318096.643 9  -1035194.21547  21895534.678    21895533.5684   21895542.5084
  -1932394.938 9  -1493129.81946  23810356.057    23810356.2444   23810375.8304
  -1369996.217 9  -1071278.31048  20830170.361    20830170.0634   20830179.5394
  -1839277.469 9  -1415373.30047  22143805.507    22143805.3734   22143816.0834
  -1674942.556 9  -1298835.21148  20843376.385    20843375.7214   20843384.7344
 80  9  1 20 58 31.0000000  0  6 30 24 17  5  6 10                   0.000000005
  -1676928.472 9  -1300616.98949  20618210.294    20618210.4504   20618218.6714
  -1315757.239 9  -1033371.30547  21895979.840    21895978.7394   21895987.6874
  -1935104.038 9  -1495240.79346  23809840.493    23809840.6514   23809860.2744
  -1368084.329 9  -1069788.53248  20830534.189    20830533.8714   20830543.3534
  -1841439.254 9  -1417057.80647  22143394.136    22143393.9984   22143404.7014
  -1675417.043 9  -1299204.93848  20843286.112    20843285.4544   20843294.4634
 80  9  1 20 58 32.0000000  0  6 30 24 17  5  6 10                   0.000000006
  -1677485.417 9  -1301050.97149  20618104.298    20618104.4634   20618112.6774
  -1313417.839 9  -1031548.39347  21896424.994    21896423.9114   21896432.8444
  -1937813.065 9  -1497351.70846  23809324.988    23809325.1184   23809344.7874
  -1366172.060 9  -1068298.45548  20830898.085    20830897.7594   20830907.2394
  -1843601.109 9  -1418742.36447  22142982.751    22142982.6124   22142993.3154
  -1675891.012 9  -1299574.25948  20843195.901    20843195.2364   20843204.2454
 80  9  1 20 58 33.0000000  0  6 30 24 17  5  6 10                   0.000000006
  -1678041.795 9  -1301484.51149  20617998.443    20617998.6174   20618006.8164
  -1311078.346 9  -1029725.41547  21896870.182    21896869.1234   21896878.0634
  -1940521.925 9  -1499462.49246  23808809.507    23808809.6244   23808829.3134
  -1364259.350 9  -1066808.03348  20831262.077    20831261.7384   20831271.2214
  -1845762.971 9  -1420426.92647  22142571.346    22142571.2074   22142581.9104
  -1676364.381 9  -1299943.11648  20843105.817    20843105.1494   20843114.1584
 80  9  1 20 58 34.0000000  0  6 30 24 17  5  6 10                   0.000000007
  -1678597.467 9  -1301917.50249  20617892.681    20617892.8604   20617901.0554
  -1308738.616 9  -1027902.25047  21897315.381    21897314.3354   21897323.2784
  -1943230.479 9  -1501573.04346  23808294.061    23808294.1814   23808313.8604
  -1362346.040 9  -1065317.14548  20831626.184    20831625.8354   20831635.3124
  -1847924.697 9  -1422111.37747  22142159.996    22142159.8524   22142170.5634
  -1676837.001 9  -1300311.38948  20843015.901    20843015.2314   20843024.2464
 80  9  1 20 58 35.0000000  0  6 30 24 17  5  6 10                   0.000000008
  -1679152.677 9  -1302350.13149  20617787.049    20617787.2334   20617795.4414
  -1306398.909 9  -1026079.10347  21897760.589    21897759.5474   21897768.5054
  -1945938.995 9  -1503683.56546  23807778.657    23807778.7684   23807798.4614
  -1360432.388 9  -1063825.99248  20831990.357    20831989.9934   20831999.4684
  -1850086.536 9  -1423795.92447  22141748.601    22141748.4674   22141759.1704
  -1677309.134 9  -1300679.28348  20842926.038    20842925.3634   20842934.3774
 80  9  1 20 58 36.0000000  0  6 30 24 17  5  6 10                   0.000000009
  -1679707.118 9  -1302782.16349  20617681.533    20617681.7064   20617689.9254
  -1304058.931 9  -1024255.74247  21898205.872    21898204.8484   21898213.7934
  -1948647.148 9  -1505793.80246  23807263.283    23807263.3854   23807283.0794
  -1358518.094 9  -1062334.33648  20832354.668    20832354.3014   20832363.7724
  -1852248.185 9  -1425480.32747  22141337.246    22141337.1124   22141347.8204
  -1677780.468 9  -1301046.55648  20842836.373    20842835.7054   20842844.7104
 80  9  1 20 58 37.0000000  0  6 30 24 17  5  6 10                   0.000000010
  -1680260.972 9  -1303213.73749  20617576.114    20617576.2894   20617584.5114
  -1301718.860 9  -1022432.31347  21898651.142    21898650.1404   21898659.0714
  -1951355.123 9  -1507903.90046  23806747.977    23806748.0714   23806767.7664
  -1356603.327 9  -1060842.31048  20832719.022    20832718.6394   20832728.1114
  -1854409.852 9  -1427164.73647  22140925.886    22140925.7464   22140936.4564
  -1678251.195 9  -1301413.35448  20842746.794    20842746.1274   20842755.1294
 80  9  1 20 58 38.0000000  0  6 30 24 17  5  6 10                   0.000000010
  -1680814.312 9  -1303644.91049  20617470.822    20617470.9924   20617479.2154
  -1299378.749 9  -1020608.85047  21899096.456    21899095.4714   21899104.4064
  -1954062.965 9  -1510013.89446  23806232.694    23806232.7884   23806252.4564
  -1354688.174 9  -1059349.98648  20833083.477    20833083.0874   20833092.5644
  -1856571.573 9  -1428849.19147  22140514.511    22140514.3814   22140525.0894
  -1678721.372 9  -1301779.72548  20842657.319    20842656.6394   20842665.6624
 80  9  1 20 58 39.0000000  0  6 30 24 17  5  6 10                   0.000000011
  -1681366.906 9  -1304075.50249  20617365.677    20617365.8554   20617374.0824
  -1297038.377 9  -1018785.18147  21899541.798    21899540.8334   21899549.7624
  -1956770.504 9  -1512123.65646  23805717.474    23805717.5554   23805737.2204
  -1352772.399 9  -1057857.17748  20833448.062    20833447.6644   20833457.1444
  -1858733.127 9  -1430533.51247  22140103.183    22140103.0464   22140113.7594
  -1679190.759 9  -1302145.47948  20842567.983    20842567.3114   20842576.3234
 80  9  1 20 58 40.0000000  0  6 30 24 17  5  6 10                   0.000000012
  -1681919.016 9  -1304505.71849  20617260.610    20617260.7974   20617269.0224
  -1294697.996 9  -1016961.51047  21899987.148    21899986.1854   21899995.1314
  -1959477.954 9  -1514233.34746  23805202.274    23805202.3324   23805221.9984
  -1350856.266 9  -1056364.09048  20833812.700    20833812.2924   20833821.7644
  -1860894.782 9  -1432217.91747  22139691.816    22139691.6714   22139702.3904
  -1679659.638 9  -1302510.83948  20842478.774    20842478.0934   20842487.1094
 80  9  1 20 58 41.0000000  0  6 30 24 17  5  6 10                   0.000000013
  -1682470.542 9  -1304935.47749  20617155.659    20617155.8404   20617164.0704
  -1292357.542 9  -1015137.77947  21900432.500    21900431.5574   21900440.4904
  -1962185.217 9  -1516342.89146  23804687.086    23804687.1184   23804706.7964
  -1348939.673 9  -1054870.64448  20834177.426    20834177.0094   20834186.4874
  -1863056.431 9  -1433902.31247  22139280.472    22139280.3254   22139291.0474
  -1680127.896 9  -1302875.71148  20842389.676    20842388.9944   20842398.0174
 80  9  1 20 58 42.0000000  0  5 30 17  5  6 10                      0.000000021
  -1683025.735 9  -1305368.09449  20617049.989    20617050.1734   20617058.3914
  -1964896.561 9  -1518455.61146  23804171.145    23804171.1654   23804190.8394
  -1347026.867 9  -1053380.14948  20834541.408    20834540.9874   20834550.4624
  -1865222.320 9  -1435590.01647  22138868.307    22138868.1614   22138878.8844
  -1680599.785 9  -1303243.41348  20842299.874    20842299.1974   20842308.2154
 80  9  1 20 58 43.0000000  0  5 30 17  5  6 10                      0.000952074
   -183696.626 9   -137059.69749  20902362.827    20902363.0054   20902371.2494
   -467721.971 9   -351826.04946  24089073.999    24089074.0114   24089093.6764
    154767.767 9    116849.43448  21120323.448    21120323.0054   21120332.4964
   -367502.960 9   -268535.96047  22423874.838    22423874.6954   22423885.4104
   -181187.419 9   -134870.13948  21127628.537    21127627.8584   21127636.8784
 80  9  1 20 58 44.0000000  0  6 30 24 17  5  6 10                   0.000951576
   -185014.445 9   -138086.56549  20902112.070    20902112.2494   20902120.4914
    213768.832 9    158467.18547  22187038.815    22187037.8734   22187046.8274
   -471196.743 9   -354533.65046  24088412.775    24088412.7794   24088432.4344
    155917.717 9    117745.49748  21120542.275    21120541.8234   21120551.3144
   -370432.618 9   -270818.80047  22423317.317    22423317.1814   22423327.8964
   -182421.866 9   -135832.04148  21127393.647    21127392.9804   21127401.9884
 80  9  1 20 58 45.0000000  0  6 30 24 17  5  6 10                   0.000951089
   -186331.452 9   -139112.80449  20901861.453    20901861.6524   20901869.8764
    215341.864 9    159692.92347  22187338.129    22187337.1964   22187346.1494
   -474671.128 9   -357240.95246  24087751.600    24087751.5974   24087771.2374
    157068.351 9    118642.09348  21120761.251    21120760.8024   21120770.2864
   -373362.035 9   -273101.46047  22422759.864    22422759.7374   22422770.4564
   -183655.475 9   -136793.29148  21127158.903    21127158.2234   21127167.2394
 80  9  1 20 58 46.0000000  0  6 30 24 17  5  6 10                   0.000950603
   -187647.772 9   -140138.50949  20901610.949    20901611.1464   20901619.3814
    216915.102 9    160918.82447  22187637.509    22187636.5894   22187645.5454
   -478145.188 9   -359947.99946  24087090.492    24087090.4844   24087110.1074
    158219.561 9    119539.13648  21120980.319    21120979.8704   21120989.3514
   -376291.343 9   -275384.03447  22422202.440    22422202.3134   22422213.0354
   -184888.356 9   -137753.97948  21126924.272    21126923.5954   21126932.6084
 80  9  1 20 58 47.0000000  0  6 30 24 17  5  6 10                   0.000950117
   -188963.295 9   -141163.59049  20901360.623    20901360.8094   20901369.0544
    218488.640 9    162144.95447  22187936.918    22187936.0214   22187944.9644
   -481618.871 9   -362654.75446  24086429.477    24086429.4724   24086449.0784
    159371.445 9    120436.70448  21121199.518    21121199.0584   21121208.5374
   -379220.433 9   -277666.44147  22421645.040    22421644.9084   22421655.6354
   -186120.424 9   -138714.03048  21126689.830    21126689.1484   21126698.1644
 80  9  1 20 58 48.0000000  0  6 30 24 17  5  6 10                   0.000949631
   -190278.231 9   -142188.21349  20901110.403    20901110.5924   20901118.8344
    220062.256 9    163371.14847  22188236.361    22188235.4744   22188244.4164
   -485092.371 9   -365361.36746  24085768.492    24085768.4904   24085788.0704
    160523.797 9    121334.63948  21121418.826    21121418.3564   21121427.8394
   -382149.507 9   -279948.83247  22421087.637    22421087.5044   22421098.2424
   -187351.872 9   -139673.59648  21126455.500    21126454.8204   21126463.8354
 80  9  1 20 58 49.0000000  0  6 30 24 17  5  6 10                   0.000949145
   -191592.258 9   -143212.13149  20900860.355    20900860.5554   20900868.7904
    221636.337 9    164597.70747  22188535.903    22188535.0274   22188543.9714
   -488565.365 9   -368067.58546  24085107.613    24085107.5974   24085127.1804
    161676.957 9    122233.20348  21121638.250    21121637.7654   21121647.2594
   -385078.242 9   -282230.96047  22420530.320    22420530.1904   22420540.9204
   -188582.367 9   -140632.42348  21126221.338    21126220.6624   21126229.6764
 80  9  1 20 58 50.0000000  0  6 30 24 17  5  6 10                   0.000948659
   -192905.679 9   -144235.57649  20900610.409    20900610.5984   20900618.8354
    223210.522 9    165824.34647  22188835.447    22188834.5804   22188843.5304
   -492038.153 9   -370773.63946  24084446.754    24084446.7354   24084466.3094
    162830.595 9    123132.13848  21121857.779    21121857.2934   21121866.7924
   -388006.944 9   -284513.06247  22419972.996    22419972.8664   22419983.5914
   -189812.221 9   -141590.74748  21125987.310    21125986.6344   21125995.6474
 80  9  1 20 58 51.0000000  0  6 30 24 17  5  6 10                   0.000948173
   -194218.133 9   -145258.26749  20900360.654    20900360.8514   20900369.0904
    224785.186 9    167051.35647  22189135.067    22189134.2124   22189143.1694
   -495510.378 9   -373479.25746  24083786.020    24083785.9924   24083805.5634
    163985.087 9    124031.74048  21122077.484    21122077.0004   21122086.4864
   -390935.254 9   -286794.85547  22419415.771    22419415.6514   22419426.3684
   -191041.074 9   -142548.29148  21125753.464    21125752.7864   21125761.8084
 80  9  1 20 58 52.0000000  0  6 30 24 17  5  6 10                   0.000947687
   -195529.757 9   -146280.31249  20900111.057    20900111.2544   20900119.4924
    226360.198 9    168278.63847  22189434.773    22189433.9254   22189442.8874
   -498982.182 9   -376184.54846  24083125.359    24083125.3194   24083144.8934
    165140.297 9    124931.89948  21122297.332    21122296.8484   21122306.3314
   -393863.312 9   -289076.45347  22418858.567    22418858.4474   22418869.1654
   -192269.070 9   -143505.17248  21125519.765    21125519.0974   21125528.1084
 80  9  1 20 58 53.0000000  0  6 30 24 17  5  6 10                  -0.000000017
  -1689108.683 9  -1310108.04649  20615892.431    20615892.6344   20615900.8684
  -1264329.868 9   -993298.03947  21905765.885    21905765.0454   21905774.0084
  -1994723.742 9  -1541697.44146  23798495.191    23798495.1454   23798514.7144
  -1325969.577 9  -1036971.90248  20838548.567    20838548.0834   20838557.5674
  -1889060.789 9  -1454165.39647  22134331.931    22134331.8114   22134342.5244
  -1685764.248 9  -1307267.64648  20841317.084    20841316.4174   20841325.4334
 80  9  1 20 58 54.0000000  0  6 30 24 17  5  6 10                  -0.000000016
  -1689651.047 9  -1310530.66549  20615789.240    20615789.4464   20615797.6734
  -1261986.607 9   -991472.12447  21906211.793    21906210.9664   21906219.9304
  -1997427.131 9  -1543803.96746  23797980.750    23797980.7014   23798000.2584
  -1324045.354 9  -1035472.51048  20838914.720    20838914.2304   20838923.7254
  -1891220.745 9  -1455848.47647  22133920.915    22133920.7964   22133931.5034
  -1686222.917 9  -1307625.04648  20841229.798    20841229.1374   20841238.1464
 80  9  1 20 58 55.0000000  0  6 30 24 17  5  6 10                  -0.000000014
  -1690192.909 9  -1310952.89649  20615686.120    20615686.3274   20615694.5524
  -1259643.317 9   -989646.18147  21906657.692    21906656.8774   21906665.8434
  -2000130.433 9  -1545910.42546  23797466.364    23797466.3174   23797485.8664
  -1322120.748 9  -1033972.82048  20839280.975    20839280.4864   20839289.9774
  -1893380.794 9  -1457531.62447  22133509.876    22133509.7504   22133520.4604
  -1686681.050 9  -1307982.03348  20841142.630    20841141.9584   20841150.9774
 80  9  1 20 58 56.0000000  0  6 30 24 17  5  6 10                  -0.000000012
  -1690734.359 9  -1311374.80549  20615583.085    20615583.2994   20615591.5194
  -1257300.131 9   -987820.32347  21907103.558    21907102.7494   21907111.7204
  -2002833.722 9  -1548016.87346  23796951.954    23796951.9034   23796971.4344
  -1320195.857 9  -1032472.90948  20839647.251    20839646.7534   20839656.2474
  -1895541.003 9  -1459214.89847  22133098.786    22133098.6654   22133109.3624
  -1687138.741 9  -1308338.67148  20841055.539    20841054.8784   20841063.8934
 80  9  1 20 58 57.0000000  0  6 30 24 17  5  6 10                  -0.000000010
  -1691275.434 9  -1311796.41949  20615480.111    20615480.3304   20615488.5544
  -1254957.058 9   -985994.55247  21907549.424    21907548.6204   21907557.5894
  -2005537.061 9  -1550123.35946  23796437.530    23796437.4794   23796457.0054
  -1318270.713 9  -1030972.79948  20840013.610    20840013.1094   20840022.6064
  -1897701.416 9  -1460898.33247  22132687.663    22132687.5494   22132698.2354
  -1687596.030 9  -1308694.99848  20840968.524    20840967.8684   20840976.8754
 80  9  1 20 58 58.0000000  0  6 30 24 17  5  6 10                  -0.000000009
  -1691815.908 9  -1312217.56649  20615377.254    20615377.4614   20615385.7054
  -1252613.864 9   -984168.68747  21907995.317    21907994.5214   21908003.4954
  -2008240.214 9  -1552229.69846  23795923.148    23795923.1054   23795942.6224
  -1316345.087 9  -1029472.31348  20840380.045    20840379.5454   20840389.0394
  -1899861.817 9  -1462581.75647  22132276.551    22132276.4444   22132287.1324
  -1688052.697 9  -1309050.83848  20840881.616    20840880.9484   20840889.9644
 80  9  1 20 58 59.0000000  0  6 30 24 17  5  6 10                  -0.000000007
  -1692355.805 9  -1312638.26449  20615274.526    20615274.7424   20615282.9784
  -1250270.584 9   -982342.75947  21908441.224    21908440.4424   21908449.4074
  -2010943.217 9  -1554335.92146  23795408.782    23795408.7314   23795428.2464
  -1314418.992 9  -1027971.46348  20840746.569    20840746.0724   20840755.5574
  -1902022.211 9  -1464265.17847  22131865.452    22131865.3394   22131876.0414
  -1688508.750 9  -1309406.20448  20840794.841    20840794.1684   20840803.1894
 80  9  1 20 59  0.0000000  0  6 30 24 17  5  6 10                  -0.000000006
  -1692895.246 9  -1313058.60749  20615171.873    20615172.0834   20615180.3274
  -1247927.340 9   -980516.85547  21908887.114    21908886.3434   21908895.3164
  -2013646.171 9  -1556442.10646  23794894.458    23794894.4174   23794913.9084
  -1312492.556 9  -1026470.34648  20841113.169    20841112.6684   20841122.1584
  -1904182.736 9  -1465948.70047  22131454.316    22131454.2134   22131464.9014
  -1688964.315 9  -1309761.18548  20840708.132    20840707.4684   20840716.4804
 80  9  1 20 59  1.0000000  0  6 30 24 17  5  6 10                  -0.000000004
  -1693434.297 9  -1313478.64449  20615069.296    20615069.5044   20615077.7494
  -1245584.181 9   -978691.01547  21909332.994    21909332.2354   21909341.2134
  -2016349.133 9  -1558548.29946  23794380.098    23794380.0534   23794399.5494
  -1310565.831 9  -1024969.00448  20841479.815    20841479.3144   20841488.8024
  -1906343.460 9  -1467632.37747  22131043.146    22131043.0384   22131053.7214
  -1689419.472 9  -1310115.84748  20840621.513    20840620.8384   20840629.8644
 80  9  1 20 59  2.0000000  0  6 30 24 17  5  6 10                   0.000000000
  -1693972.935 9  -1313898.36249  20614966.784    20614966.9854   20614975.2364
  -1243241.088 9   -976865.22847  21909778.859    21909778.1064   21909787.0824
  -2019052.117 9  -1560654.50546  23793865.756    23793865.6904   23793885.1904
  -1308638.805 9  -1023467.42848  20841846.508    20841846.0004   20841855.4874
  -1908504.347 9  -1469316.18647  22130631.959    22130631.8424   22130642.5334
  -1689874.179 9  -1310470.16548  20840535.007    20840534.3284   20840543.3624
 80  9  1 20 59  3.0000000  0  6 30 24 17  5  6 10                   0.000000001
  -1694510.963 9  -1314317.60549  20614864.413    20614864.6164   20614872.8534
  -1240897.877 9   -975039.34747  21910224.751    21910224.0174   21910232.9784
  -2021754.894 9  -1562760.54846  23793351.440    23793351.3664   23793370.8564
  -1306711.276 9  -1021965.46448  20842213.321    20842212.8164   20842222.3074
  -1910665.207 9  -1470999.96447  22130220.753    22130220.6274   22130231.3164
  -1690328.254 9  -1310823.98948  20840448.585    20840447.9084   20840456.9334
 80  9  1 20 59  4.0000000  0  6 30 24 17  5  6 10                   0.000000003
  -1695048.467 9  -1314736.43949  20614762.118    20614762.3274   20614770.5724
  -1238554.621 9   -973213.43847  21910670.662    21910669.9394   21910678.9064
  -2024457.556 9  -1564866.50646  23792837.151    23792837.0724   23792856.5554
  -1304783.350 9  -1020463.18448  20842580.184    20842579.6624   20842589.1604
  -1912826.156 9  -1472683.81647  22129809.546    22129809.4324   22129820.1164
  -1690781.802 9  -1311177.40248  20840362.290    20840361.6184   20840370.6314
 80  9  1 20 59  5.0000000  0  6 30 24 17  5  6 10                   0.000000004
  -1695585.242 9  -1315154.70549  20614659.985    20614660.1984   20614668.4314
  -1236211.121 9   -971387.33347  21911116.582    21911115.8704   21911124.8284
  -2027159.921 9  -1566972.22946  23792322.918    23792322.8384   23792342.3134
  -1302854.815 9  -1018960.43348  20842947.181    20842946.6684   20842956.1624
  -1914986.963 9  -1474367.55647  22129398.366    22129398.2464   22129408.9294
  -1691234.596 9  -1311530.22548  20840276.106    20840275.4474   20840284.4564
 80  9  1 20 59  6.0000000  0  6 30 24 17  5  6 10                   0.000000005
  -1696121.378 9  -1315572.47049  20614557.952    20614558.1684   20614566.3904
  -1233867.478 9   -969561.12047  21911562.555    21911561.8514   21911570.8004
  -2029862.061 9  -1569077.78046  23791808.712    23791808.6244   23791828.0854
  -1300925.774 9  -1017457.28648  20843314.266    20843313.7544   20843323.2404
  -1917147.724 9  -1476051.25947  22128987.172    22128987.0514   22128997.7254
  -1691686.735 9  -1311882.54048  20840190.078    20840189.4174   20840198.4184
 80  9  1 20 59  7.0000000  0  6 30 24 17  5  6 10                   0.000000006
  -1696657.320 9  -1315990.08949  20614455.970    20614456.1694   20614464.4074
  -1231524.138 9   -967735.14047  21912008.494    21912007.7834   21912016.7574
  -2032564.452 9  -1571183.52546  23791294.493    23791294.3904   23791313.8504
  -1298996.680 9  -1015954.10048  20843681.383    20843680.8704   20843690.3594
  -1919308.925 9  -1477735.31347  22128575.931    22128575.8064   22128586.4794
  -1692138.690 9  -1312234.71148  20840104.058    20840103.3964   20840112.4054
 80  9  1 20 59  8.0000000  0  6 30 24 17  5  6 10                   0.000000007
  -1697192.756 9  -1316407.31249  20614354.097    20614354.2904   20614362.5384
  -1229180.800 9   -965909.16247  21912454.398    21912453.7044   21912462.6764
  -2035266.759 9  -1573289.20546  23790780.275    23790780.1564   23790799.6114
  -1297067.212 9  -1014450.62248  20844048.527    20844048.0064   20844057.5024
  -1921470.205 9  -1479419.42347  22128164.636    22128164.5204   22128175.1824
  -1692590.116 9  -1312586.47148  20840018.157    20840017.5064   20840026.5034
 80  9  1 20 59  9.0000000  0  6 30 24 17  5  6 10                   0.000000008
  -1697727.918 9  -1316824.31849  20614252.230    20614252.4304   20614260.6694
  -1226837.702 9   -964083.37247  21912900.259    21912899.5754   21912908.5384
  -2037969.190 9  -1575394.98446  23790266.008    23790265.8724   23790285.3084
  -1295137.600 9  -1012947.03248  20844415.745    20844415.2214   20844424.7144
  -1923631.809 9  -1481103.78347  22127753.299    22127753.1854   22127763.8454
  -1693041.255 9  -1312938.00548  20839932.321    20839931.6654   20839940.6594
 80  9  1 20 59 10.0000000  0  6 30 24 17  5  6 10                   0.000000009
  -1698262.465 9  -1317240.84949  20614150.534    20614150.7314   20614158.9724
  -1224494.467 9   -962257.47647  21913346.181    21913345.5074   21913354.4674
  -2040671.438 9  -1577500.62146  23789751.803    23789751.6484   23789771.0744
  -1293207.518 9  -1011443.07548  20844783.027    20844782.5074   20844792.0054
  -1925793.424 9  -1482788.15447  22127341.959    22127341.8304   22127352.5024
  -1693491.769 9  -1313289.05048  20839846.582    20839845.9154   20839854.9274
 80  9  1 20 59 11.0000000  0  6 30 24 17  5  6 10                   0.000000009
  -1698796.270 9  -1317656.79949  20614048.926    20614049.1214   20614057.3604
  -1222150.983 9   -960431.38747  21913792.100    21913791.4284   21913800.3974
  -2043373.387 9  -1579606.01946  23789237.641    23789237.4744   23789256.8854
  -1291276.832 9  -1009938.64548  20845150.411    20845149.8934   20845159.3874
  -1927954.893 9  -1484472.41147  22126930.652    22126930.5254   22126941.1884
  -1693941.528 9  -1313639.50948  20839761.004    20839760.3544   20839769.3474
 80  9  1 20 59 12.0000000  0  6 30 24 17  5  6 10                   0.000000010
  -1699329.378 9  -1318072.20849  20613947.489    20613947.6814   20613955.9234
  -1219807.302 9   -958605.13847  21914238.092    21914237.4194   21914246.3964
  -2046075.046 9  -1581711.19846  23788723.531    23788723.3604   23788742.7574
  -1289345.597 9  -1008433.78948  20845517.934    20845517.4194   20845526.9064
  -1930116.272 9  -1486156.60147  22126519.373    22126519.2404   22126529.9094
  -1694390.570 9  -1313989.40748  20839675.558    20839674.8934   20839683.9024
 80  9  1 20 59 13.0000000  0  6 30 24 17  5  6 10                   0.000000011
  -1699861.871 9  -1318487.13749  20613846.151    20613846.3514   20613854.5994
  -1217463.501 9   -956778.80447  21914684.112    21914683.4504   21914692.4214
  -2048776.519 9  -1583816.22946  23788209.454    23788209.2664   23788228.6564
  -1287413.903 9  -1006928.57648  20845885.512    20845884.9944   20845894.4894
  -1932277.671 9  -1487840.80247  22126108.070    22126107.9344   22126118.6044
  -1694839.008 9  -1314338.83648  20839590.231    20839589.5624   20839598.5644
 80  9  1 20 59 14.0000000  0  6 30 24 17  5  6 10                   0.000000012
  -1700393.610 9  -1318901.47749  20613744.985    20613745.1914   20613753.4324
  -1215119.458 9   -954952.27547  21915130.150    21915129.4824   21915138.4674
  -2051477.675 9  -1585921.01546  23787695.469    23787695.2814   23787714.6524
  -1285481.603 9  -1005422.89348  20846253.232    20846252.7094   20846262.2084
  -1934438.928 9  -1489524.88847  22125696.799    22125696.6594   22125707.3394
  -1695286.675 9  -1314687.66548  20839505.047    20839504.3814   20839513.3904
 80  9  1 20 59 15.0000000  0  6 30 24 17  5  6 10                   0.000000013
  -1700924.696 9  -1319315.30849  20613643.912    20613644.1214   20613652.3714
  -1212775.296 9   -953125.65747  21915576.242    21915575.5734   21915584.5574
  -2054178.599 9  -1588025.61946  23787181.488    23787181.2974   23787200.6524
  -1283548.795 9  -1003916.80948  20846621.038    20846620.5154   20846630.0084
  -1936600.140 9  -1491208.94747  22125285.531    22125285.3844   22125296.0634
  -1695733.678 9  -1315035.97748  20839419.984    20839419.3104   20839428.3034
 80  9  1 20 59 16.0000000  0  6 30 24 17  5  6 10                   0.000000014
  -1701455.165 9  -1319728.66049  20613542.972    20613543.1714   20613551.4164
  -1210430.996 9   -951298.92747  21916022.346    21916021.6744   21916030.6674
  -2056879.316 9  -1590130.06046  23786667.571    23786667.3734   23786686.7144
  -1281615.533 9  -1002410.37448  20846988.921    20846988.4004   20846997.8954
  -1938761.382 9  -1492893.02847  22124874.242    22124874.0994   22124884.7834
  -1696180.068 9  -1315383.81148  20839335.055    20839334.3694   20839343.3794
 80  9  1 20 59 17.0000000  0  6 30 24 17  5  6 10                   0.000000015
  -1701984.830 9  -1320141.38749  20613442.157    20613442.3614   20613450.6064
  -1208086.406 9   -949471.97347  21916468.499    21916467.8354   21916476.8264
  -2059579.681 9  -1592234.22946  23786153.708    23786153.5094   23786172.8204
  -1279681.604 9  -1000903.41948  20847356.945    20847356.4154   20847365.9254
  -1940922.424 9  -1494576.95047  22124463.017    22124462.8634   22124473.5484
  -1696625.638 9  -1315731.00548  20839250.250    20839249.5684   20839258.5644
 80  9  1 20 59 18.0000000  0  6 30 24 17  5  6 10                   0.000000016
  -1702513.815 9  -1320553.58349  20613341.509    20613341.7204   20613349.9574
  -1205741.661 9   -947644.90247  21916914.683    21916914.0164   21916923.0054
  -2062279.792 9  -1594338.20046  23785639.882    23785639.6754   23785658.9714
  -1277747.140 9   -999396.04748  20847725.064    20847724.5304   20847734.0434
  -1943083.401 9  -1496260.82347  22124051.787    22124051.6284   22124062.3244
  -1697070.529 9  -1316077.67148  20839165.597    20839164.9064   20839173.9084
 80  9  1 20 59 19.0000000  0  6 30 24 17  5  6 10                   0.000000017
  -1703042.207 9  -1320965.31649  20613240.961    20613241.1804   20613249.4044
  -1203396.823 9   -945817.75547  21917360.892    21917360.2374   21917369.2284
  -2064979.746 9  -1596442.05346  23785126.079    23785125.8704   23785145.1524
  -1275812.227 9   -997888.32748  20848093.275    20848092.7464   20848102.2484
  -1945244.427 9  -1497944.73347  22123640.555    22123640.4034   22123651.0904
  -1697514.834 9  -1316423.87848  20839081.067    20839080.3654   20839089.3744
 80  9  1 20 59 20.0000000  0  6 30 24 17  5  6 10                   0.000000018
  -1703569.897 9  -1321376.49949  20613140.546    20613140.7594   20613148.9994
  -1201051.803 9   -943990.47347  21917807.118    21917806.4684   21917815.4454
  -2067679.428 9  -1598545.69346  23784612.355    23784612.1464   23784631.4134
  -1273876.739 9   -996380.15848  20848461.568    20848461.0404   20848470.5444
  -1947405.351 9  -1499628.56647  22123229.340    22123229.1774   22123239.8704
  -1697958.425 9  -1316769.53148  20838996.668    20838995.9634   20839004.9764
 80  9  1 20 59 21.0000000  0  6 30 24 17  5  6 10                   0.000000019
  -1704096.884 9  -1321787.13749  20613040.246    20613040.4594   20613048.7094
  -1198706.604 9   -942163.04247  21918253.412    21918252.7694   21918261.7364
  -2070378.851 9  -1600649.12946  23784098.681    23784098.4624   23784117.7244
  -1271940.695 9   -994871.55448  20848829.996    20848829.4654   20848838.9724
  -1949566.195 9  -1501312.33447  22122818.155    22122817.9924   22122828.6864
  -1698401.307 9  -1317114.63148  20838912.382    20838911.6724   20838920.6744
 80  9  1 20 59 22.0000000  0  6 30 24 17  5  6 10                   0.000000020
  -1704623.305 9  -1322197.33549  20612940.078    20612940.2984   20612948.5334
  -1196361.329 9   -940335.55847  21918699.689    21918699.0504   21918708.0144
  -2073078.151 9  -1602752.47146  23783585.011    23783584.7874   23783604.0474
  -1270004.211 9   -993362.60848  20849198.484    20849197.9604   20849207.4584
  -1951727.129 9  -1502996.17547  22122406.947    22122406.7874   22122417.4824
  -1698843.632 9  -1317459.29848  20838828.212    20838827.5104   20838836.4964
 80  9  1 20 59 23.0000000  0  6 30 24 17  5  6 10                   0.000000021
  -1705148.999 9  -1322606.96749  20612840.026    20612840.2484   20612848.4874
  -1194015.837 9   -938507.89847  21919146.007    21919145.3714   21919154.3504
  -2075777.154 9  -1604855.58246  23783071.410    23783071.1824   23783090.4294
  -1268067.136 9   -991853.20148  20849567.113    20849566.5754   20849576.0914
  -1953887.944 9  -1504679.92247  22121995.740    22121995.5714   22122006.2744
  -1699285.212 9  -1317803.38448  20838744.196    20838743.4784   20838752.4814
 80  9  1 20 59 24.0000000  0  6 30 24 17  5  6 10                   0.000000022
  -1705674.080 9  -1323016.11949  20612740.126    20612740.3374   20612748.5904
  -1191670.240 9   -936680.16447  21919592.359    21919591.7324   21919600.7044
  -2078475.990 9  -1606958.56346  23782557.850    23782557.6184   23782576.8564
  -1266129.580 9   -990343.41948  20849935.831    20849935.3004   20849944.8104
  -1956048.772 9  -1506363.68347  22121584.548    22121584.3864   22121595.0834
  -1699726.167 9  -1318146.98248  20838660.271    20838659.5464   20838668.5524
 80  9  1 20 59 25.0000000  0  6 30 24 17  5  6 10                   0.000000023
  -1706198.387 9  -1323424.67149  20612640.337    20612640.5564   20612648.7884
  -1189324.400 9   -934852.23847  21920038.758    21920038.1234   21920047.0954
  -2081174.491 9  -1609061.27946  23782044.332    23782044.1044   23782063.3314
  -1264191.378 9   -988833.13748  20850304.648    20850304.1154   20850313.6244
  -1958209.490 9  -1508047.35747  22121173.393    22121173.2214   22121183.9294
  -1700166.351 9  -1318489.98048  20838576.524    20838575.7944   20838584.8054
 80  9  1 20 59 26.0000000  0  6 30 24 17  5  6 10                   0.000000024
  -1706722.066 9  -1323832.73049  20612540.685    20612540.9054   20612549.1504
  -1186978.426 9   -933024.20647  21920485.178    21920484.5644   21920493.5334
  -2083872.811 9  -1611163.85646  23781530.873    23781530.6394   23781549.8694
  -1262252.668 9   -987322.45648  20850673.585    20850673.0494   20850682.5674
  -1960370.186 9  -1509731.00647  22120762.215    22120762.0454   22120772.7524
  -1700605.879 9  -1318832.46748  20838492.890    20838492.1724   20838501.1584
 80  9  1 20 59 27.0000000  0  6 30 24 17  5  6 10                   0.000000025
  -1707245.097 9  -1324240.28549  20612441.161    20612441.3844   20612449.6204
  -1184632.339 9   -931196.08347  21920931.621    21920931.0154   21920939.9674
  -2086570.915 9  -1613266.26346  23781017.423    23781017.1944   23781036.4224
  -1260313.438 9   -985811.37048  20851042.598    20851042.0644   20851051.5784
  -1962530.864 9  -1511414.64647  22120351.034    22120350.8704   22120361.5694
  -1701044.736 9  -1319174.43148  20838409.370    20838408.6304   20838417.6384
 80  9  1 20 59 28.0000000  0  6 30 24 17  5  6 10                   0.000000027
  -1707767.353 9  -1324647.24049  20612341.768    20612341.9934   20612350.2224
  -1182285.999 9   -929367.76647  21921378.098    21921377.4864   21921386.4554
  -2089268.688 9  -1615368.41146  23780504.071    23780503.8304   23780523.0594
  -1258373.560 9   -984299.78248  20851411.770    20851411.2384   20851420.7464
  -1964691.421 9  -1513098.18847  22119939.897    22119939.7354   22119950.4324
  -1701482.802 9  -1319515.77948  20838326.020    20838325.2784   20838334.2894
 80  9  1 20 59 29.0000000  0  6 30 24 17  5  6 10                   0.000000028
  -1708289.130 9  -1325053.81849  20612242.485    20612242.7014   20612250.9354
  -1179939.703 9   -927539.48547  21921824.572    21921823.9574   21921832.9464
  -2091966.437 9  -1617470.54246  23779990.697    23779990.4554   23780009.6814
  -1256433.329 9   -982787.91648  20851780.977    20851780.4434   20851789.9584
  -1966852.119 9  -1514781.85047  22119528.710    22119528.5494   22119539.2474
  -1701920.378 9  -1319856.74648  20838242.754    20838242.0154   20838251.0104
 80  9  1 20 59 30.0000000  0  6 30 24 17  5  6 10                   0.000000029
  -1708810.124 9  -1325459.78749  20612143.345    20612143.5604   20612151.7994
  -1177593.130 9   -925710.98947  21922271.125    21922270.5284   21922279.5004
  -2094663.831 9  -1619572.39746  23779477.396    23779477.1414   23779496.3784
  -1254492.430 9   -981275.53248  20852150.313    20852149.7774   20852159.3004
  -1969012.651 9  -1516465.37347  22119117.582    22119117.4244   22119128.1364
  -1702357.149 9  -1320197.08748  20838159.623    20838158.8834   20838167.8764
 80  9  1 20 59 31.0000000  0  6 30 24 17  5  6 10                   0.000000030
  -1709330.464 9  -1325865.24649  20612044.343    20612044.5494   20612052.7944
  -1175246.450 9   -923882.41047  21922717.661    21922717.0694   21922726.0494
  -2097361.027 9  -1621674.09646  23778964.148    23778963.8864   23778983.1164
  -1252551.010 9   -979762.73848  20852519.745    20852519.2114   20852528.7314
  -1971173.197 9  -1518148.90947  22118706.431    22118706.2794   22118716.9804
  -1702793.279 9  -1320536.92548  20838076.658    20838075.9104   20838084.9194
 80  9  1 20 59 32.0000000  0  6 30 24 17  5  6 10                   0.000000031
  -1709850.086 9  -1326270.14449  20611945.455    20611945.6674   20611953.9104
  -1172899.577 9   -922053.67747  21923164.251    21923163.6604   21923172.6404
  -2100057.939 9  -1623775.57846  23778450.955    23778450.6914   23778469.9214
  -1250609.005 9   -978249.48948  20852889.300    20852888.7654   20852898.2864
  -1973333.649 9  -1519832.37747  22118295.309    22118295.1534   22118305.8704
  -1703228.681 9  -1320876.19748  20837993.802    20837993.0484   20838002.0594
 80  9  1 20 59 33.0000000  0  6 30 24 17  5  6 10                   0.000000032
  -1710369.077 9  -1326674.55349  20611846.705    20611846.9254   20611855.1594
  -1170552.597 9   -920224.86547  21923610.851    21923610.2714   21923619.2534
  -2102754.640 9  -1625876.89146  23777937.763    23777937.4974   23777956.7184
  -1248666.495 9   -976735.84848  20853258.965    20853258.4294   20853267.9474
  -1975494.081 9  -1521515.82947  22117884.182    22117884.0284   22117894.7454
  -1703663.433 9  -1321214.96248  20837911.053    20837910.3154   20837919.3014
 80  9  1 20 59 34.0000000  0  6 30 24 17  5  6 10                   0.000000033
  -1710887.383 9  -1327078.42749  20611748.056    20611748.2644   20611756.5154
  -1168205.469 9   -918395.93847  21924057.503    21924056.9414   21924065.9174
  -2105451.117 9  -1627978.03246  23777424.658    23777424.3924   23777443.6134
  -1246723.445 9   -975221.78548  20853628.717    20853628.1834   20853637.6954
  -1977654.489 9  -1523199.25647  22117473.082    22117472.9324   22117483.6534
  -1704097.505 9  -1321553.19748  20837828.478    20837827.7224   20837836.7264
 80  9  1 20 59 35.0000000  0  6 30 24 17  5  6 10                   0.000000034
  -1711405.055 9  -1327481.80749  20611649.567    20611649.7824   20611658.0264
  -1165858.235 9   -916566.92247  21924504.169    21924503.6124   21924512.5894
  -2108147.388 9  -1630079.00646  23776911.566    23776911.2874   23776930.5264
  -1244779.894 9   -973707.33348  20853998.553    20853998.0174   20854007.5404
  -1979814.866 9  -1524882.66447  22117061.966    22117061.8174   22117072.5344
  -1704530.923 9  -1321890.92548  20837745.978    20837745.2194   20837754.2194
 80  9  1 20 59 36.0000000  0  6 30 24 17  5  6 10                   0.000000035
  -1711922.201 9  -1327884.77849  20611551.148    20611551.3704   20611559.5994
  -1163511.002 9   -914737.90647  21924950.805    21924950.2524   21924959.2344
  -2110843.563 9  -1632179.90846  23776398.501    23776398.2234   23776417.4554
  -1242835.936 9   -972192.56448  20854368.502    20854367.9714   20854377.4894
  -1981975.337 9  -1526566.14147  22116650.850    22116650.7114   22116661.4224
  -1704963.796 9  -1322228.22448  20837663.631    20837662.8664   20837671.8774
 80  9  1 20 59 37.0000000  0  6 30 24 17  5  6 10                   0.000000036
  -1712438.718 9  -1328287.25849  20611452.863    20611453.0784   20611461.3244
  -1161163.665 9   -912908.81447  21925397.500    21925396.9634   21925405.9254
  -2113539.540 9  -1634280.65446  23775885.482    23775885.1884   23775904.4364
  -1240891.496 9   -970677.41848  20854738.496    20854737.9554   20854747.4764
  -1984135.823 9  -1528249.63747  22116239.719    22116239.5764   22116250.2904
  -1705396.045 9  -1322565.03948  20837581.365    20837580.6034   20837589.6024
 80  9  1 20 59 38.0000000  0  6 30 24 17  5  6 10                   0.000000037
  -1712954.630 9  -1328689.26649  20611354.689    20611354.9064   20611363.1484
  -1158816.269 9   -911079.67647  21925844.179    21925843.6444   21925852.6174
  -2116235.332 9  -1636381.25446  23775372.491    23775372.1934   23775391.4494
  -1238946.579 9   -969161.90048  20855108.606    20855108.0694   20855117.5944
  -1986296.300 9  -1529933.12147  22115828.583    22115828.4504   22115839.1604
  -1705827.671 9  -1322901.36748  20837499.232    20837498.4804   20837507.4644
 80  9  1 20 59 39.0000000  0  6 30 24 17  5  6 10                   0.000000038
  -1713469.900 9  -1329090.77549  20611256.620    20611256.8344   20611265.0794
  -1156468.766 9   -909250.45347  21926290.883    21926290.3454   21926299.3344
  -2118930.903 9  -1638481.68846  23774859.521    23774859.2184   23774878.4834
  -1237001.158 9   -967645.99048  20855478.827    20855478.2934   20855487.8114
  -1988456.762 9  -1531616.59447  22115417.442    22115417.3154   22115428.0164
  -1706258.656 9  -1323237.19848  20837417.208    20837416.4474   20837425.4394
 80  9  1 20 59 40.0000000  0  6 30 24 17  5  6 10                   0.000000039
  -1713984.538 9  -1329491.79249  20611158.697    20611158.9124   20611167.1584
  -1154121.154 9   -907421.14647  21926737.617    21926737.0964   21926746.0634
  -2121626.269 9  -1640581.96146  23774346.623    23774346.3034   23774365.5754
  -1235055.249 9   -966129.70148  20855849.105    20855848.5664   20855858.0834
  -1990617.238 9  -1533300.07547  22115006.333    22115006.1904   22115016.9164
  -1706689.006 9  -1323572.53548  20837335.315    20837334.5444   20837343.5474
 80  9  1 20 59 41.0000000  0  6 30 24 17  5  6 10                   0.000000040
  -1714498.595 9  -1329892.35449  20611060.878    20611061.0894   20611069.3314
  -1151773.502 9   -905591.80247  21927184.364    21927183.8464   21927192.8114
  -2124321.491 9  -1642682.12046  23773833.712    23773833.3884   23773852.6644
  -1233108.886 9   -964613.05648  20856219.487    20856218.9504   20856228.4674
  -1992777.749 9  -1534983.58347  22114595.208    22114595.0744   22114605.7834
  -1707118.756 9  -1323907.40448  20837253.542    20837252.7704   20837261.7734
 80  9  1 20 59 42.0000000  0  6 30 24 17  5  6 10                   0.000000041
  -1715011.996 9  -1330292.40849  20610963.187    20610963.4074   20610971.6304
  -1149425.728 9   -903762.37347  21927631.142    21927630.6174   21927639.5884
  -2127016.486 9  -1644782.10146  23773320.895    23773320.5734   23773339.8494
  -1231162.013 9   -963096.01448  20856589.989    20856589.4534   20856598.9704
  -1994938.211 9  -1536667.05747  22114184.063    22114183.9394   22114194.6424
  -1707547.835 9  -1324241.74848  20837171.911    20837171.1374   20837180.1444
 80  9  1 20 59 43.0000000  0  6 30 24 17  5  6 10                   0.000000042
  -1715524.699 9  -1330691.91549  20610865.601    20610865.8144   20610874.0524
  -1147077.813 9   -901932.82847  21928077.921    21928077.3984   21928086.3794
  -2129711.185 9  -1646881.85646  23772808.091    23772807.7584   23772827.0354
  -1229214.570 9   -961578.53048  20856960.562    20856960.0274   20856969.5464
  -1997098.630 9  -1538350.49647  22113772.963    22113772.8244   22113783.5414
  -1707976.211 9  -1324575.54348  20837090.372    20837089.6034   20837098.6064
 80  9  1 20 59 44.0000000  0  6 30 24 17  5  6 10                   0.000000043
  -1716036.870 9  -1331091.00849  20610768.147    20610768.3624   20610776.5884
  -1144729.900 9   -900103.28647  21928524.711    21928524.1894   21928533.1704
  -2132405.797 9  -1648981.54246  23772295.318    23772294.9834   23772314.2484
  -1227266.735 9   -960060.74048  20857331.221    20857330.6804   20857340.2014
  -1999259.134 9  -1540034.00447  22113361.833    22113361.6984   22113372.4144
  -1708404.040 9  -1324908.91748  20837008.967    20837008.2094   20837017.1914
 80  9  1 20 59 45.0000000  0  6 30 24 17  5  6 10                   0.000000044
  -1716548.371 9  -1331489.58049  20610670.802    20610671.0194   20610679.2544
  -1142381.860 9   -898273.64347  21928971.528    21928971.0094   21928979.9724
  -2135100.138 9  -1651081.02046  23771782.605    23771782.2684   23771801.5244
  -1225318.362 9   -958542.53248  20857702.000    20857701.4644   20857710.9884
  -2001419.594 9  -1541717.47647  22112950.711    22112950.5734   22112961.2824
  -1708831.184 9  -1325241.75548  20836927.672    20836926.9164   20836935.8964
 80  9  1 20 59 46.0000000  0  6 30 24 17  5  6 10                   0.000000045
  -1717059.256 9  -1331887.67149  20610573.596    20610573.8074   20610582.0504
  -1140033.762 9   -896443.95747  21929418.350    21929417.8404   21929426.7994
  -2137794.302 9  -1653180.35846  23771269.940    23771269.6034   23771288.8494
  -1223369.514 9   -957023.95148  20858072.857    20858072.3174   20858081.8474
  -2003580.114 9  -1543400.99447  22112539.572    22112539.4374   22112550.1394
  -1709257.740 9  -1325574.13548  20836846.506    20836845.7424   20836854.7294
 80  9  1 20 59 47.0000000  0  6 30 24 17  5  6 10                   0.000000045
  -1717569.538 9  -1332285.29349  20610476.501    20610476.7044   20610484.9444
  -1137685.607 9   -894614.22747  21929865.195    21929864.6714   21929873.6484
  -2140488.283 9  -1655279.55546  23770757.294    23770756.9474   23770776.1824
  -1221420.199 9   -955505.00748  20858443.808    20858443.2704   20858452.7954
  -2005740.650 9  -1545084.52347  22112128.452    22112128.3224   22112139.0154
  -1709683.681 9  -1325906.03548  20836765.459    20836764.6984   20836773.6854
 80  9  1 20 59 48.0000000  0  6 30 24 17  5  6 10                   0.000000046
  -1718079.174 9  -1332682.41049  20610379.509    20610379.7114   20610387.9564
  -1135337.373 9   -892784.43747  21930312.058    21930311.5514   21930320.5004
  -2143182.023 9  -1657378.56346  23770244.677    23770244.3324   23770263.5504
  -1219470.368 9   -953985.66148  20858814.826    20858814.2834   20858823.8164
  -2007901.174 9  -1546768.04247  22111717.288    22111717.1474   22111727.8464
  -1710108.976 9  -1326237.43148  20836684.506    20836683.7544   20836692.7274
 80  9  1 20 59 49.0000000  0  6 30 24 17  5  6 10                   0.000000047
  -1718588.191 9  -1333079.04649  20610282.642    20610282.8584   20610291.0964
  -1132989.083 9   -890954.60347  21930758.905    21930758.3924   21930767.3604
  -2145875.595 9  -1659477.44246  23769732.101    23769731.7574   23769750.9684
  -1217520.072 9   -952465.95348  20859185.958    20859185.4164   20859194.9554
  -2010061.766 9  -1548451.61647  22111306.164    22111306.0224   22111316.7114
  -1710533.676 9  -1326568.36648  20836603.694    20836602.9304   20836611.9314
 80  9  1 20 59 50.0000000  0  6 30 24 17  5  6 10                   0.000000048
  -1719096.416 9  -1333475.06749  20610185.934    20610186.1454   20610194.3874
  -1130640.552 9   -889124.57847  21931205.810    21931205.2934   21931214.2524
  -2148568.780 9  -1661576.01746  23769219.600    23769219.2524   23769238.4544
  -1215569.107 9   -950945.72748  20859557.224    20859556.6894   20859566.2144
  -2012222.175 9  -1550135.04947  22110895.038    22110894.8964   22110905.5874
  -1710957.566 9  -1326898.66848  20836523.039    20836522.2764   20836531.2744
 80  9  1 20 59 51.0000000  0  6 30 24 17  5  6 10                   0.000000048
  -1719604.119 9  -1333870.67949  20610089.342    20610089.5524   20610097.7864
  -1128292.042 9   -887294.57247  21931652.731    21931652.2234   21931661.1864
  -2151261.888 9  -1663674.53346  23768707.124    23768706.7674   23768725.9614
  -1213617.762 9   -949425.19948  20859928.551    20859928.0124   20859937.5544
  -2014382.707 9  -1551818.57747  22110483.894    22110483.7614   22110494.4404
  -1711380.928 9  -1327228.55948  20836442.460    20836441.7124   20836450.6924
 80  9  1 20 59 52.0000000  0  6 30 24 17  5  6 10                   0.000000049
  -1720111.190 9  -1334265.79949  20609992.833    20609993.0394   20610001.2754
  -1125943.482 9   -885464.52547  21932099.647    21932099.1444   21932108.1004
  -2153954.760 9  -1665772.86346  23768194.697    23768194.3424   23768213.5204
  -1211665.925 9   -947904.28948  20860299.988    20860299.4554   20860308.9884
  -2016543.289 9  -1553502.13847  22110072.754    22110072.6054   22110083.3034
  -1711803.671 9  -1327557.96748  20836362.033    20836361.2874   20836370.2674
 80  9  1 20 59 53.0000000  0  6 30 24 17  5  6 10                   0.000000050
  -1720617.553 9  -1334660.36749  20609896.470    20609896.6854   20609904.9274
  -1123594.779 9   -883634.37347  21932546.589    21932546.0944   21932555.0554
  -2156647.361 9  -1667870.98246  23767682.314    23767681.9574   23767701.1334
  -1209713.512 9   -946382.93348  20860671.510    20860670.9784   20860680.5184
  -2018703.783 9  -1555185.64047  22109661.637    22109661.4904   22109672.1814
  -1712225.698 9  -1327886.81748  20836281.712    20836280.9534   20836289.9454
 80  9  1 20 59 54.0000000  0  6 30 24 17  5  6 10                   0.000000051
  -1721123.390 9  -1335054.52349  20609800.236    20609800.4524   20609808.6864
  -1121246.112 9   -881804.23947  21932993.501    21932992.9954   21933001.9654
  -2159339.868 9  -1669969.03346  23767169.944    23767169.5714   23767188.7454
  -1207760.705 9   -944861.26948  20861043.129    20861042.6014   20861052.1404
  -2020864.390 9  -1556869.22147  22109250.475    22109250.3254   22109261.0234
  -1712647.188 9  -1328215.24748  20836201.498    20836200.7584   20836209.7344
 80  9  1 20 59 55.0000000  0  6 30 24 17  5  6 10                   0.000000051
  -1721628.487 9  -1335448.10549  20609704.105    20609704.3094   20609712.5574
  -1118897.271 9   -879973.97947  21933440.467    21933439.9754   21933448.9344
  -2162032.069 9  -1672066.83946  23766657.645    23766657.2664   23766676.4314
  -1205807.312 9   -943339.14548  20861414.845    20861414.3134   20861423.8574
  -2023024.923 9  -1558552.75247  22108839.347    22108839.1894   22108849.8834
  -1713067.942 9  -1328543.10748  20836121.424    20836120.6844   20836129.6604
 80  9  1 20 59 56.0000000  0  6 30 24 17  5  6 10                   0.000000052
  -1722133.060 9  -1335841.27949  20609608.100    20609608.3154   20609616.5554
  -1116548.440 9   -878143.71947  21933887.442    21933886.9564   21933895.9044
  -2164724.166 9  -1674164.56846  23766145.350    23766144.9704   23766164.1194
  -1203853.536 9   -941816.72648  20861786.618    20861786.0964   20861795.6434
  -2025185.549 9  -1560236.35047  22108428.180    22108428.0244   22108438.7084
  -1713488.154 9  -1328870.54048  20836041.482    20836040.7294   20836049.7144
 80  9  1 20 59 57.0000000  0  6 30 24 17  5  6 10                   0.000000052
  -1722636.988 9  -1336233.94849  20609512.205    20609512.4114   20609520.6674
  -1114199.523 9   -876313.39047  21934334.422    21934333.9364   21934342.8874
  -2167416.044 9  -1676262.12646  23765633.087    23765632.6954   23765651.8374
  -1201899.249 9   -940293.90948  20862158.506    20862157.9784   20862167.5324
  -2027346.152 9  -1561919.93247  22108017.036    22108016.8694   22108027.5674
  -1713907.705 9  -1329197.46048  20835961.642    20835960.8854   20835969.8664
 80  9  1 20 59 58.0000000  0  6 30 24 17  5  6 10                   0.000000053
  -1723140.110 9  -1336625.99349  20609416.466    20609416.6884   20609424.9254
  -1111850.376 9   -874482.88747  21934781.458    21934780.9674   21934789.9354
  -2170107.552 9  -1678359.39446  23765120.937    23765120.5504   23765139.6784
  -1199944.303 9   -938770.57848  20862530.517    20862529.9914   20862539.5384
  -2029506.614 9  -1563603.40347  22107605.917    22107605.7534   22107616.4424
  -1714326.458 9  -1329523.75948  20835881.945    20835881.1804   20835890.1684
 80  9  1 20 59 59.0000000  0  6 30 24 17  5  6 10                   0.000000054
  -1723642.716 9  -1337017.63149  20609320.817    20609321.0344   20609329.2824
  -1109501.253 9   -872652.40247  21935228.476    21935227.9974   21935236.9534
  -2172798.972 9  -1680456.59446  23764608.768    23764608.3744   23764627.4904
  -1197988.981 9   -937246.95148  20862902.607    20862902.0834   20862911.6354
  -2031667.173 9  -1565286.94947  22107194.768    22107194.5984   22107205.2974
  -1714744.685 9  -1329849.64548  20835802.367    20835801.6054   20835810.5874
 80  9  1 21  0  0.0000000  0  6 30 24 17  5  6 10                   0.000000054
  -1724144.715 9  -1337408.79849  20609225.279    20609225.5004   20609233.7334
  -1107152.072 9   -870821.86947  21935675.511    21935675.0384   21935683.9884
  -2175490.216 9  -1682553.65646  23764096.630    23764096.2294   23764115.3424
  -1196033.196 9   -935722.96448  20863274.783    20863274.2564   20863283.8174
  -2033827.737 9  -1566970.50347  22106783.621    22106783.4524   22106794.1514
  -1715162.296 9  -1330175.05348  20835722.900    20835722.1304   20835731.1194
 80  9  1 21  0  1.0000000  0  6 30 24 17  5  6 10                   0.000000055
  -1724645.992 9  -1337799.40549  20609129.882    20609130.1064   20609138.3494
  -1104802.727 9   -868991.21647  21936122.588    21936122.1094   21936131.0734
  -2178181.185 9  -1684650.50546  23763584.565    23763584.1634   23763603.2694
  -1194076.836 9   -934198.53048  20863647.063    20863646.5384   20863656.0934
  -2035988.253 9  -1568654.01847  22106372.507    22106372.3474   22106383.0334
  -1715579.196 9  -1330499.90948  20835643.563    20835642.7854   20835651.7744
 80  9  1 21  0  2.0000000  0  6 30 24 17  5  6 10                   0.000000055
  -1725146.582 9  -1338189.47549  20609034.639    20609034.8624   20609043.1064
  -1102453.251 9   -867160.45647  21936569.674    21936569.1994   21936578.1624
  -2180871.899 9  -1686747.15446  23763072.529    23763072.1284   23763091.2334
  -1192119.925 9   -932673.67048  20864019.453    20864018.9304   20864028.4814
  -2038148.688 9  -1570337.46947  22105961.372    22105961.2124   22105971.8954
  -1715995.398 9  -1330824.22248  20835564.351    20835563.5704   20835572.5594
 80  9  1 21  0  3.0000000  0  6 30 24 17  5  6 10                   0.000000056
  -1725646.594 9  -1338579.09349  20608939.487    20608939.7184   20608947.9604
  -1100103.754 9   -865329.68147  21937016.757    21937016.2704   21937025.2454
  -2183562.484 9  -1688843.70246  23762560.529    23762560.1324   23762579.2374
  -1190162.583 9   -931148.47148  20864391.925    20864391.4024   20864400.9624
  -2040309.183 9  -1572020.96547  22105550.266    22105550.1064   22105560.7904
  -1716411.024 9  -1331148.08448  20835485.265    20835484.4844   20835493.4734
 80  9  1 21  0  4.0000000  0  6 30 24 17  5  6 10                   0.000000056
  -1726145.974 9  -1338968.22049  20608844.460    20608844.6744   20608852.9274
  -1097754.195 9   -863498.85347  21937463.868    21937463.3804   21937472.3624
  -2186252.875 9  -1690940.10046  23762048.556    23762048.1574   23762067.2624
  -1188204.748 9   -929622.88548  20864764.517    20864763.9944   20864773.5554
  -2042469.698 9  -1573704.47947  22105139.126    22105138.9714   22105149.6554
  -1716826.029 9  -1331471.46248  20835406.313    20835405.5294   20835414.5214
 80  9  1 21  0  5.0000000  0  6 30 24 17  5  6 10                   0.000000057
  -1726644.558 9  -1339356.72749  20608749.560    20608749.7794   20608758.0314
  -1095404.376 9   -861667.82347  21937911.033    21937910.5414   21937919.5244
  -2188942.926 9  -1693036.23146  23761536.659    23761536.2514   23761555.3604
  -1186246.249 9   -928096.78748  20865137.195    20865136.6764   20865146.2274
  -2044630.043 9  -1575387.86247  22104728.014    22104727.8554   22104738.5404
  -1717240.239 9  -1331794.22148  20835327.482    20835326.7044   20835335.6874
 80  9  1 21  0  6.0000000  0  6 30 24 17  5  6 10                   0.000000057
  -1727142.526 9  -1339744.75349  20608654.812    20608655.0354   20608663.2904
  -1093054.516 9   -859836.76747  21938358.177    21938357.6914   21938366.6724
  -2191632.814 9  -1695132.23346  23761024.781    23761024.3754   23761043.4844
  -1184287.278 9   -926570.31948  20865509.989    20865509.4684   20865519.0204
  -2046790.401 9  -1577071.24947  22104316.907    22104316.7404   22104327.4314
  -1717653.840 9  -1332116.50848  20835248.774    20835247.9984   20835256.9824
 80  9  1 21  0  7.0000000  0  6 30 24 17  5  6 10                   0.000000058
  -1727639.800 9  -1340132.23949  20608560.166    20608560.3814   20608568.6304
  -1090704.523 9   -858005.59947  21938805.370    21938804.8914   21938813.8684
  -2194322.478 9  -1697228.06246  23760512.958    23760512.5504   23760531.6554
  -1182327.768 9   -925043.43148  20865882.864    20865882.3404   20865891.8944
  -2048950.731 9  -1578754.62047  22103905.810    22103905.6454   22103916.3404
  -1718066.788 9  -1332438.28348  20835170.175    20835169.3924   20835178.3894
 80  9  1 21  0  8.0000000  0  6 30 24 17  5  6 10                   0.000000058
  -1728136.434 9  -1340519.22449  20608465.659    20608465.8764   20608474.1284
  -1088354.434 9   -856174.36747  21939252.591    21939252.1124   21939261.1024
  -2197011.962 9  -1699323.74846  23760001.164    23760000.7544   23760019.8664
  -1180367.751 9   -923516.15048  20866255.837    20866255.3124   20866264.8684
  -2051111.039 9  -1580437.97547  22103494.702    22103494.5394   22103505.2324
  -1718479.100 9  -1332759.56548  20835091.718    20835090.9574   20835099.9274
 80  9  1 21  0  9.0000000  0  6 30 24 17  5  6 10                   0.000000058
  -1728632.453 9  -1340905.73149  20608371.277    20608371.4914   20608379.7464
  -1086004.287 9   -854343.08647  21939699.798    21939699.3224   21939708.3084
  -2199701.280 9  -1701419.30846  23759489.413    23759488.9984   23759508.1224
  -1178407.259 9   -921988.49548  20866628.937    20866628.4144   20866637.9704
  -2053271.363 9  -1582121.33747  22103083.619    22103083.4544   22103094.1474
  -1718890.817 9  -1333080.38448  20835013.388    20835012.6314   20835021.6004
 80  9  1 21  0 10.0000000  0  6 30 24 17  5  6 10                   0.000000058
  -1729127.671 9  -1341291.61649  20608277.050    20608277.2674   20608285.5184
  -1083653.927 9   -852511.63847  21940147.047    21940146.5734   21940155.5644
  -2202390.287 9  -1703514.62446  23758977.695    23758977.2734   23758996.4034
  -1176446.130 9   -920460.34548  20867002.126    20867001.5954   20867011.1614
  -2055431.572 9  -1583804.61147  22102672.553    22102672.3894   22102683.0764
  -1719301.792 9  -1333400.61948  20834935.175    20834934.4154   20834943.3924
 80  9  1 21  0 11.0000000  0  6 30 24 17  5  6 10                   0.000000059
  -1729622.299 9  -1341677.03849  20608182.932    20608183.1424   20608191.4134
  -1081303.526 9   -850680.15647  21940594.319    21940593.8534   21940602.8294
  -2205079.160 9  -1705609.83446  23758466.012    23758465.5874   23758484.7284
  -1174484.550 9   -918931.84148  20867375.385    20867374.8574   20867384.4224
  -2057591.809 9  -1585487.90847  22102261.468    22102261.3134   22102271.9944
  -1719712.171 9  -1333720.39148  20834857.075    20834856.3194   20834865.2894
 80  9  1 21  0 12.0000000  0  6 30 24 17  5  6 10                   0.000000059
  -1730116.378 9  -1342062.03349  20608088.890    20608089.0974   20608097.3554
  -1078953.131 9   -848848.68147  21941041.582    21941041.1044   21941050.0934
  -2207767.961 9  -1707704.98746  23757954.359    23757953.9324   23757973.0934
  -1172522.562 9   -917403.02048  20867748.758    20867748.2284   20867757.7934
  -2059752.127 9  -1587171.26947  22101850.353    22101850.1884   22101860.8744
  -1720122.019 9  -1334039.74948  20834779.067    20834778.3034   20834787.2834
 80  9  1 21  0 13.0000000  0  6 30 24 17  5  6 10                   0.000000059
  -1730609.515 9  -1342446.29849  20607995.051    20607995.2724   20608003.5284
  -1076602.376 9   -847016.92647  21941488.926    21941488.4644   21941497.4474
  -2210456.327 9  -1709799.80446  23757442.781    23757442.3454   23757461.5284
  -1170559.777 9   -915873.58648  20868122.262    20868121.7304   20868131.2904
  -2061912.178 9  -1588854.42247  22101439.317    22101439.1724   22101449.8404
  -1720530.969 9  -1334358.41148  20834701.253    20834700.5074   20834709.4734
 80  9  1 21  0 14.0000000  0  6 30 24 17  5  6 10                   0.000000059
  -1731102.110 9  -1342830.13849  20607901.319    20607901.5274   20607909.8024
  -1074251.633 9   -845185.17747  21941936.238    21941935.7644   21941944.7724
  -2213144.617 9  -1711894.56046  23756931.195    23756930.7594   23756949.9344
  -1168596.587 9   -914343.83148  20868495.849    20868495.3214   20868504.8804
  -2064072.304 9  -1590537.63347  22101028.266    22101028.1164   22101038.7794
  -1720939.376 9  -1334676.64748  20834623.551    20834622.8014   20834631.7664
 80  9  1 21  0 15.0000000  0  6 30 24 17  5  6 10                   0.000000059
  -1731594.016 9  -1343213.43849  20607807.718    20607807.9324   20607816.1894
  -1071900.775 9   -843353.34647  21942383.599    21942383.1444   21942392.1314
  -2215832.675 9  -1713989.13846  23756419.667    23756419.2334   23756438.4234
  -1166632.850 9   -912813.64948  20868869.533    20868869.0024   20868878.5674
  -2066232.370 9  -1592220.79647  22100617.197    22100617.0414   22100627.7074
  -1721347.114 9  -1334994.36148  20834545.936    20834545.1754   20834554.1514
 80  9  1 21  0 16.0000000  0  6 30 24 17  5  6 10                   0.000000059
  -1732085.281 9  -1343596.24349  20607714.223    20607714.4364   20607722.6974
  -1069549.861 9   -841521.46147  21942830.947    21942830.4944   21942839.4804
  -2218520.615 9  -1716083.62046  23755908.167    23755907.7384   23755926.9214
  -1164668.630 9   -911283.09148  20869243.317    20869242.7844   20869252.3504
  -2068392.477 9  -1593903.99247  22100206.157    22100206.0064   22100216.6694
  -1721754.235 9  -1335311.59448  20834468.464    20834467.7084   20834476.6864
 80  9  1 21  0 17.0000000  0  6 30 24 17  5  6 10                   0.000000059
  -1732575.648 9  -1343978.34649  20607620.895    20607621.1214   20607629.3714
  -1067198.617 9   -839689.32447  21943278.367    21943277.9154   21943286.9004
  -2221208.108 9  -1718177.75846  23755396.767    23755396.3314   23755415.5374
  -1162703.653 9   -909751.94348  20869617.256    20869616.7254   20869626.2824
  -2070552.305 9  -1595586.96947  22099795.142    22099795.0004   22099805.6464
  -1722160.458 9  -1335628.13048  20834391.173    20834390.4124   20834399.3944
 80  9  1 21  0 18.0000000  0  6 30 24 17  5  6 10                   0.000000059
  -1733065.539 9  -1344360.07949  20607527.670    20607527.8854   20607536.1464
  -1064847.447 9   -837857.24547  21943725.800    21943725.3554   21943734.3424
  -2223895.602 9  -1720271.90046  23754885.346    23754884.9154   23754904.1184
  -1160738.339 9   -908220.53248  20869991.241    20869990.7064   20870000.2714
  -2072712.279 9  -1597270.06747  22099384.120    22099383.9754   22099394.6204
  -1722566.207 9  -1335944.29648  20834313.951    20834313.1954   20834322.1714
 80  9  1 21  0 19.0000000  0  6 30 24 17  5  6 10                   0.000000059
  -1733554.634 9  -1344741.19249  20607434.612    20607434.8404   20607443.0914
  -1062496.067 9   -836025.00047  21944173.230    21944172.7954   21944181.7774
  -2226582.769 9  -1722365.78646  23754373.981    23754373.5504   23754392.7644
  -1158772.369 9   -906688.60948  20870365.336    20870364.8074   20870374.3624
  -2074872.110 9  -1598953.04647  22098973.108    22098972.9594   22098983.6034
  -1722971.170 9  -1336259.85048  20834236.904    20834236.1394   20834245.1194
 80  9  1 21  0 20.0000000  0  6 30 24 17  5  6 10                   0.000000059
  -1734043.056 9  -1345121.78149  20607341.674    20607341.8944   20607350.1504
  -1060144.567 9   -834192.66447  21944620.710    21944620.2754   21944629.2604
  -2229269.719 9  -1724459.49946  23753862.666    23753862.2344   23753881.4554
  -1156805.863 9   -905156.27048  20870739.572    20870739.0384   20870748.5994
  -2077031.881 9  -1600635.98147  22098562.112    22098561.9644   22098572.6024
  -1723375.459 9  -1336574.87848  20834159.976    20834159.2124   20834168.1904
 80  9  1 21  0 21.0000000  0  6 30 24 17  5  6 10                   0.000000059
  -1734530.720 9  -1345501.77649  20607248.860    20607249.0884   20607257.3444
  -1057792.862 9   -832360.16747  21945068.224    21945067.7954   21945076.7804
  -2231956.374 9  -1726552.98646  23753351.406    23753350.9774   23753370.2054
  -1154838.729 9   -903623.44148  20871113.904    20871113.3694   20871122.9384
  -2079191.506 9  -1602318.80247  22098151.168    22098151.0184   22098161.6504
  -1723778.979 9  -1336889.30748  20834083.173    20834082.4054   20834091.3854
 80  9  1 21  0 22.0000000  0  6 30 24 17  5  6 10                   0.000000058
  -1735017.763 9  -1345881.29149  20607156.185    20607156.4224   20607164.6624
  -1055441.124 9   -830527.64247  21945515.753    21945515.3264   21945524.3084
  -2234642.883 9  -1728646.36146  23752840.200    23752839.7724   23752859.0004
  -1152871.117 9   -902090.24048  20871488.318    20871487.7804   20871497.3504
  -2081351.161 9  -1604001.64647  22097740.207    22097740.0634   22097750.6924
  -1724181.903 9  -1337203.27148  20834006.510    20834005.7484   20834014.7264
 80  9  1 21  0 23.0000000  0  6 30 24 17  5  6 10                   0.000000058
  -1735504.158 9  -1346260.29849  20607063.613    20607063.8374   20607072.0914
  -1053089.296 9   -828695.04747  21945963.282    21945962.8564   21945971.8354
  -2237329.196 9  -1730739.58246  23752328.986    23752328.5464   23752347.7914
  -1150902.998 9   -900556.64348  20871862.837    20871862.3004   20871871.8734
  -2083510.772 9  -1605684.45547  22097329.251    22097329.1074   22097339.7224
  -1724584.165 9  -1337516.71948  20833929.944    20833929.1914   20833938.1514
 80  9  1 21  0 24.0000000  0  6 30 24 17  5  6 10                   0.000000058
  -1735989.875 9  -1346638.77949  20606971.198    20606971.4304   20606979.6904
  -1050737.363 9   -826862.37847  21946410.830    21946410.3964   21946419.3924
  -2240015.277 9  -1732832.62146  23751817.855    23751817.4104   23751836.6644
  -1148934.340 9   -899022.62848  20872237.460    20872236.9214   20872246.4924
  -2085670.322 9  -1607367.21947  22096918.283    22096918.1424   22096928.7464
  -1724985.741 9  -1337829.63348  20833853.540    20833852.7844   20833861.7504
 80  9  1 21  0 25.0000000  0  6 30 24 17  5  6 10                   0.000000058
  -1736474.848 9  -1347016.67949  20606878.900    20606879.1244   20606887.3954
  -1048385.291 9   -825029.59547  21946858.419    21946857.9964   21946866.9674
  -2242701.098 9  -1734925.45846  23751306.739    23751306.2934   23751325.5384
  -1146965.097 9   -897488.15648  20872612.219    20872611.6814   20872621.2494
  -2087829.791 9  -1609049.91947  22096507.352    22096507.2164   22096517.8044
  -1725386.576 9  -1338141.97148  20833777.248    20833776.4874   20833785.4574
 80  9  1 21  0 26.0000000  0  6 30 24 17  5  6 10                   0.000000057
  -1736959.117 9  -1347394.03349  20606786.740    20606786.9784   20606795.2354
  -1046033.054 9   -823196.68447  21947306.055    21947305.6364   21947314.6144
  -2245386.661 9  -1737018.09746  23750795.697    23750795.2474   23750814.4974
  -1144995.290 9   -895953.24748  20872987.068    20872986.5324   20872996.1024
  -2089989.161 9  -1610732.53747  22096096.441    22096096.3014   22096106.8964
  -1725786.687 9  -1338453.74248  20833701.110    20833700.3594   20833709.3224
 80  9  1 21  0 27.0000000  0  6 30 24 17  5  6 10                   0.000000057
  -1737442.784 9  -1347770.91449  20606694.726    20606694.9524   20606703.2144
  -1043680.785 9   -821363.74647  21947753.667    21947753.2564   21947762.2274
  -2248072.066 9  -1739110.61046  23750284.670    23750284.2214   23750303.4604
  -1143025.032 9   -894417.98148  20873361.976    20873361.4424   20873371.0044
  -2092148.543 9  -1612415.16647  22095685.523    22095685.3754   22095695.9664
  -1726186.181 9  -1338765.03348  20833625.078    20833624.3324   20833633.2864
 80  9  1 21  0 28.0000000  0  6 30 24 17  5  6 10                   0.000000057
  -1737925.695 9  -1348147.20849  20606602.835    20606603.0564   20606611.3224
  -1041328.355 9   -819530.68047  21948201.328    21948200.9074   21948209.8924
  -2250757.179 9  -1741202.89646  23749773.709    23749773.2554   23749792.4824
  -1141054.174 9   -892882.25148  20873737.039    20873736.5034   20873746.0674
  -2094307.811 9  -1614097.70547  22095274.642    22095274.4804   22095285.0834
  -1726584.915 9  -1339075.73448  20833549.211    20833548.4554   20833557.4194
 80  9  1 21  0 29.0000000  0  6 30 24 17  5  6 10                   0.000000056
  -1738407.921 9  -1348522.96549  20606511.066    20606511.2894   20606519.5514
  -1038975.790 9   -817697.51347  21948649.007    21948648.5874   21948657.5654
  -2253442.053 9  -1743294.99546  23749262.790    23749262.3384   23749281.5544
  -1139082.773 9   -891346.09848  20874112.166    20874111.6334   20874121.1994
  -2096466.996 9  -1615780.18747  22094863.751    22094863.5844   22094874.1834
  -1726982.938 9  -1339385.88048  20833473.467    20833472.7174   20833481.6834
 80  9  1 21  0 30.0000000  0  6 30 24 17  5  6 10                   0.000000056
  -1738889.454 9  -1348898.18749  20606419.414    20606419.6334   20606427.9004
  -1036623.096 9   -815864.25047  21949096.719    21949096.2974   21949105.2804
  -2256126.680 9  -1745386.89846  23748751.904    23748751.4524   23748770.6584
  -1137110.826 9   -889809.51548  20874487.433    20874486.8934   20874496.4614
  -2098626.102 9  -1617462.60447  22094452.908    22094452.7394   22094463.3404
  -1727380.246 9  -1339695.46948  20833397.846    20833397.0894   20833406.0584
 80  9  1 21  0 31.0000000  0  6 30 24 17  5  6 10                   0.000000056
  -1739370.326 9  -1349272.89149  20606327.907    20606328.1264   20606336.3924
  -1034270.346 9   -814030.93947  21949544.435    21949544.0174   21949553.0014
  -2258811.121 9  -1747478.65946  23748241.087    23748240.6364   23748259.8334
  -1135138.380 9   -888272.54948  20874862.759    20874862.2234   20874871.7844
  -2100785.212 9  -1619145.02247  22094042.027    22094041.8634   22094052.4474
  -1727776.887 9  -1340004.53848  20833322.381    20833321.6324   20833330.6004
 80  9  1 21  0 32.0000000  0  6 30 24 17  5  6 10                   0.000000055
  -1739850.496 9  -1349647.04949  20606236.547    20606236.7694   20606245.0234
  -1031917.455 9   -812197.52047  21949992.158    21949991.7374   21950000.7324
  -2261495.319 9  -1749570.23246  23747730.299    23747729.8394   23747749.0224
  -1133165.374 9   -886735.14448  20875238.232    20875237.6944   20875247.2564
  -2102944.219 9  -1620827.36247  22093631.203    22093631.0474   22093641.6194
  -1728172.799 9  -1340313.03948  20833247.034    20833246.2844   20833255.2474
 80  9  1 21  0 33.0000000  0  6 30 24 17  5  6 10                   0.000000055
  -1740329.836 9  -1350020.56049  20606145.331    20606145.5424   20606153.8044
  -1029564.323 9   -810363.90947  21950439.964    21950439.5474   21950448.5294
  -2264179.112 9  -1751661.48846  23747219.564    23747219.1034   23747238.2804
  -1131191.677 9   -885197.20148  20875613.812    20875613.2744   20875622.8454
  -2105103.026 9  -1622509.54647  22093220.395    22093220.2324   22093230.8004
  -1728567.856 9  -1340620.87348  20833171.867    20833171.1264   20833180.0814
 80  9  1 21  0 34.0000000  0  6 30 24 17  5  6 10                   0.000000055
  -1740808.570 9  -1350393.59749  20606054.236    20606054.4454   20606062.7064
  -1027211.171 9   -808530.28447  21950887.745    21950887.3274   21950896.3054
  -2266862.787 9  -1753752.64946  23746708.886    23746708.4264   23746727.6044
  -1129217.527 9   -883658.90648  20875989.468    20875988.9234   20875998.4944
  -2107261.862 9  -1624191.74647  22092809.592    22092809.4164   22092820.0044
  -1728962.296 9  -1340928.22548  20833096.807    20833096.0684   20833105.0214
 80  9  1 21  0 35.0000000  0  6 30 24 17  5  6 10                   0.000000054
  -1741286.648 9  -1350766.12149  20605963.262    20605963.4684   20605971.7494
  -1024857.931 9   -806696.59247  21951335.566    21951335.1474   21951344.1394
  -2269546.263 9  -1755843.66146  23746198.225    23746197.7604   23746216.9394
  -1127242.874 9   -882120.21948  20876365.250    20876364.7134   20876374.2764
  -2109420.648 9  -1625873.90647  22092398.764    22092398.5914   22092409.1674
  -1729356.066 9  -1341235.05548  20833021.850    20833021.1104   20833030.0684
 80  9  1 21  0 36.0000000  0  6 30 24 17  5  6 10                   0.000000054
  -1741763.930 9  -1351138.03049  20605872.451    20605872.6614   20605880.9324
  -1022504.477 9   -804862.73547  21951783.398    21951782.9774   21951791.9624
  -2272229.374 9  -1757934.38346  23745687.635    23745687.1744   23745706.3454
  -1125267.568 9   -880581.02548  20876741.146    20876740.6034   20876750.1784
  -2111579.260 9  -1627555.94447  22091988.017    22091987.8354   22091998.4234
  -1729749.020 9  -1341541.25248  20832947.068    20832946.3314   20832955.2874
 80  9  1 21  0 37.0000000  0  6 30 24 17  5  6 10                   0.000000053
  -1742240.671 9  -1351509.51849  20605781.704    20605781.9144   20605790.1904
  -1020151.093 9   -803028.93147  21952231.227    21952230.8174   21952239.7964
  -2274912.411 9  -1760025.04946  23745177.071    23745176.6074   23745195.7804
  -1123291.852 9   -879041.50548  20877117.102    20877116.5634   20877126.1294
  -2113737.949 9  -1629238.03747  22091577.221    22091577.0404   22091587.6244
  -1730141.415 9  -1341847.01148  20832872.419    20832871.6834   20832880.6384
 80  9  1 21  0 38.0000000  0  6 30 24 17  5  6 10                   0.000000053
  -1742716.658 9  -1351880.41749  20605691.135    20605691.3374   20605699.6124
  -1017797.514 9   -801194.97947  21952679.099    21952678.6874   21952687.6714
  -2277595.131 9  -1762115.46946  23744666.555    23744666.0814   23744685.2684
  -1121315.513 9   -877501.50348  20877493.203    20877492.6624   20877502.2354
  -2115896.490 9  -1630920.00947  22091166.479    22091166.2944   22091176.8824
  -1730533.031 9  -1342152.16448  20832797.883    20832797.1454   20832806.0974
 80  9  1 21  0 39.0000000  0  6 30 24 17  5  6 10                   0.000000052
  -1743191.908 9  -1352250.74049  20605600.694    20605600.8994   20605609.1724
  -1015443.758 9   -799360.88047  21953127.008    21953126.5874   21953135.5684
  -2280277.553 9  -1764205.65546  23744156.118    23744155.6444   23744174.8284
  -1119338.566 9   -875961.02648  20877869.381    20877868.8424   20877878.4134
  -2118054.894 9  -1632601.87447  22090755.723    22090755.5584   22090766.1224
  -1730923.873 9  -1342456.71648  20832723.515    20832722.7764   20832731.7304
 80  9  1 21  0 40.0000000  0  6 30 24 17  5  6 10                   0.000000052
  -1743666.523 9  -1352620.56849  20605510.386    20605510.5924   20605518.8544
  -1013089.965 9   -797526.75247  21953574.928    21953574.4974   21953583.4964
  -2282959.819 9  -1766295.71946  23743645.689    23743645.2074   23743664.4044
  -1117361.114 9   -874420.15748  20878245.706    20878245.1624   20878254.7454
  -2120213.296 9  -1634283.73947  22090345.005    22090344.8234   22090355.4054
  -1731314.070 9  -1342760.76348  20832649.257    20832648.5184   20832657.4734
 80  9  1 21  0 41.0000000  0  6 30 24 17  5  6 10                   0.000000051
  -1744140.434 9  -1352989.84849  20605420.214    20605420.4144   20605428.7024
  -1010736.038 9   -795692.52747  21954022.863    21954022.4464   21954031.4394
  -2285641.818 9  -1768385.57646  23743135.298    23743134.8204   23743154.0164
  -1115383.088 9   -872878.84348  20878622.093    20878621.5514   20878631.1314
  -2122371.597 9  -1635965.53347  22089934.283    22089934.1074   22089944.6824
  -1731703.541 9  -1343064.24548  20832575.138    20832574.3994   20832583.3484
 80  9  1 21  0 42.0000000  0  6 30 24 17  5  6 10                   0.000000051
  -1744613.603 9  -1353358.55349  20605330.168    20605330.3674   20605338.6404
  -1008381.930 9   -793858.15547  21954470.821    21954470.4064   21954479.3864
  -2288323.523 9  -1770475.20046  23742624.975    23742624.4944   23742643.6964
  -1113404.442 9   -871337.04748  20878998.612    20878998.0704   20879007.6504
  -2124529.749 9  -1637647.20447  22089523.592    22089523.4114   22089533.9974
  -1732092.238 9  -1343367.12748  20832501.182    20832500.4404   20832509.3934
 80  9  1 21  0 43.0000000  0  6 30 24 17  5  6 10                   0.000000050
  -1745086.009 9  -1353726.66149  20605240.248    20605240.4494   20605248.7404
  -1006027.643 9   -792023.64847  21954918.845    21954918.4164   21954927.4204
  -2291004.956 9  -1772564.61046  23742114.705    23742114.2274   23742133.4344
  -1111425.168 9   -869794.75848  20879375.262    20879374.7294   20879384.3044
  -2126687.786 9  -1639328.78547  22089112.927    22089112.7554   22089123.3264
  -1732480.168 9  -1343669.40848  20832427.361    20832426.6214   20832435.5654
 80  9  1 21  0 44.0000000  0  6 30 24 17  5  6 10                   0.000000049
  -1745557.817 9  -1354094.30049  20605150.487    20605150.6914   20605158.9714
  -1003673.328 9   -790189.11747  21955366.839    21955366.4064   21955375.4144
  -2293686.220 9  -1774653.89346  23741604.496    23741604.0104   23741623.2324
  -1109445.420 9   -868252.10048  20879752.002    20879751.4694   20879761.0434
  -2128845.817 9  -1641010.36447  22088702.275    22088702.1104   22088712.6724
  -1732867.476 9  -1343971.20448  20832353.648    20832352.9124   20832361.8524
 80  9  1 21  0 45.0000000  0  6 30 24 17  5  6 10                   0.000000049
  -1746028.913 9  -1354461.38749  20605060.827    20605061.0334   20605069.3114
  -1001318.868 9   -788354.47147  21955814.880    21955814.4564   21955823.4544
  -2296367.234 9  -1776742.97946  23741094.291    23741093.8034   23741113.0394
  -1107465.091 9   -866708.98848  20880128.843    20880128.3084   20880137.8884
  -2131003.748 9  -1642691.86247  22088291.634    22088291.4644   22088302.0414
  -1733254.062 9  -1344272.43848  20832280.076    20832279.3434   20832288.2794
 80  9  1 21  0 46.0000000  0  6 30 24 17  5  6 10                   0.000000048
  -1746499.303 9  -1354827.92549  20604971.312    20604971.5154   20604979.8004
   -998964.311 9   -786519.75247  21956262.931    21956262.5064   21956271.5154
  -2299047.995 9  -1778831.87146  23740584.159    23740583.6764   23740602.9124
  -1105484.192 9   -865165.43448  20880505.813    20880505.2874   20880514.8634
  -2133161.624 9  -1644373.32147  22087881.014    22087880.8394   22087891.4184
  -1733639.950 9  -1344573.12748  20832206.648    20832205.9144   20832214.8514
 80  9  1 21  0 47.0000000  0  6 30 24 17  5  6 10                   0.000000048
  -1746968.944 9  -1355193.87949  20604881.944    20604882.1474   20604890.4384
   -996609.563 9   -784684.89047  21956711.027    21956710.5964   21956719.6084
  -2301728.477 9  -1780920.54646  23740074.069    23740073.5994   23740092.8204
  -1103502.689 9   -863621.41248  20880882.855    20880882.3264   20880891.9104
  -2135319.358 9  -1646054.66447  22087470.412    22087470.2334   22087480.8094
  -1734025.078 9  -1344873.22748  20832133.351    20832132.6154   20832141.5504
 80  9  1 21  0 48.0000000  0  6 30 24 17  5  6 10                   0.000000047
  -1747437.852 9  -1355559.26349  20604792.710    20604792.9094   20604801.1934
   -994254.679 9   -782849.91247  21957159.159    21957158.7254   21957167.7394
  -2304408.677 9  -1783009.00446  23739564.041    23739563.5724   23739582.7924
  -1101520.586 9   -862076.91948  20881260.043    20881259.5154   20881269.0974
  -2137476.979 9  -1647735.92647  22087059.814    22087059.6374   22087070.2114
  -1734409.460 9  -1345172.74548  20832060.212    20832059.4854   20832068.4064
 80  9  1 21  0 49.0000000  0  6 30 24 17  5  6 10                   0.000000046
  -1747906.138 9  -1355924.16149  20604703.579    20604703.7814   20604712.0764
   -991899.782 9   -781014.92647  21957607.272    21957606.8454   21957615.8624
  -2307088.726 9  -1785097.34646  23739054.056    23739053.5954   23739072.8094
  -1099537.990 9   -860532.03948  20881637.339    20881636.8144   20881646.3954
  -2139634.621 9  -1649417.20847  22086649.224    22086649.0414   22086659.6224
  -1734793.224 9  -1345471.77848  20831987.200    20831986.4664   20831995.3874
 80  9  1 21  0 50.0000000  0  6 30 24 17  5  6 10                   0.000000046
  -1748373.652 9  -1356288.45449  20604614.615    20604614.8224   20604623.1174
   -989544.691 9   -779179.79447  21958055.441    21958055.0054   21958064.0294
  -2309768.458 9  -1787185.43746  23738544.104    23738543.6384   23738562.8654
  -1097554.752 9   -858986.66148  20882014.727    20882014.2024   20882023.7864
  -2141792.083 9  -1651098.33647  22086238.676    22086238.4964   22086249.0794
  -1735176.191 9  -1345770.19148  20831914.307    20831913.5764   20831922.4984
 80  9  1 21  0 51.0000000  0  6 30 24 17  5  6 10                   0.000000045
  -1748840.458 9  -1356652.19949  20604525.777    20604525.9844   20604534.2714
   -987189.444 9   -777344.53447  21958503.614    21958503.1854   21958512.1994
  -2312447.913 9  -1789273.31646  23738034.210    23738033.7614   23738052.9714
  -1095570.929 9   -857440.82848  20882392.245    20882391.7214   20882401.3134
  -2143949.437 9  -1652779.38647  22085828.152    22085827.9704   22085838.5474
  -1735558.435 9  -1346068.04048  20831841.572    20831840.8474   20831849.7574
 80  9  1 21  0 52.0000000  0  6 30 24 17  5  6 10                   0.000000044
  -1749306.660 9  -1357015.47149  20604437.065    20604437.2754   20604445.5674
   -984834.188 9   -775509.27047  21958951.814    21958951.3844   21958960.4134
  -2315127.221 9  -1791361.08046  23737524.373    23737523.9244   23737543.1284
  -1093586.627 9   -855894.62248  20882769.848    20882769.3294   20882778.9164
  -2146106.808 9  -1654460.45147  22085417.613    22085417.4244   22085427.9934
  -1735940.052 9  -1346365.40148  20831768.958    20831768.2174   20831777.1434
 80  9  1 21  0 53.0000000  0  6 30 24 17  5  6 10                   0.000000043
  -1749772.115 9  -1357378.16449  20604348.505    20604348.7164   20604357.0214
   -982478.742 9   -773673.86247  21959400.029    21959399.5944   21959408.6334
  -2317806.240 9  -1793448.62146  23737014.564    23737014.1174   23737033.3074
  -1091601.712 9   -854347.93848  20883147.568    20883147.0484   20883156.6324
  -2148264.029 9  -1656141.39947  22085007.107    22085006.9184   22085017.4854
  -1736320.906 9  -1346662.16948  20831696.474    20831695.7474   20831704.6584
 80  9  1 21  0 54.0000000  0  6 30 24 17  5  6 10                   0.000000043
  -1750236.856 9  -1357740.29949  20604260.066    20604260.2784   20604268.5714
   -980123.152 9   -771838.33847  21959848.277    21959847.8444   21959856.8904
  -2320485.012 9  -1795535.96746  23736504.793    23736504.3504   23736523.5224
  -1089616.210 9   -852800.79748  20883525.393    20883524.8764   20883534.4564
  -2150421.132 9  -1657822.25147  22084596.605    22084596.4124   22084606.9804
  -1736701.015 9  -1346958.35548  20831624.150    20831623.4074   20831632.3264
 80  9  1 21  0 55.0000000  0  6 30 24 17  5  6 10                   0.000000042
  -1750700.649 9  -1358101.69849  20604171.790    20604171.9994   20604180.3064
   -977767.228 9   -770002.55647  21960296.597    21960296.1634   21960305.2004
  -2323163.285 9  -1797622.92246  23735995.139    23735994.6934   23736013.8494
  -1087629.877 9   -851253.01048  20883903.391    20883902.8744   20883912.4544
  -2152577.898 9  -1659502.84547  22084186.185    22084185.9974   22084196.5594
  -1737080.169 9  -1347253.80048  20831552.012    20831551.2674   20831560.1904
 80  9  1 21  0 56.0000000  0  6 30 24 17  5  6 10                   0.000000041
  -1751163.906 9  -1358462.67649  20604083.643    20604083.8604   20604092.1684
   -975411.337 9   -768166.79747  21960744.888    21960744.4634   21960753.4914
  -2325841.482 9  -1799709.82646  23735485.512    23735485.0764   23735504.2094
  -1085643.140 9   -849704.90448  20884281.448    20884280.9334   20884290.5114
  -2154734.718 9  -1661183.47847  22083775.761    22083775.5804   22083786.1414
  -1737458.762 9  -1347548.80348  20831479.965    20831479.2174   20831488.1424
 80  9  1 21  0 57.0000000  0  6 30 24 17  5  6 10                   0.000000041
  -1751626.626 9  -1358823.23449  20603995.590    20603995.8014   20604004.1124
   -973055.473 9   -766331.05947  21961193.213    21961192.7834   21961201.8324
  -2328519.612 9  -1801796.67046  23734975.873    23734975.4294   23734994.5554
  -1083656.001 9   -848156.48648  20884659.598    20884659.0814   20884668.6594
  -2156891.587 9  -1662864.14847  22083365.307    22083365.1154   22083375.6824
  -1737836.801 9  -1347843.37448  20831408.038    20831407.2874   20831416.2124
 80  9  1 21  0 58.0000000  0  6 30 24 17  5  6 10                   0.000000040
  -1752088.486 9  -1359183.12549  20603907.682    20603907.8914   20603916.2174
   -970699.352 9   -764495.12147  21961641.542    21961641.1324   21961650.1664
  -2331197.350 9  -1803883.20846  23734466.324    23734465.8714   23734484.9914
  -1081668.146 9   -846607.51248  20885037.876    20885037.3594   20885046.9354
  -2159048.200 9  -1664544.62147  22082954.928    22082954.7394   22082965.2974
  -1738213.979 9  -1348137.27848  20831336.243    20831335.4974   20831344.4184
 80  9  1 21  0 59.0000000  0  6 30 24 17  5  6 10                   0.000000039
  -1752549.706 9  -1359542.51649  20603819.927    20603820.1424   20603828.4614
   -968343.150 9   -762659.12347  21962089.925    21962089.5124   21962098.5564
  -2333874.915 9  -1805969.61446  23733956.787    23733956.3344   23733975.4344
  -1079679.790 9   -845058.14548  20885416.239    20885415.7174   20885425.2994
  -2161204.763 9  -1666225.05847  22082544.543    22082544.3534   22082554.9064
  -1738590.491 9  -1348430.66448  20831264.603    20831263.8464   20831272.7654
 80  9  1 21  1  0.0000000  0  6 30 24 17  5  6 10                   0.000000038
  -1753010.421 9  -1359901.51449  20603732.252    20603732.4834   20603740.7914
   -965987.017 9   -760823.17247  21962538.257    21962537.8424   21962546.8874
  -2336552.411 9  -1808055.96246  23733447.263    23733446.8174   23733465.8894
  -1077691.060 9   -843508.48848  20885794.697    20885794.1754   20885803.7624
  -2163361.386 9  -1667905.54147  22082134.142    22082133.9574   22082144.5104
  -1738966.464 9  -1348723.63048  20831193.052    20831192.2964   20831201.2134
 80  9  1 21  1  1.0000000  0  6 30 24 17  5  6 10                   0.000000037
  -1753470.086 9  -1360259.69549  20603644.761    20603644.9834   20603653.3004
   -963630.447 9   -758986.88547  21962986.700    21962986.3014   21962995.3384
  -2339229.332 9  -1810141.86246  23732937.859    23732937.4104   23732956.4674
  -1075701.409 9   -841958.11548  20886173.317    20886172.7934   20886182.3794
  -2165517.550 9  -1669585.66847  22081723.845    22081723.6714   22081734.2054
  -1739341.364 9  -1349015.75848  20831121.718    20831120.9554   20831129.8794
 80  9  1 21  1  2.0000000  0  6 30 24 17  5  6 10                   0.000000036
  -1753929.258 9  -1360617.49249  20603557.388    20603557.6144   20603565.9174
   -961273.930 9   -757150.63647  21963435.132    21963434.7304   21963443.7754
  -2341906.229 9  -1812227.74246  23732428.460    23732428.0034   23732447.0514
  -1073711.398 9   -840407.45948  20886552.004    20886551.4714   20886561.0584
  -2167673.794 9  -1671265.85047  22081313.502    22081313.3254   22081323.8574
  -1739715.742 9  -1349307.47748  20831050.476    20831049.7154   20831058.6314
 80  9  1 21  1  3.0000000  0  6 30 24 17  5  6 10                   0.000000035
  -1754387.611 9  -1360974.64949  20603470.168    20603470.3944   20603478.6994
   -958917.154 9   -755314.18647  21963883.625    21963883.2304   21963892.2774
  -2344582.754 9  -1814313.33346  23731919.127    23731918.6654   23731937.6994
  -1071720.692 9   -838856.26148  20886930.829    20886930.2994   20886939.8874
  -2169829.793 9  -1672945.83847  22080903.237    22080903.0694   22080913.5864
  -1740089.263 9  -1349598.53048  20830979.394    20830978.6344   20830987.5424
 80  9  1 21  1  4.0000000  0  6 30 24 17  5  6 10                   0.000000034
  -1754845.205 9  -1361331.21649  20603383.097    20603383.3254   20603391.6354
   -956560.226 9   -753477.62647  21964332.120    21964331.7294   21964340.7784
  -2347258.988 9  -1816398.70046  23731409.861    23731409.3984   23731428.4244
  -1069729.370 9   -837304.58648  20887309.760    20887309.2264   20887318.8204
  -2171985.629 9  -1674625.71247  22080492.979    22080492.8034   22080503.3324
  -1740462.002 9  -1349888.97548  20830908.473    20830907.7134   20830916.6194
 80  9  1 21  1  5.0000000  0  6 30 24 17  5  6 10                   0.000000033
  -1755302.217 9  -1361687.32749  20603296.134    20603296.3554   20603304.6774
   -954203.284 9   -751641.04947  21964780.636    21964780.2394   21964789.2844
  -2349935.097 9  -1818483.96946  23730900.612    23730900.1404   23730919.1624
  -1067737.600 9   -835752.56148  20887688.772    20887688.2444   20887697.8304
  -2174141.459 9  -1676305.57047  22080082.745    22080082.5674   22080093.0934
  -1740834.124 9  -1350178.94148  20830837.676    20830836.9124   20830845.8214
 80  9  1 21  1  6.0000000  0  6 30 24 17  5  6 10                   0.000000032
  -1755758.484 9  -1362042.85949  20603209.312    20603209.5354   20603217.8624
   -951846.162 9   -749804.33147  21965229.171    21965228.7694   21965237.8124
  -2352610.919 9  -1820569.01746  23730391.413    23730390.9334   23730409.9424
  -1065745.210 9   -834200.05348  20888067.937    20888067.4124   20888076.9934
  -2176297.121 9  -1677985.30747  22079672.535    22079672.3514   22079682.8824
  -1741205.457 9  -1350468.28648  20830766.989    20830766.2214   20830775.1314
 80  9  1 21  1  7.0000000  0  6 30 24 17  5  6 10                   0.000000031
  -1756214.019 9  -1362397.82349  20603122.602    20603122.8254   20603131.1524
   -949488.870 9   -747967.48047  21965677.754    21965677.3684   21965686.3914
  -2355286.463 9  -1822653.84746  23729882.288    23729881.7954   23729900.8154
  -1063752.237 9   -832647.08948  20888447.167    20888446.6294   20888456.2244
  -2178452.644 9  -1679664.93347  22079262.355    22079262.1754   22079272.7034
  -1741576.029 9  -1350757.04248  20830696.491    20830695.7204   20830704.6334
 80  9  1 21  1  8.0000000  0  6 30 24 17  5  6 10                   0.000000030
  -1756668.857 9  -1362752.24049  20603036.052    20603036.2754   20603044.5994
   -947131.441 9   -746130.52147  21966126.355    21966125.9774   21966135.0044
  -2357961.779 9  -1824738.49546  23729373.184    23729372.6884   23729391.7034
  -1061758.703 9   -831093.68948  20888826.535    20888825.9874   20888835.5874
  -2180608.062 9  -1681344.47247  22078852.184    22078851.9994   22078862.5304
  -1741945.858 9  -1351045.21948  20830626.099    20830625.3284   20830634.2404
 80  9  1 21  1  9.0000000  0  6 30 24 17  5  6 10                   0.000000029
  -1757123.036 9  -1363106.14449  20602949.621    20602949.8554   20602958.1694
   -944773.920 9   -744293.49247  21966574.963    21966574.5774   21966583.6024
  -2360636.882 9  -1826822.97846  23728864.128    23728863.6304   23728882.6394
  -1059764.658 9   -829539.88948  20889205.997    20889205.4544   20889215.0564
  -2182763.402 9  -1683023.95747  22078442.054    22078441.8734   22078452.4024
  -1742314.994 9  -1351332.85448  20830555.864    20830555.0874   20830564.0054
 80  9  1 21  1 10.0000000  0  6 30 24 17  5  6 10                   0.000000028
  -1757576.364 9  -1363459.38749  20602863.355    20602863.5844   20602871.9034
   -942416.140 9   -742456.26047  21967023.640    21967023.2464   21967032.2994
  -2363311.621 9  -1828907.18046  23728355.145    23728354.6334   23728373.6504
  -1057769.904 9   -827985.53948  20889585.571    20889585.0214   20889594.6294
  -2184918.484 9  -1684703.23747  22078031.955    22078031.7674   22078042.2984
  -1742683.237 9  -1351619.79748  20830485.803    20830485.0254   20830493.9404
 80  9  1 21  1 11.0000000  0  6 30 24 17  5  6 10                   0.000000027
  -1758029.096 9  -1363812.16549  20602777.216    20602777.4344   20602785.7644
   -940058.333 9   -740619.01047  21967472.325    21967471.9454   21967480.9834
  -2365986.214 9  -1830991.26646  23727846.165    23727845.6454   23727864.6614
  -1055774.698 9   -826430.83848  20889965.276    20889964.7284   20889974.3344
  -2187073.556 9  -1686382.50947  22077621.834    22077621.6514   22077632.1674
  -1743050.844 9  -1351906.24248  20830415.842    20830415.0644   20830423.9704
 80  9  1 21  1 12.0000000  0  6 30 24 17  5  6 10                   0.000000026
  -1758481.076 9  -1364164.35649  20602691.202    20602691.4244   20602699.7554
   -937700.343 9   -738781.61547  21967921.035    21967920.6554   21967929.6934
  -2368660.532 9  -1833075.13846  23727337.275    23727336.7574   23727355.7734
  -1053778.882 9   -824875.66048  20890345.045    20890344.4964   20890354.0964
  -2189228.455 9  -1688061.64647  22077211.792    22077211.6054   22077222.1194
  -1743417.661 9  -1352192.07248  20830346.037    20830345.2624   20830354.1674
 80  9  1 21  1 13.0000000  0  6 30 24 17  5  6 10                   0.000000025
  -1758932.345 9  -1364515.99449  20602605.339    20602605.5634   20602613.8894
   -935342.220 9   -736944.12147  21968369.761    21968369.3654   21968378.4154
  -2371334.601 9  -1835158.82046  23726828.400    23726827.8694   23726846.8964
  -1051782.504 9   -823320.04448  20890724.956    20890724.4024   20890734.0174
  -2191383.251 9  -1689740.70747  22076801.735    22076801.5484   22076812.0544
  -1743783.722 9  -1352477.31248  20830276.386    20830275.6104   20830284.5114
 80  9  1 21  1 14.0000000  0  6 30 24 17  5  6 10                   0.000000024
  -1759382.932 9  -1364867.09749  20602519.596    20602519.8124   20602528.1344
   -932983.983 9   -735106.53047  21968818.517    21968818.1244   21968827.1614
  -2374008.453 9  -1837242.33246  23726319.591    23726319.0624   23726338.0844
  -1049785.588 9   -821764.00748  20891104.966    20891104.4194   20891114.0224
  -2193537.950 9  -1691419.68547  22076391.712    22076391.5324   22076402.0314
  -1744149.067 9  -1352761.99148  20830206.869    20830206.0884   20830214.9854
 80  9  1 21  1 15.0000000  0  6 30 24 17  5  6 10                   0.000000023
  -1759832.856 9  -1365217.68749  20602433.965    20602434.1824   20602442.5134
   -930625.652 9   -733268.87347  21969267.298    21969266.9034   21969275.9554
  -2376682.120 9  -1839325.69846  23725810.781    23725810.2544   23725829.2694
  -1047788.154 9   -820207.56948  20891485.044    20891484.4964   20891494.1054
  -2195692.578 9  -1693098.61347  22075981.702    22075981.5264   22075992.0194
  -1744513.711 9  -1353046.12648  20830137.466    20830136.6964   20830145.5834
 80  9  1 21  1 16.0000000  0  6 30 24 17  5  6 10                   0.000000022
  -1760282.046 9  -1365567.70749  20602348.498    20602348.7114   20602357.0364
   -928267.192 9   -731431.11447  21969716.093    21969715.7124   21969724.7534
  -2379355.513 9  -1841408.85046  23725302.066    23725301.5364   23725320.5574
  -1045790.140 9   -818650.67948  20891865.254    20891864.7134   20891874.3124
  -2197847.078 9  -1694777.43847  22075571.701    22075571.5304   22075582.0174
  -1744877.587 9  -1353329.66548  20830068.230    20830067.4544   20830076.3614
 80  9  1 21  1 17.0000000  0  6 30 24 17  5  6 10                   0.000000021
  -1760730.440 9  -1365917.10449  20602263.182    20602263.4004   20602271.7244
   -925908.511 9   -729593.18147  21970164.926    21970164.5414   21970173.5904
  -2382028.578 9  -1843491.74946  23724793.383    23724792.8484   23724811.8684
  -1043791.473 9   -817093.27748  20892245.604    20892245.0594   20892254.6724
  -2200001.362 9  -1696456.09747  22075161.758    22075161.5744   22075172.0714
  -1745240.634 9  -1353612.55648  20829999.145    20829998.3624   20830007.2634
 80  9  1 21  1 18.0000000  0  6 30 24 17  5  6 10                   0.000000020
  -1761178.165 9  -1366265.97949  20602177.969    20602178.1794   20602186.5084
   -923549.729 9   -727755.16947  21970613.787    21970613.4114   21970622.4514
  -2384701.435 9  -1845574.48646  23724284.741    23724284.2104   23724303.2274
  -1041792.272 9   -815535.46348  20892626.043    20892625.5064   20892635.1064
  -2202155.552 9  -1698134.68047  22074751.815    22074751.6284   22074762.1244
  -1745602.967 9  -1353894.89148  20829930.183    20829929.3904   20829938.2994
 80  9  1 21  1 19.0000000  0  6 30 24 17  5  6 10                   0.000000019
  -1761625.092 9  -1366614.23349  20602092.920    20602093.1284   20602101.4644
   -921190.736 9   -725916.99847  21971062.703    21971062.3304   21971071.3704
  -2387373.967 9  -1847656.96746  23723776.179    23723775.6524   23723794.6684
  -1039792.418 9   -813977.13748  20893006.597    20893006.0634   20893015.6634
  -2204309.550 9  -1699813.11747  22074341.937    22074341.7514   22074352.2344
  -1745964.462 9  -1354176.57448  20829861.397    20829860.6084   20829869.5024
 80  9  1 21  1 20.0000000  0  6 30 24 17  5  6 10                   0.000000018
  -1762071.077 9  -1366961.75649  20602008.071    20602008.2864   20602016.6144
   -918831.383 9   -724078.54247  21971511.650    21971511.2694   21971520.3274
  -2390046.014 9  -1849739.06846  23723267.700    23723267.1754   23723286.1874
  -1037791.771 9   -812418.19648  20893387.295    20893386.7594   20893396.3674
  -2206463.181 9  -1701491.26947  22073932.112    22073931.9154   22073942.4094
  -1746324.965 9  -1354457.48448  20829792.819    20829792.0254   20829800.9244
 80  9  1 21  1 21.0000000  0  6 30 24 17  5  6 10                   0.000000017
  -1762516.682 9  -1367308.97849  20601923.263    20601923.4754   20601931.8034
   -916472.221 9   -722240.23847  21971960.604    21971960.2294   21971969.2874
  -2392718.141 9  -1851821.23046  23722759.208    23722758.6774   23722777.6964
  -1035790.882 9   -810859.06348  20893768.067    20893767.5364   20893777.1344
  -2208617.024 9  -1703169.58047  22073522.254    22073522.0594   22073532.5474
  -1746685.046 9  -1354738.06248  20829724.279    20829723.4834   20829732.3864
 80  9  1 21  1 22.0000000  0  6 30 24 17  5  6 10                   0.000000015
  -1762961.695 9  -1367655.73949  20601838.583    20601838.7944   20601847.1284
   -914113.064 9   -720401.93247  21972409.520    21972409.1474   21972418.1974
  -2395390.179 9  -1853903.32546  23722250.707    23722250.1684   23722269.1984
  -1033789.557 9   -809299.59248  20894148.922    20894148.3924   20894157.9994
  -2210770.868 9  -1704847.89847  22073112.374    22073112.1734   22073122.6734
  -1747044.484 9  -1355018.13948  20829655.902    20829655.1004   20829664.0054
 80  9  1 21  1 23.0000000  0  6 30 24 17  5  6 10                   0.000000014
  -1763405.894 9  -1368001.87049  20601754.061    20601754.2724   20601762.5994
   -911753.664 9   -718563.43747  21972858.501    21972858.1374   21972867.1904
  -2398061.879 9  -1855985.15746  23721742.302    23721741.7604   23721760.7924
  -1031787.561 9   -807739.60048  20894529.885    20894529.3484   20894538.9624
  -2212924.478 9  -1706526.02847  22072702.550    22072702.3464   22072712.8464
  -1747403.064 9  -1355297.55248  20829587.670    20829586.8674   20829595.7744
 80  9  1 21  1 24.0000000  0  6 30 24 17  5  6 10                   0.000000013
  -1763849.235 9  -1368347.33049  20601669.679    20601669.8814   20601678.2154
   -909394.009 9   -716724.74847  21973307.538    21973307.1764   21973316.2164
  -2400733.186 9  -1858066.68446  23721233.951    23721233.4124   23721252.4384
  -1029784.874 9   -806179.06648  20894910.967    20894910.4344   20894920.0394
  -2215077.817 9  -1708203.94947  22072292.787    22072292.5804   22072303.0794
  -1747760.757 9  -1355576.27548  20829519.595    20829518.7944   20829527.6954
 80  9  1 21  1 25.0000000  0  6 30 24 17  5  6 10                   0.000000011
  -1764291.989 9  -1368692.33349  20601585.443    20601585.6494   20601593.9864
   -907034.397 9   -714886.08847  21973756.553    21973756.1954   21973765.2344
  -2403404.411 9  -1860148.14446  23720725.648    23720725.1144   23720744.1394
  -1027781.769 9   -804618.20548  20895292.170    20895291.6404   20895301.2464
  -2217231.167 9  -1709881.88147  22071883.038    22071882.8344   22071893.3224
  -1748117.822 9  -1355854.50548  20829451.654    20829450.8514   20829459.7424
 80  9  1 21  1 26.0000000  0  6 30 24 17  5  6 10                   0.000000010
  -1764733.877 9  -1369036.65949  20601501.341    20601501.5474   20601509.8844
   -904674.513 9   -713047.21847  21974205.626    21974205.2744   21974214.3204
  -2406075.250 9  -1862229.30746  23720217.377    23720216.8464   23720235.8704
  -1025777.954 9   -803056.79448  20895673.477    20895672.9464   20895682.5484
  -2219384.226 9  -1711559.58347  22071473.325    22071473.1174   22071483.6094
  -1748473.981 9  -1356132.02948  20829383.869    20829383.0584   20829391.9534
 80  9  1 21  1 27.0000000  0  6 30 24 17  5  6 10                   0.000000009
  -1765175.115 9  -1369380.48249  20601417.390    20601417.5954   20601425.9204
   -902314.583 9   -711208.31147  21974654.688    21974654.3244   21974663.3904
  -2408745.921 9  -1864310.33646  23719709.168    23719708.6294   23719727.6654
  -1023773.646 9   -801494.99848  20896054.899    20896054.3624   20896063.9744
  -2221537.234 9  -1713237.24547  22071063.595    22071063.3914   22071073.8714
  -1748829.448 9  -1356409.01548  20829316.238    20829315.4254   20829324.3264
 80  9  1 21  1 28.0000000  0  6 30 24 17  5  6 10                   0.000000007
  -1765615.550 9  -1369723.67749  20601333.558    20601333.7634   20601342.0964
   -899954.495 9   -709369.28247  21975103.790    21975103.4234   21975112.4934
  -2411416.290 9  -1866391.13646  23719201.009    23719200.4704   23719219.5034
  -1021768.702 9   -799932.70748  20896436.435    20896435.8984   20896445.5074
  -2223690.021 9  -1714914.74147  22070653.951    22070653.7444   22070664.2434
  -1749184.053 9  -1356685.33048  20829248.747    20829247.9424   20829256.8334
 80  9  1 21  1 29.0000000  0  6 30 24 17  5  6 10                   0.000000006
  -1766055.236 9  -1370066.29049  20601249.886    20601250.0914   20601258.4154
   -897594.219 9   -707530.10947  21975552.958    21975552.6014   21975561.6594
  -2414086.390 9  -1868471.72546  23718692.884    23718692.3414   23718711.3764
  -1019763.150 9   -798369.94448  20896818.064    20896817.5244   20896827.1284
  -2225842.629 9  -1716592.09647  22070244.330    22070244.1284   22070254.6074
  -1749537.866 9  -1356961.02648  20829181.421    20829180.6084   20829189.4974
 80  9  1 21  1 30.0000000  0  6 30 24 17  5  6 10                   0.000000004
  -1766494.298 9  -1370408.41549  20601166.336    20601166.5394   20601174.8724
   -895233.927 9   -705690.92247  21976002.100    21976001.7514   21976010.7944
  -2416756.330 9  -1870552.18546  23718184.815    23718184.2734   23718203.3064
  -1017757.124 9   -796806.80848  20897199.811    20897199.2704   20897208.8764
  -2227995.183 9  -1718269.40447  22069834.698    22069834.4924   22069844.9794
  -1749891.005 9  -1357236.19748  20829114.216    20829113.4054   20829122.2954
 80  9  1 21  1 31.0000000  0  6 30 24 17  5  6 10                   0.000000003
  -1766932.592 9  -1370749.94149  20601082.953    20601083.1574   20601091.4844
   -892873.485 9   -703851.61547  21976451.266    21976450.9094   21976459.9644
  -2419426.029 9  -1872632.45546  23717676.763    23717676.2254   23717695.2604
  -1015750.478 9   -795243.19148  20897581.664    20897581.1164   20897590.7294
  -2230147.544 9  -1719946.56347  22069425.111    22069424.9054   22069435.3914
  -1750243.309 9  -1357510.71748  20829047.192    20829046.3914   20829055.2744
 80  9  1 21  1 32.0000000  0  6 30 24 17  5  6 10                   0.000000001
  -1767370.134 9  -1371090.88249  20600999.674    20600999.8754   20601008.2074
   -890512.855 9   -702012.16247  21976900.476    21976900.1194   21976909.1644
  -2422095.416 9  -1874712.48946  23717168.794    23717168.2674   23717187.2844
  -1013743.213 9   -793679.09348  20897963.655    20897963.1014   20897972.7204
  -2232299.717 9  -1721623.57747  22069015.579    22069015.3694   22069025.8584
  -1750594.809 9  -1357784.61348  20828980.308    20828979.5084   20828988.3864
 80  9  1 21  1 33.0000000  0  6 30 24 17  5  6 10                  -0.000000000
  -1767807.107 9  -1371431.37749  20600916.541    20600916.7424   20600925.0764
   -888152.225 9   -700172.71047  21977349.712    21977349.3584   21977358.4114
  -2424764.712 9  -1876792.44546  23716660.818    23716660.2884   23716679.3044
  -1011735.522 9   -792114.65548  20898345.691    20898345.1374   20898354.7534
  -2234451.887 9  -1723300.58547  22068606.029    22068605.8134   22068616.3084
  -1750945.688 9  -1358058.02448  20828913.527    20828912.7144   20828921.5964
 80  9  1 21  1 34.0000000  0  6 30 24 17  5  6 10                  -0.000000002
  -1768243.090 9  -1371771.10649  20600833.575    20600833.7704   20600842.1154
   -885791.235 9   -698332.98047  21977798.984    21977798.6274   21977807.6854
  -2427433.532 9  -1878872.03346  23716152.965    23716152.4404   23716171.4554
  -1009726.984 9   -790549.56748  20898727.925    20898727.3724   20898736.9824
  -2236603.643 9  -1724977.27247  22068196.556    22068196.3564   22068206.8274
  -1751295.516 9  -1358330.61648  20828846.970    20828846.1704   20828855.0424
 80  9  1 21  1 35.0000000  0  6 30 24 17  5  6 10                  -0.000000004
  -1768678.479 9  -1372110.36949  20600750.723    20600750.9274   20600759.2574
   -883430.213 9   -696493.22347  21978248.280    21978247.9164   21978256.9714
  -2430102.211 9  -1880951.51746  23715645.130    23715644.6114   23715663.6204
  -1007717.982 9   -788984.11548  20899110.227    20899109.6674   20899119.2844
  -2238755.367 9  -1726653.93647  22067787.100    22067786.8894   22067797.3794
  -1751644.698 9  -1358602.70148  20828780.514    20828779.7164   20828788.5874
 80  9  1 21  1 36.0000000  0  6 30 24 17  5  6 10                  -0.000000005
  -1769113.262 9  -1372449.16049  20600667.967    20600668.1744   20600676.5074
   -881069.174 9   -694653.45347  21978697.573    21978697.2054   21978706.2604
  -2432770.781 9  -1883030.91146  23715137.302    23715136.7834   23715155.7874
  -1005708.504 9   -787418.29048  20899492.606    20899492.0334   20899501.6654
  -2240907.053 9  -1728330.57347  22067377.639    22067377.4334   22067387.9074
  -1751993.226 9  -1358874.27948  20828714.179    20828713.3824   20828722.2424
 80  9  1 21  1 37.0000000  0  6 30 24 17  5  6 10                  -0.000000007
  -1769547.143 9  -1372787.24949  20600585.420    20600585.6314   20600593.9544
   -878707.862 9   -692813.47547  21979146.910    21979146.5444   21979155.6014
  -2435438.935 9  -1885109.97946  23714629.557    23714629.0444   23714648.0394
  -1003698.257 9   -785851.87148  20899875.145    20899874.5884   20899884.2034
  -2243058.398 9  -1730006.94447  22066968.249    22066968.0464   22066978.5204
  -1752340.781 9  -1359145.10048  20828648.051    20828647.2384   20828656.1164
 80  9  1 21  1 38.0000000  0  6 30 24 17  5  6 10                  -0.000000009
  -1769980.384 9  -1373124.83749  20600502.986    20600503.1884   20600511.5174
   -876346.490 9   -690973.44447  21979596.257    21979595.8924   21979604.9564
  -2438106.933 9  -1887188.93146  23714121.865    23714121.3564   23714140.3474
  -1001687.506 9   -784285.05348  20900257.776    20900257.2134   20900266.8364
  -2245209.672 9  -1731683.25247  22066558.865    22066558.6604   22066569.1294
  -1752687.652 9  -1359415.38648  20828582.058    20828581.2534   20828590.1204
 80  9  1 21  1 39.0000000  0  6 30 24 17  5  6 10                  -0.000000010
  -1770412.837 9  -1373461.81349  20600420.673    20600420.8754   20600429.1954
   -873984.927 9   -689133.26847  21980045.642    21980045.2814   21980054.3434
  -2440774.626 9  -1889267.64346  23713614.216    23713613.7074   23713632.6964
   -999676.100 9   -782717.72848  20900640.556    20900639.9984   20900649.6204
  -2247360.715 9  -1733359.38147  22066149.546    22066149.3434   22066159.8214
  -1753033.690 9  -1359685.02348  20828516.184    20828515.3894   20828524.2484
 80  9  1 21  1 40.0000000  0  6 30 24 17  5  6 10                  -0.000000012
  -1770844.560 9  -1373798.22149  20600338.522    20600338.7124   20600347.0584
   -871623.255 9   -687293.00047  21980495.066    21980494.7104   21980503.7674
  -2443442.086 9  -1891346.17146  23713106.598    23713106.0884   23713125.0724
   -997664.100 9   -781149.93848  20901023.408    20901022.8534   20901032.4734
  -2249511.601 9  -1735035.39547  22065740.240    22065740.0364   22065750.5094
  -1753378.941 9  -1359954.04548  20828450.486    20828449.6744   20828458.5534
 80  9  1 21  1 41.0000000  0  6 30 24 17  5  6 10                  -0.000000014
  -1771275.641 9  -1374134.12749  20600256.510    20600256.6994   20600265.0344
   -869261.514 9   -685452.68847  21980944.488    21980944.1394   21980953.1894
  -2446109.362 9  -1893424.55746  23712599.019    23712598.5204   23712617.4864
   -995651.598 9   -779581.75948  20901406.369    20901405.8084   20901415.4374
  -2251662.402 9  -1736711.33947  22065330.938    22065330.7304   22065341.2084
  -1753723.496 9  -1360222.52848  20828384.920    20828384.1104   20828392.9854
 80  9  1 21  1 42.0000000  0  6 30 24 17  5  6 10                  -0.000000016
  -1771705.912 9  -1374469.40449  20600174.630    20600174.8164   20600183.1654
   -866899.559 9   -683612.20347  21981393.962    21981393.6184   21981402.6664
  -2448776.316 9  -1895502.69746  23712091.515    23712091.0114   23712109.9754
   -993638.428 9   -778013.05848  20901789.479    20901788.9234   20901798.5494
  -2253812.958 9  -1738387.09247  22064921.714    22064921.5134   22064931.9894
  -1754067.183 9  -1360490.33348  20828319.534    20828318.7254   20828327.5984
 80  9  1 21  1 43.0000000  0  6 30 24 17  5  6 10                  -0.000000018
  -1772135.512 9  -1374804.15849  20600092.875    20600093.0624   20600101.4104
   -864537.556 9   -681771.67747  21981843.424    21981843.0864   21981852.1364
  -2451443.085 9  -1897580.68946  23711584.046    23711583.5524   23711602.5074
   -991624.738 9   -776443.94948  20902172.654    20902172.0974   20902181.7284
  -2255963.404 9  -1740062.76047  22064512.493    22064512.2864   22064522.7664
  -1754410.134 9  -1360757.56748  20828254.267    20828253.4604   20828262.3214
 80  9  1 21  1 44.0000000  0  6 30 24 17  5  6 10                  -0.000000020
  -1772564.300 9  -1375138.27849  20600011.282    20600011.4794   20600019.8144
   -862175.324 9   -679930.97647  21982292.942    21982292.6054   21982301.6574
  -2454109.521 9  -1899658.42046  23711076.643    23711076.1444   23711095.1084
   -989610.380 9   -774874.32448  20902555.993    20902555.4424   20902565.0724
  -2258113.590 9  -1741738.22447  22064103.301    22064103.0994   22064113.5724
  -1754752.227 9  -1361024.13148  20828189.178    20828188.3754   20828197.2354
 80  9  1 21  1 45.0000000  0  6 30 24 17  5  6 10                  -0.000000021
  -1772992.458 9  -1375471.90449  20599929.788    20599929.9854   20599938.3054
   -859813.042 9   -678090.23947  21982742.472    21982742.1344   21982751.1854
  -2456775.797 9  -1901736.02346  23710569.262    23710568.7654   23710587.7224
   -987595.543 9   -773304.32348  20902939.385    20902938.8374   20902948.4674
  -2260263.709 9  -1743413.63847  22063694.141    22063693.9434   22063704.4154
  -1755093.640 9  -1361290.16748  20828124.206    20828123.4004   20828132.2584
 80  9  1 21  1 46.0000000  0  6 30 24 17  5  6 10                  -0.000000024
  -1773419.794 9  -1375804.89349  20599848.493    20599848.6914   20599857.0214
   -857450.571 9   -676249.36047  21983192.052    21983191.7234   21983200.7634
  -2459441.749 9  -1903813.37546  23710061.943    23710061.4464   23710080.4004
   -985580.058 9   -771733.81948  20903322.946    20903322.3914   20903332.0244
  -2262413.564 9  -1745088.84847  22063285.045    22063284.8464   22063295.3134
  -1755434.184 9  -1361555.52448  20828059.395    20828058.5954   20828067.4444
 80  9  1 21  1 47.0000000  0  6 30 24 17  5  6 10                  -0.000000026
  -1773846.502 9  -1376137.39449  20599767.296    20599767.4984   20599775.8224
   -855088.054 9   -674408.43747  21983641.599    21983641.2714   21983650.3104
  -2462107.532 9  -1905890.59746  23709554.650    23709554.1474   23709573.1044
   -983564.093 9   -770162.94148  20903706.550    20903705.9954   20903715.6304
  -2264563.337 9  -1746763.99247  22062875.942    22062875.7494   22062886.2124
  -1755774.057 9  -1361820.36148  20827994.711    20827993.9104   20828002.7534
 80  9  1 21  1 48.0000000  0  6 30 24 17  5  6 10                  -0.000000027
  -1774272.278 9  -1376469.16749  20599686.254    20599686.4544   20599694.7854
   -852725.183 9   -672567.24347  21984091.244    21984090.9104   21984099.9544
  -2464772.852 9  -1907967.45446  23709047.454    23709046.9494   23709065.8974
   -981547.355 9   -768591.46148  20904090.342    20904089.7904   20904099.4284
  -2266712.737 9  -1748438.84347  22062466.914    22062466.7224   22062477.1844
  -1756112.947 9  -1362084.42748  20827930.243    20827929.4444   20827938.2954
 80  9  1 21  1 49.0000000  0  6 30 24 17  5  6 10                  -0.000000029
  -1774697.386 9  -1376800.41849  20599605.365    20599605.5604   20599613.8874
   -850362.257 9   -670726.00247  21984540.894    21984540.5694   21984549.6094
  -2467437.986 9  -1910044.17146  23708540.317    23708539.8104   23708558.7574
   -979530.115 9   -767019.58848  20904474.186    20904473.6444   20904483.2774
  -2268862.011 9  -1750113.59647  22062057.916    22062057.7264   22062068.1874
  -1756451.122 9  -1362347.93748  20827865.895    20827865.0994   20827873.9484
 80  9  1 21  1 50.0000000  0  6 30 24 17  5  6 10                  -0.000000031
  -1775121.825 9  -1377131.14949  20599524.605    20599524.8064   20599533.1334
   -847999.244 9   -668884.69147  21984990.574    21984990.2484   21984999.2894
  -2470102.913 9  -1912120.72646  23708033.168    23708032.6614   23708051.6124
   -977512.370 9   -765447.32048  20904858.180    20904857.6384   20904867.2724
  -2271011.164 9  -1751788.25247  22061648.952    22061648.7684   22061659.2254
  -1756788.590 9  -1362610.89348  20827801.653    20827800.8444   20827809.6984
 80  9  1 21  1 51.0000000  0  6 30 24 17  5  6 10                  -0.000000033
  -1775545.572 9  -1377461.34149  20599443.951    20599444.1424   20599452.4824
   -845636.123 9   -667043.29247  21985440.278    21985439.9564   21985448.9954
  -2472767.626 9  -1914197.11946  23707526.099    23707525.5924   23707544.5294
   -975494.103 9   -763874.64948  20905242.219    20905241.6724   20905251.3104
  -2273160.186 9  -1753462.80947  22061239.993    22061239.8024   22061250.2674
  -1757125.343 9  -1362873.29848  20827737.596    20827736.7984   20827745.6344
 80  9  1 21  1 52.0000000  0  6 30 24 17  5  6 10                  -0.000000035
  -1775968.467 9  -1377790.87049  20599363.480    20599363.6774   20599372.0184
   -843272.764 9   -665201.71547  21985890.004    21985889.6754   21985898.7114
  -2475431.991 9  -1916273.24046  23707019.085    23707018.5834   23707037.4994
   -973475.161 9   -762301.44848  20905626.431    20905625.8864   20905635.5274
  -2275308.887 9  -1755137.11447  22060831.119    22060830.9354   22060841.3984
  -1757461.205 9  -1363135.00848  20827673.668    20827672.8624   20827681.7064
 80  9  1 21  1 53.0000000  0  6 30 24 17  5  6 10                  -0.000000037
  -1776390.509 9  -1378119.73349  20599283.177    20599283.3734   20599291.7034
   -840909.133 9   -663359.92547  21986339.774    21986339.4544   21986348.4844
  -2478095.973 9  -1918349.06446  23706512.146    23706511.6444   23706530.5504
   -971455.540 9   -760727.72348  20906010.755    20906010.2104   20906019.8494
  -2277457.295 9  -1756811.20147  22060422.273    22060422.0884   22060432.5484
  -1757796.179 9  -1363396.02448  20827609.939    20827609.1264   20827617.9784
 80  9  1 21  1 54.0000000  0  6 30 24 17  5  6 10                  -0.000000039
  -1776811.890 9  -1378448.08149  20599202.990    20599203.1884   20599211.5244
   -838545.442 9   -661518.08647  21986789.599    21986789.2724   21986798.3104
  -2480759.772 9  -1920424.74246  23706005.241    23706004.7354   23706023.6264
   -969435.428 9   -759153.61348  20906395.161    20906394.6044   20906404.2564
  -2279605.591 9  -1758485.18847  22060013.453    22060013.2814   22060023.7354
  -1758130.465 9  -1363656.50248  20827546.309    20827545.4904   20827554.3454
 80  9  1 21  1 55.0000000  0  6 30 24 17  5  6 10                  -0.000000041
  -1777232.557 9  -1378775.87249  20599122.952    20599123.1444   20599131.4904
   -836181.645 9   -659676.17247  21987239.405    21987239.0814   21987248.1174
  -2483423.363 9  -1922500.25246  23705498.365    23705497.8564   23705516.7404
   -967414.799 9   -757579.09848  20906779.668    20906779.1184   20906788.7704
  -2281753.734 9  -1760159.06347  22059604.675    22059604.5044   22059614.9604
  -1758463.995 9  -1363916.39448  20827482.850    20827482.0344   20827490.8924
 80  9  1 21  1 56.0000000  0  6 30 24 17  5  6 10                  -0.000000044
  -1777652.472 9  -1379103.07749  20599043.037    20599043.2394   20599051.5614
   -833817.659 9   -657834.10947  21987689.252    21987688.9294   21987697.9584
  -2486086.674 9  -1924575.54746  23704991.537    23704991.0174   23705009.8944
   -965393.583 9   -756004.12748  20907164.316    20907163.7724   20907173.4184
  -2283901.678 9  -1761832.77947  22059195.927    22059195.7574   22059206.2184
  -1758796.731 9  -1364175.66548  20827419.546    20827418.7284   20827427.5734
 80  9  1 21  1 57.0000000  0  6 30 24 17  5  6 10                  -0.000000046
  -1778071.638 9  -1379429.70249  20598963.263    20598963.4644   20598971.7904
   -831453.514 9   -655991.92447  21988139.140    21988138.8184   21988147.8464
  -2488749.725 9  -1926650.64146  23704484.779    23704484.2484   23704503.1264
   -963371.786 9   -754428.70348  20907549.037    20907548.4954   20907558.1464
  -2286049.428 9  -1763506.34647  22058787.229    22058787.0504   22058797.5134
  -1759128.675 9  -1364434.32348  20827356.359    20827355.5324   20827364.3914
 80  9  1 21  1 58.0000000  0  6 30 24 17  5  6 10                  -0.000000048
  -1778490.196 9  -1379755.85049  20598883.635    20598883.8294   20598892.1654
   -829089.353 9   -654149.71647  21988589.018    21988588.6974   21988597.7344
  -2491412.640 9  -1928725.62446  23703978.057    23703977.5194   23703996.4054
   -961349.558 9   -752852.94648  20907933.847    20907933.2994   20907942.9614
  -2288197.124 9  -1765179.87347  22058378.529    22058378.3534   22058388.8194
  -1759459.965 9  -1364692.46748  20827293.335    20827292.5064   20827301.3634
 80  9  1 21  1 59.0000000  0  6 30 24 17  5  6 10                  -0.000000050
  -1778907.799 9  -1380081.25549  20598804.166    20598804.3544   20598812.6934
   -826724.814 9   -652307.21847  21989038.999    21989038.6754   21989047.7084
  -2494075.116 9  -1930800.26946  23703471.388    23703470.8394   23703489.7284
   -959326.544 9   -751276.57648  20908318.828    20908318.2824   20908327.9434
  -2290344.434 9  -1766853.10047  22057969.909    22057969.7364   22057980.2044
  -1759790.271 9  -1364949.84748  20827230.472    20827229.6394   20827238.4944
 80  9  1 21  2  0.0000000  0  6 30 24 17  5  6 10                  -0.000000052
  -1779324.745 9  -1380406.14849  20598724.824    20598725.0194   20598733.3404
   -824360.201 9   -650464.66747  21989488.972    21989488.6534   21989497.6834
  -2496737.415 9  -1932874.77346  23702964.771    23702964.2204   23702983.1054
   -957303.051 9   -749699.82948  20908703.895    20908703.3464   20908713.0164
  -2292491.666 9  -1768526.26347  22057561.295    22057561.1184   22057571.5864
  -1760119.896 9  -1365206.69448  20827167.755    20827166.9234   20827175.7744
 80  9  1 21  2  1.0000000  0  6 30 24 17  5  6 10                  -0.000000054
  -1779740.929 9  -1380730.44549  20598645.609    20598645.8044   20598654.1374
   -821995.421 9   -648621.97747  21989938.956    21989938.6324   21989947.6564
  -2499399.457 9  -1934949.08246  23702458.187    23702457.6304   23702476.5224
   -955278.983 9   -748122.63648  20909089.052    20909088.5094   20909098.1784
  -2294638.694 9  -1770199.26447  22057152.736    22057152.5614   22057163.0334
  -1760448.717 9  -1365462.91548  20827105.200    20827104.3564   20827113.2114
 80  9  1 21  2  2.0000000  0  6 30 24 17  5  6 10                  -0.000000056
  -1780156.359 9  -1381054.15649  20598566.580    20598566.7794   20598575.0944
   -819630.453 9   -646779.14747  21990389.015    21990388.6914   21990397.7204
  -2502061.225 9  -1937023.17546  23701951.667    23701951.1114   23701970.0074
   -953254.326 9   -746544.98448  20909474.336    20909473.7924   20909483.4684
  -2296785.537 9  -1771872.12147  22056744.187    22056744.0144   22056754.4744
  -1760776.746 9  -1365718.52248  20827042.757    20827041.9094   20827050.7644
 80  9  1 21  2  3.0000000  0  6 30 24 17  5  6 10                  -0.000000058
  -1780571.070 9  -1381377.30649  20598487.640    20598487.8244   20598496.1624
   -817265.322 9   -644936.19147  21990839.068    21990838.7394   21990847.7704
  -2504722.771 9  -1939097.09946  23701445.191    23701444.6314   23701463.5274
   -951229.118 9   -744966.90448  20909859.722    20909859.1754   20909868.8574
  -2298932.226 9  -1773544.86647  22056335.693    22056335.5174   22056345.9774
  -1761104.017 9  -1365973.53548  20826980.499    20826979.6424   20826988.4994
 80  9  1 21  2  4.0000000  0  6 30 24 17  5  6 10                  -0.000000061
  -1780985.172 9  -1381699.98449  20598408.859    20598409.0484   20598417.3744
   -814900.175 9   -643093.21847  21991289.140    21991288.8174   21991297.8454
  -2507384.204 9  -1941170.93146  23700938.717    23700938.1624   23700957.0554
   -949203.490 9   -743388.49548  20910245.192    20910244.6494   20910254.3324
  -2301078.882 9  -1775217.57947  22055927.190    22055927.0104   22055937.4694
  -1761430.630 9  -1366228.03748  20826918.359    20826917.5054   20826926.3634
 80  9  1 21  2  5.0000000  0  6 30 24 17  5  6 10                  -0.000000063
  -1781398.193 9  -1382021.81949  20598330.266    20598330.4534   20598338.7914
   -812534.517 9   -641249.85047  21991739.318    21991738.9864   21991748.0184
  -2510045.029 9  -1943244.29146  23700432.401    23700431.8434   23700450.7324
   -947176.953 9   -741809.38248  20910630.838    20910630.3024   20910639.9714
  -2303225.027 9  -1776889.89447  22055518.781    22055518.6024   22055529.0634
  -1761756.138 9  -1366481.68048  20826856.407    20826855.5484   20826864.4034
 80  9  1 21  2  6.0000000  0  6 30 24 17  5  6 10                  -0.000000065
  -1781810.631 9  -1382343.19849  20598251.788    20598251.9674   20598260.3104
   -810168.823 9   -639406.45147  21992189.509    21992189.1844   21992198.2074
  -2512705.752 9  -1945317.57046  23699926.072    23699925.5134   23699944.3944
   -945149.995 9   -740229.93548  20911016.556    20911016.0154   20911025.6984
  -2305371.145 9  -1778562.19447  22055110.375    22055110.1954   22055120.6504
  -1762081.017 9  -1366734.83048  20826794.596    20826793.7414   20826802.5874
 80  9  1 21  2  7.0000000  0  6 30 24 17  5  6 10                  -0.000000067
  -1782222.523 9  -1382664.15149  20598173.384    20598173.5614   20598181.9004
   -807803.150 9   -637563.07347  21992639.668    21992639.3424   21992648.3624
  -2515366.429 9  -1947390.81246  23699419.742    23699419.1844   23699438.0574
   -943122.672 9   -738650.20348  20911402.317    20911401.7784   20911411.4594
  -2307517.277 9  -1780234.49947  22054701.993    22054701.8184   22054712.2664
  -1762405.296 9  -1366987.51348  20826732.886    20826732.0244   20826740.8794
 80  9  1 21  2  8.0000000  0  6 30 24 17  5  6 10                  -0.000000069
  -1782633.428 9  -1382984.33749  20598095.205    20598095.3854   20598103.7154
   -805437.039 9   -635719.35147  21993089.936    21993089.6104   21993098.6344
  -2518026.601 9  -1949463.66346  23698913.538    23698912.9844   23698931.8514
   -941094.528 9   -737069.83648  20911788.262    20911787.7204   20911797.3984
  -2309662.975 9  -1781906.46847  22054293.678    22054293.5004   22054303.9424
  -1762728.546 9  -1367239.39648  20826671.377    20826670.5164   20826679.3644
 80  9  1 21  2  9.0000000  0  6 30 24 17  5  6 10                  -0.000000071
  -1783043.660 9  -1383303.99649  20598017.156    20598017.3294   20598025.6664
   -803070.799 9   -633875.52447  21993540.208    21993539.8894   21993548.9134
  -2520686.572 9  -1951536.35946  23698407.369    23698406.8154   23698425.6784
   -939065.878 9   -735489.07448  20912174.312    20912173.7734   20912183.4544
  -2311808.549 9  -1783578.34347  22053885.378    22053885.2034   22053895.6444
  -1763051.077 9  -1367490.71548  20826609.993    20826609.1294   20826617.9824
 80  9  1 21  2 10.0000000  0  6 30 24 17  5  6 10                  -0.000000074
  -1783453.013 9  -1383622.97249  20597939.231    20597939.4034   20597947.7444
   -800704.244 9   -632031.45847  21993990.556    21993990.2374   21993999.2504
  -2523346.170 9  -1953608.76646  23697901.249    23697900.6954   23697919.5564
   -937036.546 9   -733907.78148  20912560.481    20912559.9464   20912569.6244
  -2313953.805 9  -1785249.96147  22053477.158    22053476.9764   22053487.4154
  -1763372.686 9  -1367741.31848  20826548.795    20826547.9414   20826556.7834
 80  9  1 21  2 11.0000000  0  6 30 24 17  5  6 10                  -0.000000076
  -1783861.752 9  -1383941.46849  20597861.476    20597861.6474   20597869.9814
   -798337.613 9   -630187.33147  21994440.916    21994440.6054   21994449.6084
  -2526005.635 9  -1955681.06746  23697395.153    23697394.6054   23697413.4494
   -935006.764 9   -732326.13448  20912946.731    20912946.1984   20912955.8684
  -2316098.996 9  -1786921.53347  22053068.928    22053068.7384   22053079.1834
  -1763693.631 9  -1367991.40448  20826487.725    20826486.8734   20826495.7094
 80  9  1 21  2 12.0000000  0  6 30 24 17  5  6 10                  -0.000000078
  -1784269.671 9  -1384259.32949  20597783.830    20597784.0014   20597792.3304
   -795970.716 9   -628342.99347  21994891.316    21994891.0044   21994900.0174
  -2528664.746 9  -1957753.09346  23696889.136    23696888.5864   23696907.4224
   -932976.345 9   -730743.99248  20913333.117    20913332.5814   20913342.2574
  -2318243.923 9  -1788592.90447  22052660.769    22052660.5814   22052671.0204
  -1764013.717 9  -1368240.81948  20826426.794    20826425.9254   20826434.7744
 80  9  1 21  2 13.0000000  0  6 30 24 17  5  6 10                  -0.000000080
  -1784676.979 9  -1384576.71149  20597706.339    20597706.5154   20597714.8394
   -793603.786 9   -626498.63147  21995341.725    21995341.4024   21995350.4264
  -2531323.757 9  -1959825.04146  23696383.138    23696382.5864   23696401.4184
   -930945.505 9   -729161.52248  20913719.569    20913719.0334   20913728.7074
  -2320388.794 9  -1790264.22547  22052252.605    22052252.4234   22052262.8524
  -1764333.130 9  -1368489.71048  20826366.028    20826365.1574   20826374.0144
 80  9  1 21  2 14.0000000  0  6 30 24 17  5  6 10                  -0.000000082
  -1785083.356 9  -1384893.36749  20597629.013    20597629.1884   20597637.5134
   -791236.479 9   -624653.97547  21995792.227    21995791.9104   21995800.9244
  -2533982.308 9  -1961896.63046  23695877.240    23695876.6964   23695895.5224
   -928913.904 9   -727578.45848  20914106.199    20914105.6664   20914115.3434
  -2322533.282 9  -1791935.24947  22051844.525    22051844.3364   22051854.7684
  -1764651.569 9  -1368737.84348  20826305.416    20826304.5494   20826313.4004
 80  9  1 21  2 15.0000000  0  6 30 24 17  5  6 10                  -0.000000084
  -1785489.103 9  -1385209.53349  20597551.797    20597551.9814   20597560.2984
   -788869.069 9   -622809.24347  21996242.724    21996242.3984   21996251.4274
  -2536640.702 9  -1963968.09446  23695371.364    23695370.8264   23695389.6414
   -926881.848 9   -725995.04148  20914492.891    20914492.3584   20914502.0334
  -2324677.692 9  -1793606.21447  22051436.459    22051436.2684   22051446.6974
  -1764969.329 9  -1368985.44248  20826244.967    20826244.0914   20826252.9474
 80  9  1 21  2 16.0000000  0  6 30 24 17  5  6 10                  -0.000000086
  -1785894.029 9  -1385525.05949  20597474.738    20597474.9254   20597483.2434
   -786501.421 9   -620964.32747  21996693.274    21996692.9564   21996701.9604
  -2539298.779 9  -1966039.31346  23694865.536    23694864.9874   23694883.8044
   -924849.182 9   -724411.15048  20914879.697    20914879.1604   20914888.8354
  -2326821.839 9  -1795276.97547  22051028.442    22051028.2514   22051038.6784
  -1765286.228 9  -1369232.37648  20826184.647    20826183.7734   20826192.6164
 80  9  1 21  2 17.0000000  0  6 30 24 17  5  6 10                  -0.000000088
  -1786298.301 9  -1385840.07749  20597397.801    20597397.9884   20597406.3074
   -784133.705 9   -619119.35547  21997143.846    21997143.5244   21997152.5324
  -2541956.675 9  -1968110.39446  23694359.748    23694359.1974   23694378.0044
   -922816.044 9   -722826.88748  20915266.571    20915266.0334   20915275.7144
  -2328965.896 9  -1796947.66147  22050620.424    22050620.2334   22050630.6504
  -1765602.437 9  -1369478.76948  20826124.492    20826123.6154   20826132.4594
 80  9  1 21  2 18.0000000  0  6 30 24 17  5  6 10                  -0.000000090
  -1786701.838 9  -1386154.52149  20597321.023    20597321.2114   20597329.5334
   -781765.765 9   -617274.20847  21997594.450    21997594.1224   21997603.1424
  -2544614.323 9  -1970181.28246  23693854.028    23693853.4774   23693872.2774
   -920782.348 9   -721242.19348  20915653.594    20915653.0554   20915662.7284
  -2331109.768 9  -1798618.20847  22050212.469    22050212.2764   22050222.6854
  -1765917.860 9  -1369724.55348  20826064.447    20826063.5664   20826072.4174
 80  9  1 21  2 19.0000000  0  6 30 24 17  5  6 10                  -0.000000092
  -1787104.674 9  -1386468.41949  20597244.345    20597244.5344   20597252.8484
   -779397.691 9   -615428.95147  21998045.071    21998044.7404   21998053.7624
  -2547271.751 9  -1972251.99946  23693348.330    23693347.7774   23693366.5724
   -918748.150 9   -719657.10548  20916040.679    20916040.1374   20916049.8144
  -2333253.502 9  -1800288.64447  22049804.531    22049804.3384   22049814.7544
  -1766232.546 9  -1369969.76148  20826004.585    20826003.6984   20826012.5544
 80  9  1 21  2 20.0000000  0  6 30 24 17  5  6 10                  -0.000000095
  -1787506.644 9  -1386781.64249  20597167.874    20597168.0674   20597176.3844
   -777029.302 9   -613583.46047  21998495.779    21998495.4484   21998504.4764
  -2549928.796 9  -1974322.41146  23692842.700    23692842.1374   23692860.9314
   -916713.260 9   -718071.48348  20916427.906    20916427.3684   20916437.0444
  -2335396.935 9  -1801958.85047  22049396.654    22049396.4614   22049406.8674
  -1766546.335 9  -1370214.26948  20825944.858    20825943.9794   20825952.8244
 80  9  1 21  2 21.0000000  0  6 30 24 17  5  6 10                  -0.000000097
  -1787908.005 9  -1387094.39149  20597091.481    20597091.6704   20597099.9934
   -774660.858 9   -611737.91747  21998946.465    21998946.1364   21998955.1604
  -2552585.691 9  -1976392.70546  23692337.094    23692336.5374   23692355.3164
   -914677.936 9   -716485.51948  20916815.237    20916814.7004   20916824.3784
  -2337540.317 9  -1803629.01147  22048988.772    22048988.5734   22048998.9874
  -1766859.475 9  -1370458.27348  20825885.280    20825884.4004   20825893.2474
 80  9  1 21  2 22.0000000  0  6 30 24 17  5  6 10                  -0.000000099
  -1788308.513 9  -1387406.47749  20597015.284    20597015.4734   20597023.8014
   -772292.121 9   -609892.15247  21999397.221    21999396.8944   21999405.9154
  -2555242.243 9  -1978462.73146  23691831.582    23691831.0174   23691849.8114
   -912641.958 9   -714899.04748  20917202.664    20917202.1224   20917211.8114
  -2339683.426 9  -1805298.96247  22048580.952    22048580.7454   22048591.1674
  -1767171.725 9  -1370701.58548  20825825.857    20825824.9724   20825833.8384
 80  9  1 21  2 23.0000000  0  6 30 24 17  5  6 10                  -0.000000101
  -1788708.342 9  -1387718.03049  20596939.175    20596939.3654   20596947.6794
   -769923.254 9   -608046.28247  21999848.019    21999847.6824   21999856.7034
  -2557898.570 9  -1980532.57746  23691326.083    23691325.5174   23691344.3104
   -910605.473 9   -713312.17748  20917590.196    20917589.6544   20917599.3434
  -2341826.411 9  -1806968.81647  22048173.152    22048172.9484   22048183.3624
  -1767483.269 9  -1370944.34448  20825766.569    20825765.6834   20825774.5364
 80  9  1 21  2 24.0000000  0  6 30 24 17  5  6 10                  -0.000000103
  -1789107.237 9  -1388028.85849  20596863.286    20596863.4784   20596871.7994
   -767554.013 9   -606200.12747  22000298.880    22000298.5404   22000307.5524
  -2560554.446 9  -1982602.08246  23690820.672    23690820.1074   23690838.8884
   -908568.231 9   -711724.72048  20917977.885    20917977.3454   20917987.0284
  -2343969.035 9  -1808638.38947  22047765.405    22047765.2004   22047775.6214
  -1767793.847 9  -1371186.35448  20825707.468    20825706.5834   20825715.4344
 80  9  1 21  2 25.0000000  0  6 30 24 17  5  6 10                  -0.000000105
  -1789505.641 9  -1388339.30049  20596787.460    20596787.6614   20596795.9624
   -765184.855 9   -604354.02447  22000749.708    22000749.3684   22000758.3794
  -2563210.333 9  -1984671.59046  23690315.282    23690314.7174   23690333.5004
   -906530.691 9   -710137.02548  20918365.621    20918365.0774   20918374.7674
  -2346111.728 9  -1810308.01347  22047357.673    22047357.4724   22047367.8884
  -1768103.897 9  -1371427.94848  20825648.465    20825647.5844   20825656.4334
 80  9  1 21  2 26.0000000  0  6 30 24 17  5  6 10                  -0.000000107
  -1789903.215 9  -1388649.09749  20596711.800    20596711.9934   20596720.3174
   -762815.402 9   -602507.69847  22001200.610    22001200.2664   22001209.2764
  -2565865.842 9  -1986740.80346  23689809.940    23689809.3774   23689828.1574
   -904492.495 9   -708548.82648  20918753.474    20918752.9394   20918762.6194
  -2348254.148 9  -1811977.42747  22046949.969    22046949.7654   22046960.1894
  -1768413.086 9  -1371668.87348  20825589.626    20825588.7454   20825597.5934
 80  9  1 21  2 27.0000000  0  6 30 24 17  5  6 10                  -0.000000109
  -1790300.062 9  -1388958.32749  20596636.308    20596636.5054   20596644.8174
   -760445.777 9   -600661.23947  22001651.524    22001651.1844   22001660.1974
  -2568521.093 9  -1988809.81646  23689304.650    23689304.0774   23689322.8674
   -902453.738 9   -706960.18948  20919141.423    20919140.8804   20919150.5724
  -2350396.396 9  -1813646.70847  22046542.315    22046542.1074   22046552.5284
  -1768721.511 9  -1371909.20148  20825530.938    20825530.0564   20825538.9114
 80  9  1 21  2 28.0000000  0  6 30 24 17  5  6 10                  -0.000000111
  -1790695.980 9  -1389266.83749  20596560.941    20596561.1374   20596569.4594
   -758075.799 9   -598814.50547  22002102.521    22002102.1824   22002111.1964
  -2571175.921 9  -1990878.49846  23688799.449    23688798.8764   23688817.6734
   -900414.252 9   -705370.98348  20919529.527    20919528.9914   20919538.6694
  -2352538.292 9  -1815315.71047  22046134.722    22046134.5194   22046144.9394
  -1769028.980 9  -1372148.78948  20825472.417    20825471.5364   20825480.3884
 80  9  1 21  2 29.0000000  0  6 30 24 17  5  6 10                  -0.000000113
  -1791091.222 9  -1389574.81649  20596485.732    20596485.9294   20596494.2454
   -755705.695 9   -596967.66947  22002553.519    22002553.1794   22002562.1964
  -2573830.504 9  -1992946.99646  23688294.296    23688293.7354   23688312.5234
   -898374.257 9   -703781.38048  20919917.731    20919917.1934   20919926.8764
  -2354680.067 9  -1816984.62147  22045727.156    22045726.9514   22045737.3784
  -1769335.727 9  -1372387.80848  20825414.052    20825413.1864   20825422.0284
 80  9  1 21  2 30.0000000  0  6 30 24 17  5  6 10                  -0.000000114
  -1791485.865 9  -1389882.32949  20596410.647    20596410.8414   20596419.1554
   -753335.544 9   -595120.79847  22003004.568    22003004.2374   22003013.2394
  -2576484.978 9  -1995015.40546  23687789.173    23687788.6254   23687807.4064
   -896333.849 9   -702191.45448  20920306.019    20920305.4844   20920315.1704
  -2356821.810 9  -1818653.50647  22045319.588    22045319.3934   22045329.8134
  -1769641.853 9  -1372626.34648  20825355.792    20825354.9174   20825363.7644
 80  9  1 21  2 31.0000000  0  6 30 24 17  5  6 10                  -0.000000116
  -1791879.667 9  -1390189.18549  20596335.699    20596335.8934   20596344.2094
   -750965.116 9   -593273.71547  22003455.634    22003455.3054   22003464.3214
  -2579139.077 9  -1997083.53146  23687284.109    23687283.5654   23687302.3434
   -894292.794 9   -700601.02448  20920694.417    20920693.8754   20920703.5734
  -2358963.269 9  -1820322.17147  22044912.067    22044911.8654   22044922.2934
  -1769947.088 9  -1372864.19148  20825297.700    20825296.8274   20825305.6704
 80  9  1 21  2 32.0000000  0  6 30 24 17  5  6 10                  -0.000000118
  -1792272.781 9  -1390495.50749  20596260.899    20596261.0954   20596269.4154
   -748594.542 9   -591426.51547  22003906.745    22003906.4124   22003915.4234
  -2581792.962 9  -1999151.48446  23686779.093    23686778.5544   23686797.3274
   -892251.225 9   -699010.19348  20921082.918    20921082.3764   20921092.0734
  -2361104.618 9  -1821990.75147  22044504.584    22044504.3874   22044514.8184
  -1770251.600 9  -1373101.46948  20825239.755    20825238.8874   20825247.7264
 80  9  1 21  2 33.0000000  0  6 30 24 17  5  6 10                  -0.000000120
  -1792665.084 9  -1390801.19849  20596186.260    20596186.4574   20596194.7704
   -746223.719 9   -589579.12447  22004357.898    22004357.5704   22004366.5744
  -2584446.499 9  -2001219.16646  23686274.143    23686273.6144   23686292.3664
   -890209.022 9   -697418.86848  20921471.534    20921470.9874   20921480.6854
  -2363245.719 9  -1823659.13747  22044097.144    22044096.9504   22044107.3734
  -1770555.262 9  -1373338.08848  20825181.958    20825181.0874   20825189.9334
 80  9  1 21  2 34.0000000  0  6 30 24 17  5  6 10                  -0.000000122
  -1793056.631 9  -1391106.30049  20596111.758    20596111.9584   20596120.2604
   -743852.718 9   -587731.59147  22004809.065    22004808.7384   22004817.7484
  -2587099.760 9  -2003286.63446  23685769.217    23685768.6934   23685787.4324
   -888166.262 9   -695827.11048  20921860.280    20921859.7384   20921869.4274
  -2365386.603 9  -1825327.35347  22043689.723    22043689.5324   22043699.9624
  -1770858.116 9  -1373574.07548  20825124.333    20825123.4674   20825132.3264
 80  9  1 21  2 35.0000000  0  6 30 24 17  5  6 10                  -0.000000124
  -1793447.522 9  -1391410.88749  20596037.360    20596037.5604   20596045.8614
   -741481.602 9   -585883.96847  22005260.288    22005259.9564   22005268.9614
  -2589752.790 9  -2005353.92146  23685264.378    23685263.8534   23685282.5764
   -886123.012 9   -694234.97148  20922249.095    20922248.5494   20922258.2514
  -2367527.382 9  -1826995.49147  22043282.346    22043282.1544   22043292.5844
  -1771160.269 9  -1373809.51848  20825066.822    20825065.9574   20825074.8014
 80  9  1 21  2 36.0000000  0  6 30 24 17  5  6 10                  -0.000000126
  -1793837.701 9  -1391714.92249  20595963.126    20595963.3114   20595971.6324
   -739110.341 9   -584036.23347  22005711.525    22005711.1934   22005720.2074
  -2592405.583 9  -2007421.02346  23684759.549    23684759.0234   23684777.7394
   -884079.233 9   -692642.41848  20922638.010    20922637.4694   20922647.1654
  -2369668.012 9  -1828663.50947  22042874.993    22042874.8054   22042885.2334
  -1771461.665 9  -1374044.37148  20825009.472    20825008.6074   20825017.4574
 80  9  1 21  2 37.0000000  0  6 30 24 17  5  6 10                  -0.000000128
  -1794227.216 9  -1392018.44249  20595888.996    20595889.1934   20595897.5094
   -736738.968 9   -582188.40747  22006162.785    22006162.4604   22006171.4564
  -2595058.162 9  -2009487.95846  23684254.781    23684254.2524   23684272.9534
   -882035.002 9   -691049.51548  20923027.024    20923026.4804   20923036.1814
  -2371808.538 9  -1830331.44547  22042467.650    22042467.4774   22042477.8974
  -1771762.350 9  -1374278.66748  20824952.254    20824951.3864   20824960.2314
 80  9  1 21  2 38.0000000  0  6 30 24 17  5  6 10                  -0.000000129
  -1794615.934 9  -1392321.33949  20595815.015    20595815.2044   20595823.5174
   -734367.358 9   -580340.40047  22006614.090    22006613.7684   22006622.7614
  -2597710.388 9  -2011554.62046  23683750.095    23683749.5624   23683768.2614
   -879990.147 9   -689456.12548  20923416.139    20923415.6014   20923425.2904
  -2373948.811 9  -1831999.18347  22042060.391    22042060.2094   22042070.6384
  -1772062.193 9  -1374512.31148  20824895.183    20824894.3164   20824903.1654
 80  9  1 21  2 39.0000000  0  6 30 24 17  5  6 10                  -0.000000131
  -1795003.872 9  -1392623.62749  20595741.190    20595741.3854   20595749.6864
   -731995.512 9   -578492.21147  22007065.427    22007065.1064   22007074.0924
  -2600362.285 9  -2013621.02546  23683245.456    23683244.9214   23683263.5994
   -877944.688 9   -687862.26348  20923805.397    20923804.8514   20923814.5554
  -2376088.851 9  -1833666.74247  22041653.132    22041652.9514   22041663.3814
  -1772361.214 9  -1374745.31348  20824838.293    20824837.4354   20824846.2754
 80  9  1 21  2 40.0000000  0  6 30 24 17  5  6 10                  -0.000000133
  -1795391.094 9  -1392925.35649  20595667.512    20595667.6964   20595676.0114
   -729623.492 9   -576643.88547  22007516.809    22007516.4834   22007525.4754
  -2603013.911 9  -2015687.21546  23682740.855    23682740.3114   23682758.9954
   -875898.699 9   -686267.98848  20924194.721    20924194.1824   20924203.8824
  -2378228.709 9  -1835334.15947  22041245.916    22041245.7434   22041256.1674
  -1772659.462 9  -1374977.71148  20824781.538    20824780.6744   20824789.5204
 80  9  1 21  2 41.0000000  0  6 30 24 17  5  6 10                  -0.000000134
  -1795777.647 9  -1393226.56649  20595593.963    20595594.1474   20595602.4574
   -727251.331 9   -574795.44947  22007968.220    22007967.9014   22007976.8874
  -2605665.288 9  -2017753.21046  23682236.318    23682235.7704   23682254.4494
   -873852.206 9   -684673.32148  20924584.165    20924583.6224   20924593.3264
  -2380368.437 9  -1837001.47247  22040838.736    22040838.5654   22040848.9854
  -1772956.993 9  -1375209.55048  20824724.905    20824724.0344   20824732.8834
 80  9  1 21  2 42.0000000  0  6 30 24 17  5  6 10                  -0.000000136
  -1796163.437 9  -1393527.18349  20595520.546    20595520.7384   20595529.0544
   -724878.948 9   -572946.83647  22008419.664    22008419.3284   22008428.3244
  -2608316.382 9  -2019818.98746  23681731.825    23681731.2604   23681749.9434
   -871805.136 9   -683078.20248  20924973.720    20924973.1724   20924982.8834
  -2382507.959 9  -1838668.63347  22040431.618    22040431.4474   22040441.8684
  -1773253.736 9  -1375440.77348  20824668.448    20824667.5834   20824676.4304
 80  9  1 21  2 43.0000000  0  6 30 24 17  5  6 10                  -0.000000137
  -1796548.479 9  -1393827.21649  20595447.269    20595447.4584   20595455.7684
   -722506.368 9   -571098.07447  22008871.158    22008870.8364   22008879.8184
  -2610967.166 9  -2021884.52246  23681227.389    23681226.8194   23681245.4994
   -869757.505 9   -681482.65148  20925363.371    20925362.8234   20925372.5294
  -2384647.271 9  -1840335.62147  22040024.498    22040024.3294   22040034.7524
  -1773549.674 9  -1375671.37448  20824612.138    20824611.2724   20824620.1204
 80  9  1 21  2 44.0000000  0  6 30 24 17  5  6 10                  -0.000000139
  -1796932.871 9  -1394126.73949  20595374.134    20595374.3194   20595382.6234
   -720133.681 9   -569249.23047  22009322.661    22009322.3334   22009331.3264
  -2613617.751 9  -2023949.89846  23680723.001    23680722.4184   23680741.1074
   -867709.402 9   -679886.73048  20925753.108    20925752.5634   20925762.2704
  -2386786.487 9  -1842002.53647  22039617.407    22039617.2314   22039627.6654
  -1773844.925 9  -1375901.43848  20824555.956    20824555.0914   20824563.9464
 80  9  1 21  2 45.0000000  0  6 30 24 17  5  6 10                  -0.000000141
  -1797316.489 9  -1394425.66149  20595301.118    20595301.3094   20595309.6244
   -717760.770 9   -567400.20847  22009774.215    22009773.8914   22009782.8814
  -2616268.012 9  -2026015.02446  23680218.663    23680218.0774   23680236.7584
   -865660.704 9   -678290.34448  20926142.980    20926142.4334   20926152.1364
  -2388925.480 9  -1843669.27847  22039210.383    22039210.2124   22039220.6384
  -1774139.355 9  -1376130.86348  20824499.929    20824499.0594   20824507.9074
 80  9  1 21  2 46.0000000  0  6 30 24 17  5  6 10                  -0.000000142
  -1797699.381 9  -1394724.02049  20595228.279    20595228.4704   20595236.7834
   -715387.677 9   -565551.04747  22010225.799    22010225.4784   22010234.4734
  -2618917.996 9  -2028079.93146  23679714.394    23679713.7964   23679732.4934
   -863611.474 9   -676693.54648  20926532.922    20926532.3734   20926542.0784
  -2391064.294 9  -1845335.88447  22038803.364    22038803.1944   22038813.6174
  -1774433.035 9  -1376359.70248  20824444.029    20824443.1684   20824452.0134
 80  9  1 21  2 47.0000000  0  6 30 24 17  5  6 10                  -0.000000144
  -1798081.424 9  -1395021.71549  20595155.574    20595155.7504   20595164.0724
   -713014.282 9   -563701.65147  22010677.454    22010677.1354   22010686.1304
  -2621567.570 9  -2030144.52246  23679210.165    23679209.5654   23679228.2724
   -861561.556 9   -675096.21148  20926923.026    20926922.4734   20926932.1804
  -2393202.802 9  -1847002.24447  22038396.421    22038396.2464   22038406.6804
  -1774725.815 9  -1376587.84148  20824388.298    20824387.4274   20824396.2804
 80  9  1 21  2 48.0000000  0  6 30 24 17  5  6 10                  -0.000000145
  -1798462.884 9  -1395318.95749  20595082.971    20595083.1614   20595091.4744
   -710640.837 9   -561852.21147  22011129.094    22011128.7824   22011137.7714
  -2624216.992 9  -2032208.99346  23678706.008    23678705.4044   23678724.1174
   -859511.218 9   -673498.54948  20927313.195    20927312.6434   20927322.3524
  -2395341.263 9  -1848668.57947  22037989.489    22037989.3184   22037999.7444
  -1775017.972 9  -1376815.49648  20824332.699    20824331.8354   20824340.6824
 80  9  1 21  2 49.0000000  0  6 30 24 17  5  6 10                  -0.000000146
  -1798843.632 9  -1395615.64149  20595010.541    20595010.7214   20595019.0414
   -708267.204 9   -560002.63047  22011580.794    22011580.4804   22011589.4804
  -2626866.169 9  -2034273.27746  23678201.866    23678201.2534   23678219.9734
   -857460.351 9   -671900.47348  20927703.480    20927702.9334   20927712.6384
  -2397479.554 9  -1850334.77647  22037582.581    22037582.4094   22037592.8414
  -1775309.381 9  -1377042.56748  20824277.245    20824276.3934   20824285.2284
 80  9  1 21  2 50.0000000  0  6 30 24 17  5  6 10                  -0.000000148
  -1799223.621 9  -1395911.73649  20594938.224    20594938.4014   20594946.7114
   -705893.360 9   -558152.88347  22012032.518    22012032.2074   22012041.2014
  -2629515.047 9  -2036337.32746  23677697.781    23677697.1724   23677715.8974
   -855408.894 9   -670301.93848  20928093.859    20928093.3024   20928103.0164
  -2399617.639 9  -1852000.80947  22037175.715    22037175.5414   22037185.9724
  -1775600.002 9  -1377269.02348  20824221.945    20824221.0924   20824229.9274
 80  9  1 21  2 51.0000000  0  6 30 24 17  5  6 10                  -0.000000149
  -1799602.985 9  -1396207.34249  20594866.037    20594866.2214   20594874.5324
   -703519.449 9   -556303.08147  22012484.273    22012483.9544   22012492.9494
  -2632163.737 9  -2038401.23246  23677193.755    23677193.1414   23677211.8784
   -853356.967 9   -668703.03648  20928484.328    20928483.7724   20928493.4874
  -2401755.647 9  -1853666.78347  22036768.848    22036768.6834   22036779.1114
  -1775889.955 9  -1377494.95848  20824166.764    20824165.9204   20824174.7524
 80  9  1 21  2 52.0000000  0  6 30 24 17  5  6 10                  -0.000000151
  -1799981.543 9  -1396502.32349  20594793.997    20594794.1814   20594802.4964
   -701145.264 9   -554453.06947  22012936.059    22012935.7524   22012944.7474
  -2634812.086 9  -2040464.87046  23676689.767    23676689.1604   23676707.8954
   -851304.417 9   -667103.64948  20928874.921    20928874.3724   20928884.0844
  -2403893.399 9  -1855332.56147  22036362.049    22036361.8844   22036372.3174
  -1776179.080 9  -1377720.24848  20824111.763    20824110.9084   20824119.7524
 80  9  1 21  2 53.0000000  0  6 30 24 17  5  6 10                  -0.000000152
  -1800359.381 9  -1396796.74249  20594722.092    20594722.2704   20594730.5894
   -698770.895 9   -552602.91447  22013387.892    22013387.5794   22013396.5784
  -2637460.157 9  -2042528.29146  23676185.858    23676185.2494   23676203.9954
   -849251.299 9   -665503.82048  20929265.604    20929265.0514   20929274.7684
  -2406030.970 9  -1856998.19547  22035955.276    22035955.1064   22035965.5354
  -1776467.452 9  -1377944.95148  20824056.884    20824056.0364   20824064.8754
 80  9  1 21  2 54.0000000  0  6 30 24 17  5  6 10                  -0.000000153
  -1800736.607 9  -1397090.68449  20594650.318    20594650.4904   20594658.8084
   -696396.438 9   -550752.68947  22013839.713    22013839.3964   22013848.3954
  -2640108.054 9  -2044591.58046  23675681.961    23675681.3584   23675700.0954
   -847197.732 9   -663903.64048  20929656.402    20929655.8514   20929665.5634
  -2408168.477 9  -1858663.77747  22035548.540    22035548.3684   22035558.8064
  -1776755.177 9  -1378169.15048  20824002.116    20824001.2644   20824010.1084
 80  9  1 21  2 55.0000000  0  6 30 24 17  5  6 10                  -0.000000155
  -1801113.015 9  -1397383.98949  20594578.690    20594578.8704   20594587.1824
   -694021.696 9   -548902.24047  22014291.628    22014291.3134   22014300.3184
  -2642755.597 9  -2046654.58846  23675178.131    23675177.5264   23675196.2714
   -845143.512 9   -662302.95248  20930047.289    20930046.7304   20930056.4534
  -2410305.701 9  -1860329.14147  22035141.822    22035141.6494   22035152.0904
  -1777042.056 9  -1378392.69148  20823947.523    20823946.6824   20823955.5134
 80  9  1 21  2 56.0000000  0  6 30 24 17  5  6 10                  -0.000000156
  -1801488.763 9  -1397676.78149  20594507.191    20594507.3594   20594515.6744
   -691646.829 9   -547051.69947  22014743.554    22014743.2404   22014752.2414
  -2645402.915 9  -2048717.42746  23674674.359    23674673.7554   23674692.5014
   -843088.784 9   -660701.87048  20930438.300    20930437.7494   20930447.4604
  -2412442.820 9  -1861994.42547  22034735.158    22034734.9904   22034745.4214
  -1777328.236 9  -1378615.68548  20823893.067    20823892.2204   20823901.0494
 80  9  1 21  2 57.0000000  0  6 30 24 17  5  6 10                  -0.000000157
  -1801863.774 9  -1397968.99649  20594435.836    20594436.0094   20594444.3144
   -689271.749 9   -545200.98547  22015195.499    22015195.1874   22015204.1854
  -2648049.932 9  -2050780.02846  23674170.640    23674170.0444   23674188.7834
   -841033.470 9   -659100.32948  20930829.416    20930828.8594   20930838.5794
  -2414579.745 9  -1863659.55947  22034328.506    22034328.3324   22034338.7644
  -1777613.643 9  -1378838.07748  20823838.743    20823837.8874   20823846.7274
 80  9  1 21  2 58.0000000  0  6 30 24 17  5  6 10                  -0.000000158
  -1802238.081 9  -1398260.66249  20594364.624    20594364.7884   20594373.0974
   -686896.493 9   -543350.13547  22015647.511    22015647.1954   22015656.1914
  -2650696.700 9  -2052842.43246  23673666.969    23673666.3724   23673685.1134
   -838977.622 9   -657498.37348  20931220.633    20931220.0784   20931229.7974
  -2416716.515 9  -1865324.56847  22033921.884    22033921.7144   22033932.1504
  -1777898.315 9  -1379059.89648  20823784.574    20823783.7154   20823792.5584
 80  9  1 21  2 59.0000000  0  6 30 24 17  5  6 10                  -0.000000159
  -1802611.758 9  -1398551.83749  20594293.512    20594293.6774   20594301.9844
   -684521.130 9   -541499.20347  22016099.526    22016099.2124   22016108.2104
  -2653343.268 9  -2054904.67846  23673163.340    23673162.7414   23673181.4894
   -836921.304 9   -655896.05048  20931611.949    20931611.3974   20931621.1094
  -2418853.218 9  -1866989.52947  22033515.272    22033515.0954   22033525.5234
  -1778182.325 9  -1379281.19848  20823730.552    20823729.6924   20823738.5274
 80  9  1 21  3  0.0000000  0  6 30 24 17  5  6 10                  -0.000000161
  -1802984.661 9  -1398842.41249  20594222.555    20594222.7264   20594231.0284
   -682145.525 9   -539648.08947  22016551.572    22016551.2584   22016560.2614
  -2655989.510 9  -2056966.67146  23672659.756    23672659.1604   23672677.8914
   -834864.377 9   -654293.25548  20932003.366    20932002.8164   20932012.5304
  -2420989.709 9  -1868654.32147  22033108.718    22033108.5364   22033118.9644
  -1778465.528 9  -1379501.87648  20823676.660    20823675.7994   20823684.6354
 80  9  1 21  3  1.0000000  0  6 30 24 17  5  6 10                  -0.000000162
  -1803356.900 9  -1399132.46649  20594151.696    20594151.8554   20594160.1794
   -679769.812 9   -537796.88247  22017003.672    22017003.3664   22017012.3614
  -2658635.543 9  -2059028.50446  23672156.236    23672155.6384   23672174.3634
   -832806.970 9   -652690.08348  20932394.892    20932394.3454   20932404.0564
  -2423126.090 9  -1870319.02647  22032702.188    22032702.0084   22032712.4334
  -1778748.048 9  -1379722.02148  20823622.887    20823622.0274   20823630.8624
 80  9  1 21  3  2.0000000  0  6 30 24 17  5  6 10                  -0.000000163
  -1803728.390 9  -1399421.94049  20594081.021    20594081.1744   20594089.4844
   -677393.882 9   -535945.51247  22017455.789    22017455.4834   22017464.4764
  -2661281.281 9  -2061090.11346  23671652.740    23671652.1474   23671670.8614
   -830748.988 9   -651086.46348  20932786.509    20932785.9634   20932795.6744
  -2425262.292 9  -1871983.59647  22032295.692    22032295.5094   22032305.9354
  -1779029.802 9  -1379941.56948  20823569.264    20823568.3944   20823577.2344
 80  9  1 21  3  3.0000000  0  6 30 24 17  5  6 10                  -0.000000164
  -1804099.151 9  -1399710.84749  20594010.456    20594010.6134   20594018.9224
   -675017.757 9   -534093.99047  22017907.953    22017907.6494   22017916.6464
  -2663926.736 9  -2063151.49446  23671149.312    23671148.7154   23671167.4394
   -828690.450 9   -649482.41248  20933178.242    20933177.7024   20933187.4094
  -2427398.323 9  -1873648.03447  22031889.200    22031889.0114   22031899.4474
  -1779310.796 9  -1380160.52548  20823515.810    20823514.9414   20823523.7854
 80  9  1 21  3  4.0000000  0  7 30 24 17  5  6 10 13               -0.000000165
  -1804469.184 9  -1399999.18549  20593940.041    20593940.1924   20593948.5034
   -672641.434 9   -532242.31147  22018360.147    22018359.8564   22018368.8404
  -2666571.893 9  -2065212.64746  23670645.952    23670645.3544   23670664.0674
   -826631.378 9   -647877.94348  20933570.066    20933569.5214   20933579.2374
  -2429534.169 9  -1875312.32847  22031482.761    22031482.5724   22031492.9954
  -1779591.050 9  -1380378.90448  20823462.470    20823461.6074   20823470.4444
  -1429607.904 8  -1102597.75952         0.000           0.0004          0.0005
 80  9  1 21  3  5.0000000  0  7 30 24 17  5  6 10 13               -0.000000166
  -1804838.469 9  -1400286.93849  20593869.772    20593869.9304   20593878.2294
   -670264.907 9   -530390.47147  22018812.399    22018812.1134   22018821.0804
  -2669216.750 9  -2067273.56646  23670142.645    23670142.0424   23670160.7654
   -824571.740 9   -646273.03048  20933961.993    20933961.4504   20933971.1604
  -2431669.833 9  -1876976.47747  22031076.351    22031076.1734   22031086.5834
  -1779870.540 9  -1380596.68648  20823409.294    20823408.4344   20823417.2614
  -1431159.077 8  -1103806.45252         0.000           0.0004          0.0005
 80  9  1 21  3  6.0000000  0  7 30 24 17  5  6 10 13               -0.000000166
  -1805207.107 9  -1400574.18749  20593799.637    20593799.7994   20593808.1004
   -667888.260 9   -528538.53647  22019264.667    22019264.3804   22019273.3434
  -2671861.394 9  -2069334.31546  23669639.390    23669638.7904   23669657.5134
   -822511.628 9   -644667.74948  20934354.025    20934353.4784   20934363.1914
  -2433805.392 9  -1878640.54247  22030669.973    22030669.7854   22030680.1954
  -1780149.350 9  -1380813.93748  20823356.224    20823355.3714   20823364.1964
  -1432709.948 8  -1105014.90752         0.000           0.0004          0.0005
 80  9  1 21  3  7.0000000  0  7 30 24 17  5  6 10 13               -0.000000167
  -1805575.017 9  -1400860.86949  20593729.620    20593729.7874   20593738.0944
   -665511.441 9   -526686.46947  22019716.944    22019716.6574   22019725.6274
  -2674505.747 9  -2071394.84346  23669136.169    23669135.5794   23669154.2934
   -820450.988 9   -643062.05948  20934746.152    20934745.6074   20934755.3164
  -2435940.778 9  -1880304.47347  22030263.616    22030263.4264   22030273.8414
  -1780427.422 9  -1381030.61748  20823303.312    20823302.4484   20823311.2894
  -1434260.454 9  -1106223.07352         0.000           0.0004          0.0005
 80  9  1 21  3  8.0000000  0  7 30 24 17  5  6 10 13               -0.000000168
  -1805942.293 9  -1401147.05749  20593659.715    20593659.8764   20593668.1764
   -663134.551 9   -524834.34647  22020169.256    22020168.9644   22020177.9414
  -2677149.913 9  -2073455.22146  23668632.995    23668632.4074   23668651.1124
   -818389.900 9   -641456.02048  20935138.371    20935137.8254   20935147.5354
  -2438076.104 9  -1881968.36047  22029857.297    22029857.1174   22029867.5154
  -1780704.850 9  -1381246.79448  20823250.519    20823249.6644   20823258.4884
  -1435810.689 8  -1107431.03352         0.000           0.0004          0.0005
 80  9  1 21  3  9.0000000  0  7 30 24 17  5  6 10 13               -0.000000169
  -1806308.786 9  -1401432.63849  20593589.978    20593590.1344   20593598.4404
   -660757.407 9   -522982.02947  22020621.633    22020621.3414   22020630.3174
  -2679793.729 9  -2075515.32446  23668129.878    23668129.2864   23668148.0014
   -816328.210 9   -639849.51448  20935530.725    20935530.1744   20935539.8874
  -2440211.188 9  -1883632.06047  22029450.991    22029450.8094   22029461.2044
  -1780981.460 9  -1381462.33148  20823197.879    20823197.0314   20823205.8524
  -1437360.495 8  -1108638.66152         0.000           0.0004          0.0005
 80  9  1 21  3 10.0000000  0  7 30 24 17  5  6 10 13               -0.000000170
  -1806674.531 9  -1401717.63249  20593520.389    20593520.5524   20593528.8534
   -658380.056 9   -521129.54647  22021074.017    22021073.7284   22021082.6954
  -2682437.257 9  -2077575.20046  23667626.815    23667626.2244   23667644.9334
   -814265.964 9   -638242.57348  20935923.144    20935922.5924   20935932.3004
  -2442346.059 9  -1885295.59247  22029044.747    22029044.5804   22029054.9544
  -1781257.301 9  -1381677.26848  20823145.385    20823144.5374   20823153.3574
  -1438909.882 9  -1109845.96352         0.000           0.0004          0.0005
 80  9  1 21  3 11.0000000  0  7 30 24 17  5  6 10 13               -0.000000171
  -1807039.606 9  -1402002.10449  20593450.906    20593451.0804   20593459.3764
   -656002.566 9   -519276.95447  22021526.434    22021526.1444   22021535.1174
  -2685080.554 9  -2079634.90346  23667123.790    23667123.1934   23667141.9034
   -812203.221 9   -636635.24448  20936315.689    20936315.1304   20936324.8494
  -2444480.822 9  -1886959.03547  22028638.493    22028638.3114   22028648.6964
  -1781532.444 9  -1381891.66448  20823093.040    20823092.1934   20823101.0134
  -1440458.961 8  -1111053.02652         0.000           0.0004          0.0005
 80  9  1 21  3 12.0000000  0  7 30 24 17  5  6 10 13               -0.000000172
  -1807404.082 9  -1402286.11149  20593381.552    20593381.7194   20593390.0234
   -653625.008 9   -517424.31747  22021978.883    22021978.5824   22021987.5674
  -2687723.698 9  -2081694.48446  23666620.823    23666620.2214   23666638.9344
   -810140.056 9   -635027.58348  20936708.312    20936707.7594   20936717.4674
  -2446615.521 9  -1888622.43247  22028232.284    22028232.1024   22028242.4864
  -1781806.953 9  -1382105.56348  20823040.799    20823039.9404   20823048.7684
  -1442007.751 8  -1112259.86452         0.000           0.0004          0.0005
 80  9  1 21  3 13.0000000  0  7 30 24 17  5  6 10 13               -0.000000172
  -1807767.715 9  -1402569.46049  20593312.363    20593312.5264   20593320.8314
   -651247.117 9   -515571.41447  22022431.375    22022431.0884   22022440.0644
  -2690366.447 9  -2083753.75746  23666117.897    23666117.2994   23666136.0094
   -808076.231 9   -633419.41248  20937101.023    20937100.4674   20937110.1824
  -2448749.913 9  -1890285.58747  22027826.101    22027825.9244   22027836.3014
  -1782080.580 9  -1382318.77848  20822988.729    20822987.8664   20822996.6964
  -1443556.059 8  -1113466.32752         0.000           0.0004          0.0005
 80  9  1 21  3 14.0000000  0  7 30 24 17  5  6 10 13               -0.000000173
  -1808130.660 9  -1402852.27449  20593243.285    20593243.4544   20593251.7544
   -648869.082 9   -513718.40247  22022883.904    22022883.6154   22022892.5874
  -2693008.945 9  -2085812.83946  23665615.039    23665614.4374   23665633.1504
   -806011.909 9   -631810.85348  20937493.853    20937493.2954   20937503.0074
  -2450884.190 9  -1891948.65747  22027419.970    22027419.7854   22027430.1734
  -1782353.495 9  -1382531.43548  20822936.786    20822935.9214   20822944.7554
  -1445104.016 8  -1114672.52142         0.000           0.0004   25420340.6684
 80  9  1 21  3 15.0000000  0  7 30 24 17  5  6 10 13               -0.000000174
  -1808492.979 9  -1403134.60049  20593174.346    20593174.5124   20593182.8184
   -646490.943 9   -511865.31247  22023336.440    22023336.1514   22023345.1264
  -2695651.262 9  -2087871.77246  23665112.198    23665111.5864   23665130.3124
   -803947.122 9   -630201.93148  20937886.770    20937886.2134   20937895.9264
  -2453018.376 9  -1893611.65547  22027013.842    22027013.6664   22027024.0454
  -1782625.752 9  -1382743.58148  20822885.003    20822884.1274   20822892.9674
  -1446651.681 8  -1115878.48143         0.000           0.0004   25420045.9864
 80  9  1 21  3 16.0000000  0  7 30 24 17  5  6 10 13               -0.000000174
  -1808854.492 9  -1403416.29849  20593105.533    20593105.7004   20593114.0114
   -644112.529 9   -510012.00947  22023789.053    22023788.7684   22023797.7394
  -2698293.209 9  -2089930.42546  23664609.436    23664608.8144   23664627.5524
   -801881.738 9   -628592.54548  20938279.811    20938279.2514   20938288.9664
  -2455152.307 9  -1895274.45447  22026607.760    22026607.5774   22026617.9634
  -1782897.178 9  -1382955.08048  20822833.355    20822832.4834   20822841.3134
  -1448198.877 8  -1117084.08043         0.000           0.0004   25419753.2184
 80  9  1 21  3 17.0000000  0  7 30 24 17  5  6 10 13               -0.000000175
  -1809215.180 9  -1403697.35349  20593036.899    20593037.0774   20593045.3734
   -641733.828 9   -508158.46647  22024241.717    22024241.4354   22024250.3984
  -2700934.757 9  -2091988.76546  23664106.774    23664106.1514   23664124.8884
   -799815.689 9   -626982.64048  20938672.968    20938672.4094   20938682.1214
  -2457285.965 9  -1896937.03647  22026201.737    22026201.5684   22026211.9404
  -1783167.742 9  -1383165.90848  20822781.854    20822780.9794   20822789.8144
  -1449745.569 8  -1118289.28943         0.000           0.0004   25419458.9314
 80  9  1 21  3 18.0000000  0  7 30 24 17  5  6 10 13               -0.000000175
  -1809575.452 9  -1403978.08349  20592968.347    20592968.5154   20592976.8214
   -639355.245 9   -506305.02847  22024694.343    22024694.0524   22024703.0334
  -2703576.345 9  -2094047.13546  23663604.061    23663603.4394   23663622.1764
   -797749.404 9   -625372.55148  20939066.174    20939065.6164   20939075.3334
  -2459419.771 9  -1898599.73547  22025795.698    22025795.5194   22025805.8924
  -1783437.867 9  -1383376.39148  20822730.450    20822729.5644   20822738.4074
  -1451292.206 8  -1119494.45143         0.000           0.0004   25419163.3864
 80  9  1 21  3 19.0000000  0  7 30 24 17  5  6 10 13               -0.000000176
  -1809934.888 9  -1404258.16249  20592899.939    20592900.1124   20592908.4284
   -636976.341 9   -504451.33547  22025147.023    22025146.7284   22025155.7114
  -2706217.518 9  -2096105.17946  23663101.473    23663100.8474   23663119.5784
   -795682.475 9   -623761.96248  20939459.495    20939458.9344   20939468.6564
  -2461553.277 9  -1900262.20547  22025389.699    22025389.5304   22025399.8994
  -1783707.110 9  -1383586.19148  20822679.234    20822678.3504   20822687.1814
  -1452838.345 8  -1120699.22444         0.000           0.0004   25418867.9024
 80  9  1 21  3 20.0000000  0  7 30 24 17  5  6 10 13               -0.000000176
  -1810293.739 9  -1404537.78549  20592831.650    20592831.8194   20592840.1344
   -634597.371 9   -502597.59347  22025599.738    22025599.4554   22025608.4204
  -2708858.543 9  -2098163.11346  23662598.878    23662598.2644   23662616.9744
   -793615.121 9   -622151.04148  20939852.918    20939852.3524   20939862.0844
  -2463686.754 9  -1901924.65347  22024983.708    22024983.5314   22024993.9054
  -1783975.730 9  -1383795.50548  20822628.092    20822627.2054   20822636.0464
  -1454384.225 8  -1121903.79844         0.000           0.0004   25418573.4814
 80  9  1 21  3 21.0000000  0  7 30 24 17  5  6 10 13               -0.000000177
  -1810651.988 9  -1404816.93849  20592763.467    20592763.6464   20592771.9494
   -632218.321 9   -500743.79047  22026052.452    22026052.1714   22026061.1324
  -2711499.391 9  -2100220.90846  23662096.325    23662095.7134   23662114.4114
   -791547.338 9   -620539.78448  20940246.394    20940245.8294   20940255.5634
  -2465820.178 9  -1903587.05647  22024577.729    22024577.5624   22024587.9144
  -1784243.717 9  -1384004.32648  20822577.118    20822576.2314   20822585.0704
  -1455929.833 8  -1123108.15744         0.000           0.0004   25418278.5484
 80  9  1 21  3 22.0000000  0  7 30 24 17  5  6 10 13               -0.000000177
  -1811009.378 9  -1405095.42749  20592695.454    20592695.6334   20592703.9464
   -629838.904 9   -498889.70447  22026505.238    22026504.9584   22026513.9074
  -2714139.797 9  -2102278.35946  23661593.866    23661593.2604   23661611.9514
   -789478.851 9   -618927.97848  20940640.021    20940639.4574   20940649.1934
  -2467953.293 9  -1905249.21947  22024171.816    22024171.6534   22024182.0054
  -1784510.799 9  -1384212.44248  20822526.271    20822525.3864   20822534.2234
  -1457474.907 8  -1124312.10344         0.000           0.0004   25417985.7074
 80  9  1 21  3 23.0000000  0  7 30 24 17  5  6 10 13               -0.000000178
  -1811366.200 9  -1405373.46949  20592627.563    20592627.7414   20592636.0474
   -627459.436 9   -497035.57047  22026958.025    22026957.7444   22026966.7064
  -2716780.063 9  -2104335.69746  23661091.427    23661090.8284   23661109.5234
   -787409.951 9   -617315.85148  20941033.727    20941033.1644   20941042.8994
  -2470086.388 9  -1906911.36447  22023765.897    22023765.7344   22023776.0844
  -1784777.280 9  -1384420.09048  20822475.556    20822474.6714   20822483.5124
  -1459019.738 8  -1125515.86244         0.000           0.0004   25417692.0524
 80  9  1 21  3 24.0000000  0  7 30 24 17  5  6 10 13               -0.000000178
  -1811722.251 9  -1405650.91149  20592559.801    20592559.9784   20592568.2964
   -625079.706 9   -495181.23747  22027410.876    22027410.5914   22027419.5554
  -2719419.996 9  -2106392.77946  23660589.063    23660588.4854   23660607.1574
   -785340.444 9   -615703.25248  20941427.540    20941426.9814   20941436.7034
  -2472219.271 9  -1908573.34847  22023360.019    22023359.8454   22023370.2014
  -1785042.962 9  -1384627.11448  20822424.988    20822424.1064   20822432.9394
  -1460564.14318  -1126719.28644         0.000           0.0005   25417398.1404
 80  9  1 21  3 25.0000000  0  7 30 24 17  5  6 10 13               -0.000000178
  -1812077.575 9  -1405927.78649  20592492.175    20592492.3544   20592500.6694
   -622699.741 9   -493326.72047  22027863.790    22027863.5074   22027872.4764
  -2722059.621 9  -2108449.61546  23660086.739    23660086.1734   23660104.8524
   -783270.378 9   -614090.21648  20941821.450    20941820.8894   20941830.6224
  -2474351.989 9  -1910235.20047  22022954.187    22022954.0164   22022964.3694
  -1785307.894 9  -1384833.55448  20822374.593    20822373.7214   20822382.5464
  -1462108.15218  -1127922.39844         0.000           0.0005   25417104.6324
 80  9  1 21  3 26.0000000  0  7 30 24 17  5  6 10 13               -0.000000179
  -1812432.283 9  -1406204.18049  20592424.700    20592424.8714   20592433.1874
   -620319.686 9   -491472.13147  22028316.686    22028316.3944   22028325.3744
  -2724699.062 9  -2110506.31146  23659584.444    23659583.8814   23659602.5574
   -781199.858 9   -612476.82648  20942215.480    20942214.9264   20942224.6514
  -2476484.642 9  -1911897.00447  22022548.350    22022548.1774   22022558.5334
  -1785572.185 9  -1385039.49248  20822324.282    20822323.4064   20822332.2394
  -1463651.87318  -1129125.29044         0.000           0.0005   25416810.7384
 80  9  1 21  3 27.0000000  0  7 30 24 17  5  6 10 13               -0.000000179
  -1812786.440 9  -1406480.14749  20592357.293    20592357.4784   20592365.7874
   -617939.609 9   -489617.52747  22028769.603    22028769.3104   22028778.2944
  -2727338.388 9  -2112562.92146  23659082.212    23659081.6684   23659100.3294
   -779128.960 9   -610863.14248  20942609.559    20942609.0034   20942618.7294
  -2478617.306 9  -1913558.81647  22022142.508    22022142.3384   22022152.6834
  -1785835.910 9  -1385244.98948  20822274.106    20822273.2404   20822282.0724
  -1465195.40418  -1130328.03644         0.000           0.0005   25416516.7354
 80  9  1 21  3 28.0000000  0  7 30 24 17  5  6 10 13               -0.000000179
  -1813139.626 9  -1406755.35749  20592290.082    20592290.2744   20592298.5844
   -615559.065 9   -487762.56147  22029222.619    22029222.3274   22029231.3154
  -2729977.164 9  -2114619.10146  23658580.059    23658579.5264   23658598.1824
   -777057.257 9   -609248.83248  20943003.784    20943003.2304   20943012.9564
  -2480749.553 9  -1915220.30347  22021736.760    22021736.5994   22021746.9354
  -1786098.654 9  -1385449.72248  20822224.080    20822223.2254   20822232.0434
  -1466738.32318  -1131530.30044         0.000           0.0005   25416222.5794
 80  9  1 21  3 29.0000000  0  7 30 24 17  5  6 10 13               -0.000000179
  -1813492.335 9  -1407030.19249  20592222.964    20592223.1414   20592231.4644
   -613178.568 9   -485907.63047  22029675.599    22029675.3134   22029684.2964
  -2732615.891 9  -2116675.24046  23658077.909    23658077.3744   23658096.0214
   -774985.244 9   -607634.28248  20943398.066    20943397.5174   20943407.2344
  -2482881.874 9  -1916881.84147  22021330.988    22021330.8204   22021341.1674
  -1786360.903 9  -1385654.07048  20822174.168    20822173.3194   20822182.1344
  -1468281.09718  -1132732.45544         0.000           0.0005   25415929.1524
 80  9  1 21  3 30.0000000  0  7 30 24 17  5  6 10 13               -0.000000179
  -1813844.313 9  -1407304.46149  20592155.971    20592156.1574   20592164.4684
   -610797.862 9   -484052.52947  22030128.625    22030128.3394   22030137.3234
  -2735254.317 9  -2118731.14846  23657575.817    23657575.2914   23657593.9294
   -772912.660 9   -606019.28248  20943792.498    20943791.9444   20943801.6684
  -2485014.016 9  -1918543.24347  22020925.265    22020925.0914   22020935.4374
  -1786622.406 9  -1385857.83748  20822124.430    20822123.5744   20822132.4064
  -1469823.49418  -1133934.31644         0.000           0.0005   25415634.9884
 80  9  1 21  3 31.0000000  0  7 30 24 17  5  6 10 13               -0.000000179
  -1814195.643 9  -1407578.22549  20592089.125    20592089.3034   20592097.6254
   -608417.002 9   -482197.31847  22030581.699    22030581.4164   22030590.4004
  -2737892.535 9  -2120786.89046  23657073.777    23657073.2494   23657091.8854
   -770839.591 9   -604403.90748  20944186.978    20944186.4214   20944196.1504
  -2487146.056 9  -1920204.56847  22020519.561    22020519.3924   22020529.7374
  -1786883.269 9  -1386061.10348  20822074.788    20822073.9284   20822082.7584
  -1471365.59618  -1135135.94644         0.000           0.0005   25415341.8414
 80  9  1 21  3 32.0000000  0  7 30 24 17  5  6 10 13               -0.000000179
  -1814546.190 9  -1407851.37949  20592022.408    20592022.5904   20592030.9104
   -606035.877 9   -480341.90047  22031034.826    22031034.5424   22031043.5274
  -2740530.380 9  -2122842.34246  23656571.810    23656571.2874   23656589.9224
   -768765.904 9   -602788.04848  20944581.600    20944581.0484   20944590.7744
  -2489277.860 9  -1921865.71247  22020113.886    22020113.7134   22020124.0594
  -1787143.333 9  -1386263.74948  20822025.276    20822024.4224   20822033.2454
  -1472907.25118  -1136337.22944         0.000           0.0005   25415048.5524
 80  9  1 21  3 33.0000000  0  7 30 24 17  5  6 10 13               -0.000000179
  -1814896.176 9  -1408124.09549  20591955.802    20591955.9964   20591964.3064
   -603654.714 9   -478486.44847  22031487.944    22031487.6684   22031496.6574
  -2743168.084 9  -2124897.68346  23656069.879    23656069.3554   23656087.9854
   -766691.801 9   -601171.86748  20944976.276    20944975.7254   20944985.4464
  -2491409.649 9  -1923526.84247  22019708.220    22019708.0444   22019718.3984
  -1787402.820 9  -1386465.94448  20821975.910    20821975.0574   20821983.8864
  -1474448.70518  -1137538.36045         0.000           0.0005   25414755.4964
 80  9  1 21  3 34.0000000  0  7 30 24 17  5  6 10 13               -0.000000179
  -1815245.454 9  -1408396.25949  20591889.348    20591889.5324   20591897.8634
   -601273.361 9   -476630.85147  22031941.090    22031940.8154   22031949.7964
  -2745805.524 9  -2126952.82046  23655567.977    23655567.4424   23655586.0804
   -764617.162 9   -599555.26948  20945371.090    20945370.5324   20945380.2604
  -2493541.283 9  -1925187.85347  22019302.584    22019302.4044   22019312.7534
  -1787661.600 9  -1386667.59048  20821926.656    20821925.8014   20821934.6274
  -1475989.78918  -1138739.19245         0.000           0.0005   25414462.4304
 80  9  1 21  3 35.0000000  0  7 30 24 17  5  6 10 13               -0.000000179
  -1815594.023 9  -1408667.87149  20591823.017    20591823.2074   20591831.5224
   -598891.815 9   -474775.09647  22032394.295    22032394.0214   22032403.0024
  -2748442.674 9  -2129007.73146  23655066.149    23655065.6094   23655084.2444
   -762541.973 9   -597938.24148  20945765.993    20945765.4384   20945775.1624
  -2495672.766 9  -1926848.74447  22018896.954    22018896.7754   22018907.1224
  -1787919.667 9  -1386868.67948  20821877.545    20821876.6854   20821885.5184
  -1477530.51918  -1139939.75945         0.000           0.0005   25414168.7004
 80  9  1 21  3 36.0000000  0  7 30 24 17  5  6 10 13               -0.000000179
  -1815941.857 9  -1408938.91049  20591756.825    20591757.0234   20591765.3444
   -596510.076 9   -472919.19747  22032847.512    22032847.2374   22032856.2184
  -2751079.516 9  -2131062.40246  23654564.368    23654563.8274   23654582.4654
   -760466.206 9   -596320.76748  20946160.979    20946160.4154   20946170.1434
  -2497804.054 9  -1928509.48247  22018491.390    22018491.2164   22018501.5654
  -1788176.994 9  -1387069.19448  20821828.582    20821827.7194   20821836.5604
  -1479070.89818  -1141140.04645         0.000           0.0005   25413874.6724
 80  9  1 21  3 37.0000000  0  7 30 24 17  5  6 10 13               -0.000000178
  -1816289.033 9  -1409209.43749  20591690.765    20591690.9594   20591699.2764
   -594128.176 9   -471063.17347  22033300.784    22033300.5044   22033309.4794
  -2753716.117 9  -2133116.88246  23654062.610    23654062.0644   23654080.7104
   -758389.952 9   -594702.90748  20946556.102    20946555.5414   20946565.2674
  -2499935.239 9  -1930170.14147  22018085.839    22018085.6674   22018096.0154
  -1788433.678 9  -1387269.20748  20821779.727    20821778.8734   20821787.7014
  -1480610.95018  -1142340.07745         0.000           0.0005   25413581.5034
 80  9  1 21  3 38.0000000  0  7 30 24 17  5  6 10 13               -0.000000178
  -1816635.589 9  -1409479.47849  20591624.800    20591625.0054   20591633.3214
   -591746.159 9   -469207.05747  22033754.080    22033753.8004   22033762.7764
  -2756352.514 9  -2135171.21046  23653560.929    23653560.3824   23653579.0234
   -756313.231 9   -593084.68648  20946951.279    20946950.7184   20946960.4464
  -2502066.350 9  -1931830.74147  22017680.302    22017680.1274   22017690.4654
  -1788689.724 9  -1387468.71948  20821731.020    20821730.1664   20821739.0024
  -1482150.73618  -1143539.90245         0.000           0.0005   25413289.6524
 80  9  1 21  3 39.0000000  0  7 30 24 17  5  6 10 13               -0.000000178
  -1816981.561 9  -1409749.06549  20591558.956    20591559.1604   20591567.4774
   -589364.051 9   -467350.87247  22034207.359    22034207.0764   22034216.0714
  -2758988.773 9  -2137225.42546  23653059.273    23653058.7194   23653077.3664
   -754236.086 9   -591466.13348  20947346.545    20947345.9844   20947355.7114
  -2504197.418 9  -1933491.30647  22017274.765    22017274.5884   22017284.9354
  -1788945.171 9  -1387667.76848  20821682.389    20821681.5304   20821690.3714
  -1483690.29118  -1144739.54945         0.000           0.0005   25412996.5374
 80  9  1 21  3 40.0000000  0  7 30 24 17  5  6 10 13               -0.000000178
  -1817326.837 9  -1410018.11249  20591493.259    20591493.4664   20591501.7804
   -586981.753 9   -465494.53447  22034660.705    22034660.4324   22034669.4024
  -2761624.732 9  -2139279.40846  23652557.644    23652557.0864   23652575.7304
   -752158.416 9   -589847.17248  20947741.926    20947741.3604   20947751.0914
  -2506328.341 9  -1935151.76147  22016869.260    22016869.0794   22016879.4284
  -1789199.932 9  -1387866.28248  20821633.922    20821633.0634   20821641.9034
  -1485229.49918  -1145938.92545         0.000           0.0005   25412703.1084
 80  9  1 21  3 41.0000000  0  7 30 24 17  5  6 10 13               -0.000000177
  -1817671.354 9  -1410286.56749  20591427.690    20591427.8914   20591436.2094
   -584599.225 9   -463638.02447  22035114.090    22035113.8184   22035122.8024
  -2764260.362 9  -2141333.13546  23652056.118    23652055.5444   23652074.2084
   -750080.137 9   -588227.73848  20948137.416    20948136.8564   20948146.5814
  -2508459.053 9  -1936812.05847  22016463.809    22016463.6304   22016473.9764
  -1789453.915 9  -1388064.19248  20821585.563    20821584.7074   20821593.5474
  -1486768.30418  -1147137.99145         0.000           0.0005   25412410.3864
 80  9  1 21  3 42.0000000  0  7 30 24 17  5  6 10 13               -0.000000177
  -1818015.282 9  -1410554.56549  20591362.248    20591362.4464   20591370.7654
   -582216.617 9   -461781.44947  22035567.487    22035567.2144   22035576.1954
  -2766895.854 9  -2143386.75646  23651554.589    23651554.0104   23651572.6664
   -748001.436 9   -586607.97548  20948532.984    20948532.4234   20948542.1404
  -2510589.742 9  -1938472.32347  22016058.351    22016058.1704   22016068.5204
  -1789707.303 9  -1388261.63748  20821537.353    20821536.5004   20821545.3364
  -1488306.869 8  -1148336.86145  25412106.627    25412105.2964   25412117.5064
 80  9  1 21  3 43.0000000  0  7 30 24 17  5  6 10 13               -0.000000176
  -1818358.482 9  -1410821.99549  20591296.951    20591297.1624   20591305.4724
   -579833.791 9   -459924.69947  22036020.912    22036020.6404   22036029.6304
  -2769531.017 9  -2145440.12146  23651053.138    23651052.5574   23651071.2104
   -745922.184 9   -584987.78248  20948928.642    20948928.0794   20948937.8034
  -2512720.234 9  -1940132.44547  22015652.926    22015652.7514   22015663.0924
  -1789959.985 9  -1388458.53248  20821489.259    20821488.4144   20821497.2414
  -1489845.102 8  -1149535.48445  25411813.643    25411812.4284   25411825.9924
 80  9  1 21  3 44.0000000  0  7 30 24 17  5  6 10 13               -0.000000176
  -1818700.923 9  -1411088.83049  20591231.781    20591231.9874   20591240.3064
   -577450.738 9   -458067.77447  22036474.402    22036474.1364   22036483.1074
  -2772165.843 9  -2147493.22046  23650551.751    23650551.1844   23650569.8074
   -743842.333 9   -583367.12248  20949324.447    20949323.8754   20949333.6104
  -2514850.527 9  -1941792.40847  22015247.531    22015247.3514   22015257.6984
  -1790211.900 9  -1388654.82948  20821441.337    20821440.4974   20821449.3314
  -1491382.923 8  -1150733.77845  25411521.553    25411519.9814   25411532.9904
 80  9  1 21  3 45.0000000  0  7 30 24 17  5  6 10 13               -0.000000176
  -1819042.896 9  -1411355.30349  20591166.703    20591166.9124   20591175.2314
   -575067.703 9   -456210.86347  22036927.877    22036927.6124   22036936.5844
  -2774800.627 9  -2149546.28846  23650050.339    23650049.7714   23650068.3884
   -741762.175 9   -581746.22348  20949720.298    20949719.7214   20949729.4534
  -2516980.906 9  -1943452.43847  22014842.145    22014841.9724   22014852.3114
  -1790463.344 9  -1388850.75648  20821393.458    20821392.6204   20821401.4494
  -1492920.638 8  -1151931.98745  25411228.587    25411228.2834   25411239.6124
 80  9  1 21  3 46.0000000  0  7 30 24 17  5  6 10 13               -0.000000175
  -1819384.043 9  -1411621.13149  20591101.797    20591102.0074   20591110.3124
   -572684.336 9   -454353.69847  22037381.404    22037381.1294   22037390.1114
  -2777434.987 9  -2151599.02746  23649549.041    23649548.4684   23649567.0864
   -739681.366 9   -580124.81648  20950116.247    20950115.6764   20950125.4054
  -2519111.007 9  -1945112.25247  22014436.792    22014436.6134   22014446.9554
  -1790713.993 9  -1389046.06648  20821345.781    20821344.9434   20821353.7804
  -1494457.888 8  -1153129.83545  25410936.008    25410936.5554   25410948.4684
 80  9  1 21  3 47.0000000  0  7 30 24 17  5  6 10 13               -0.000000174
  -1819724.692 9  -1411886.57049  20591036.962    20591037.1624   20591045.4874
   -570301.000 9   -452496.55747  22037834.948    22037834.6744   22037843.6524
  -2780069.248 9  -2153651.68346  23649047.752    23649047.1764   23649065.7874
   -737600.211 9   -578503.14048  20950512.305    20950511.7324   20950521.4634
  -2521241.166 9  -1946772.10947  22014031.428    22014031.2434   22014041.5924
  -1790964.131 9  -1389240.97648  20821298.158    20821297.3264   20821306.1524
  -1495995.020 8  -1154327.59445  25410644.171    25410643.9874   25410656.0364
 80  9  1 21  3 48.0000000  0  7 30 24 17  5  6 10 13               -0.000000174
  -1820064.619 9  -1412151.44849  20590972.290    20590972.4964   20590980.8184
   -567917.447 9   -450639.24047  22038288.527    22038288.2514   22038297.2354
  -2782703.203 9  -2155704.10846  23648546.551    23648545.9624   23648564.5704
   -735518.486 9   -576881.02048  20950908.446    20950907.8684   20950917.5984
  -2523371.149 9  -1948431.83647  22013626.103    22013625.9244   22013636.2544
  -1791213.542 9  -1389435.32048  20821250.712    20821249.8794   20821258.7164
  -1497531.745 8  -1155525.04045  25410351.947    25410351.3304   25410363.7154
 80  9  1 21  3 49.0000000  0  7 30 24 17  5  6 10 13               -0.000000173
  -1820403.794 9  -1412415.74149  20590907.732    20590907.9414   20590916.2484
   -565533.624 9   -448781.71547  22038742.158    22038741.8864   22038750.8714
  -2785336.788 9  -2157756.24846  23648045.378    23648044.7894   23648063.3864
   -733436.179 9   -575258.45048  20951304.693    20951304.1144   20951313.8504
  -2525500.936 9  -1950091.40447  22013220.830    22013220.6454   22013230.9764
  -1791462.218 9  -1389629.09448  20821203.389    20821202.5614   20821211.3884
  -1499068.121 8  -1156722.20745  25410059.619    25410058.9124   25410071.1744
 80  9  1 21  3 50.0000000  0  7 30 24 17  5  6 10 13               -0.000000172
  -1820742.423 9  -1412679.60649  20590843.295    20590843.5064   20590851.8144
   -563149.769 9   -446924.17047  22039195.803    22039195.5324   22039204.5174
  -2787970.263 9  -2159808.30046  23647544.250    23647543.6764   23647562.2494
   -731353.485 9   -573635.57348  20951701.021    20951700.4394   20951710.1744
  -2527630.732 9  -1951750.97947  22012815.528    22012815.3454   22012825.6794
  -1791710.346 9  -1389822.43748  20821156.148    20821155.3144   20821164.1504
  -1500604.266 8  -1157919.19545  25409767.353    25409766.8844   25409779.1864
 80  9  1 21  3 51.0000000  0  7 30 24 17  5  6 10 13               -0.000000172
  -1821080.490 9  -1412943.03349  20590778.976    20590779.1904   20590787.4954
   -560765.858 9   -445066.57947  22039649.425    22039649.1394   22039658.1404
  -2790603.544 9  -2161860.20046  23647043.165    23647042.5934   23647061.1634
   -729270.375 9   -572012.37048  20952097.435    20952096.8554   20952106.5904
  -2529760.515 9  -1953410.54547  22012410.263    22012410.0764   22012420.4134
  -1791957.907 9  -1390015.34048  20821109.054    20821108.2174   20821117.0504
  -1502140.214 8  -1159116.02945  25409475.086    25409474.7974   25409486.7384
 80  9  1 21  3 52.0000000  0  7 30 24 17  5  6 10 13               -0.000000171
  -1821417.757 9  -1413205.83949  20590714.784    20590714.9954   20590723.2934
   -558381.610 9   -443208.71947  22040103.127    22040102.8444   22040111.8374
  -2793236.435 9  -2163911.79646  23646542.129    23646541.5504   23646560.1064
   -727186.638 9   -570388.68248  20952493.943    20952493.3614   20952503.0984
  -2531890.053 9  -1955069.92547  22012005.017    22012004.8264   22012015.1554
  -1792204.688 9  -1390207.63448  20821062.086    20821061.2494   20821070.0884
  -1503675.725 8  -1160312.52645  25409182.905    25409182.9494   25409194.3504
 80  9  1 21  3 53.0000000  0  7 30 24 17  5  6 10 13               -0.000000170
  -1821754.380 9  -1413468.14249  20590650.728    20590650.9394   20590659.2504
   -555997.266 9   -441350.79047  22040556.857    22040556.5704   22040565.5714
  -2795869.089 9  -2165963.20646  23646041.169    23646040.5964   23646059.1284
   -725102.414 9   -568764.61848  20952890.570    20952889.9864   20952899.7254
  -2534019.511 9  -1956729.23947  22011599.780    22011599.6064   22011609.9104
  -1792450.828 9  -1390399.43148  20821015.260    20821014.4224   20821023.2554
  -1505210.945 8  -1161508.79645  25408890.786    25408890.1714   25408902.4014
 80  9  1 21  3 54.0000000  0  7 30 24 17  5  6 10 13               -0.000000169
  -1822090.272 9  -1413729.87649  20590586.818    20590587.0334   20590595.3454
   -553612.669 9   -439492.66347  22041010.643    22041010.3664   22041019.3554
  -2798501.426 9  -2168014.37346  23645540.256    23645539.6744   23645558.2064
   -723017.624 9   -567140.10848  20953287.298    20953286.7114   20953296.4554
  -2536148.790 9  -1958388.41147  22011194.613    22011194.4374   22011204.7474
  -1792696.249 9  -1390590.66848  20820968.538    20820967.7044   20820976.5334
  -1506745.781 8  -1162704.76645  25408598.743    25408598.4434   25408610.5264
 80  9  1 21  3 55.0000000  0  7 30 24 17  5  6 10 13               -0.000000168
  -1822425.670 9  -1413991.22449  20590522.994    20590523.2074   20590531.5164
   -551228.074 9   -437634.54047  22041464.427    22041464.1424   22041473.1414
  -2801133.669 9  -2170065.45946  23645039.346    23645038.7614   23645057.2804
   -720932.515 9   -565515.35048  20953684.079    20953683.4964   20953693.2344
  -2538278.142 9  -1960047.64047  22010789.404    22010789.2284   22010799.5344
  -1792941.191 9  -1390781.53148  20820921.940    20820921.0964   20820929.9334
  -1508280.475 8  -1163900.63045  25408306.709    25408305.8764   25408318.6374
 80  9  1 21  3 56.0000000  0  7 30 24 17  5  6 10 13               -0.000000167
  -1822760.322 9  -1414251.99049  20590459.309    20590459.5124   20590467.8334
   -548843.262 9   -435776.24847  22041918.234    22041917.9484   22041926.9444
  -2803765.579 9  -2172116.28646  23644538.526    23644537.9284   23644556.4434
   -718846.829 9   -563890.14748  20954080.977    20954080.3924   20954090.1344
  -2540407.311 9  -1961706.73147  22010384.240    22010384.0584   22010394.3674
  -1793185.391 9  -1390971.81748  20820875.466    20820874.6294   20820883.4664
  -1509814.792 8  -1165096.19445  25408014.753    25408013.0394   25408026.8114
 80  9  1 21  3 57.0000000  0  7 30 24 17  5  6 10 13               -0.000000166
  -1823094.397 9  -1414512.30949  20590395.751    20590395.9654   20590404.2734
   -546458.366 9   -433917.88747  22042372.055    22042371.7734   22042380.7754
  -2806397.325 9  -2174166.98546  23644037.727    23644037.1154   23644055.6374
   -716760.734 9   -562264.61948  20954477.949    20954477.3674   20954487.1034
  -2542536.449 9  -1963365.79247  22009979.067    22009978.8794   22009989.1844
  -1793429.015 9  -1391161.65248  20820829.116    20820828.2714   20820837.1174
  -1511348.833 8  -1166291.54045  25407722.845    25407721.8804   25407735.0364
 80  9  1 21  3 58.0000000  0  7 30 24 17  5  6 10 13               -0.000000165
  -1823427.773 9  -1414772.08349  20590332.315    20590332.5294   20590340.8404
   -544073.269 9   -432059.37347  22042825.940    22042825.6594   22042834.6604
  -2809028.782 9  -2176217.45646  23643536.953    23643536.3314   23643554.8514
   -714674.121 9   -560638.69048  20954875.017    20954874.4324   20954884.1684
  -2544665.458 9  -1965024.75847  22009573.942    22009573.7594   22009584.0534
  -1793671.964 9  -1391350.96248  20820782.872    20820782.0334   20820790.8724
  -1512882.597 8  -1167486.66645  25407430.957    25407430.2424   25407443.2334
 80  9  1 21  3 59.0000000  0  7 30 24 17  5  6 10 13               -0.000000164
  -1823760.493 9  -1415031.34449  20590269.002    20590269.2134   20590277.5244
   -541688.027 9   -430200.74547  22043279.831    22043279.5554   22043288.5354
  -2811660.009 9  -2178267.74746  23643036.249    23643035.6184   23643054.1484
   -712587.025 9   -559012.38348  20955272.177    20955271.5974   20955281.3374
  -2546794.368 9  -1966683.64347  22009168.821    22009168.6304   22009178.9374
  -1793914.260 9  -1391539.76348  20820736.755    20820735.9154   20820744.7504
  -1514415.981 8  -1168681.50345  25407139.173    25407138.8144   25407151.4674
 80  9  1 21  4  0.0000000  0  7 30 24 17  5  6 10 13               -0.000000162
  -1824092.492 9  -1415290.04349  20590205.806    20590206.0074   20590214.3294
   -539302.574 9   -428341.95247  22043733.768    22043733.4814   22043742.4784
  -2814290.929 9  -2180317.80246  23642535.595    23642534.9454   23642553.4874
   -710499.387 9   -557385.65448  20955669.463    20955668.8824   20955678.6184
  -2548923.112 9  -1968342.39847  22008763.729    22008763.5404   22008773.8324
  -1794155.837 9  -1391728.00648  20820690.781    20820689.9364   20820698.7774
  -1515949.036 8  -1169876.08345  25406847.441    25406846.8164   25406859.8204
 80  9  1 21  4  1.0000000  0  7 30 24 17  5  6 10 13               -0.000000161
  -1824424.015 9  -1415548.37449  20590142.735    20590142.9414   20590151.2494
   -536917.132 9   -426483.16947  22044187.690    22044187.4074   22044196.3904
  -2816921.779 9  -2182367.80546  23642034.959    23642034.3024   23642052.8444
   -708411.441 9   -555758.68648  20956066.791    20956066.2074   20956075.9454
  -2551051.940 9  -1970001.22147  22008358.610    22008358.4114   22008368.7174
  -1794396.962 9  -1391915.89648  20820644.907    20820644.0784   20820652.9054
  -1517481.940 8  -1171070.54045  25406555.728    25406555.4784   25406568.2004
 80  9  1 21  4  2.0000000  0  7 30 24 17  5  6 10 13               -0.000000160
  -1824754.804 9  -1415806.13249  20590079.787    20590079.9944   20590088.3014
   -534531.474 9   -424624.21447  22044641.659    22044641.3724   22044650.3664
  -2819552.324 9  -2184417.56446  23641534.373    23641533.6994   23641552.2624
   -706322.936 9   -554131.28448  20956464.219    20956463.6324   20956473.3794
  -2553180.596 9  -1971659.91147  22007953.566    22007953.3614   22007963.6604
  -1794637.336 9  -1392103.20148  20820599.169    20820598.3304   20820607.1734
  -1519014.443 8  -1172264.69145  25406264.105    25406264.5594   25406276.6384
 80  9  1 21  4  3.0000000  0  7 30 24 17  5  6 10 13               -0.000000159
  -1825084.952 9  -1416063.39049  20590016.949    20590017.1584   20590025.4614
   -532145.674 9   -422765.14447  22045095.687    22045095.3984   22045104.3904
  -2822182.650 9  -2186467.15546  23641033.833    23641033.1454   23641051.7194
   -704233.952 9   -552503.50748  20956861.738    20956861.1574   20956870.8914
  -2555309.163 9  -1973318.52847  22007548.498    22007548.2924   22007558.5914
  -1794877.070 9  -1392290.00448  20820553.541    20820552.7014   20820561.5394
  -1520546.638 8  -1173458.59745  25405972.543    25405972.7114   25405985.1394
 80  9  1 21  4  4.0000000  0  7 30 24 17  5  6 10 13               -0.000000157
  -1825414.435 9  -1416320.12749  20589954.265    20589954.4714   20589962.7734
   -529759.692 9   -420905.94047  22045549.724    22045549.4344   22045558.4344
  -2824812.708 9  -2188516.53646  23640533.337    23640532.6324   23640551.2344
   -702144.481 9   -550875.35148  20957259.342    20957258.7614   20957268.5034
  -2557437.624 9  -1974977.06247  22007143.464    22007143.2624   22007153.5554
  -1795116.157 9  -1392476.30448  20820508.022    20820507.1834   20820516.0194
  -1522078.528 8  -1174652.27645  25405681.021    25405681.8524   25405693.6504
 80  9  1 21  4  5.0000000  0  7 30 24 17  5  6 10 13               -0.000000156
  -1825743.275 9  -1416576.36749  20589891.684    20589891.8844   20589900.1874
   -527373.561 9   -419046.61947  22046003.779    22046003.4994   22046012.4954
  -2827442.545 9  -2190565.74646  23640032.875    23640032.1684   23640050.7874
   -700054.522 9   -549246.81348  20957657.044    20957656.4664   20957666.2024
  -2559565.987 9  -1976635.51847  22006738.452    22006738.2424   22006748.5394
  -1795354.590 9  -1392662.09548  20820462.649    20820461.8244   20820470.6454
  -1523610.083 8  -1175845.68945  25405389.592    25405390.0944   25405402.2254
 80  9  1 21  4  6.0000000  0  7 30 24 17  5  6 10 13               -0.000000155
  -1826071.477 9  -1416832.11049  20589829.248    20589829.4484   20589837.7414
   -524987.299 9   -417187.19747  22046457.859    22046457.5654   22046466.5694
  -2830072.178 9  -2192614.80046  23639532.475    23639531.7544   23639550.3894
   -697964.081 9   -547617.90248  20958054.846    20958054.2614   20958064.0024
  -2561694.262 9  -1978293.91647  22006333.467    22006333.2534   22006343.5544
  -1795592.374 9  -1392847.37948  20820417.393    20820416.5764   20820425.3974
  -1525141.329 8  -1177038.86045  25405098.179    25405098.3664   25405110.7664
 80  9  1 21  4  7.0000000  0  7 30 24 17  5  6 10 13               -0.000000153
  -1826399.013 9  -1417087.33249  20589766.906    20589767.1014   20589775.3944
   -522600.863 9   -415327.63747  22046911.980    22046911.6914   22046920.6874
  -2832701.544 9  -2194663.64646  23639032.107    23639031.3814   23639050.0394
   -695873.142 9   -545988.60348  20958452.756    20958452.1754   20958461.9194
  -2563822.425 9  -1979952.22047  22005928.474    22005928.2634   22005938.5554
  -1795829.515 9  -1393032.16448  20820372.288    20820371.4574   20820380.2964
  -1526672.271 8  -1178231.79745  25404806.858    25404807.0884   25404819.4134
 80  9  1 21  4  8.0000000  0  7 30 24 17  5  6 10 13               -0.000000152
  -1826725.958 9  -1417342.09449  20589704.699    20589704.9044   20589713.1864
   -520214.333 9   -413468.00347  22047366.133    22047365.8464   22047374.8274
  -2835330.734 9  -2196712.35146  23638531.774    23638531.0374   23638549.7164
   -693781.755 9   -544358.95648  20958850.742    20958850.1604   20958859.9024
  -2565950.541 9  -1981610.48947  22005523.533    22005523.3134   22005533.6104
  -1796066.049 9  -1393216.47648  20820327.278    20820326.4484   20820335.2814
  -1528202.943 8  -1179424.51645  25404515.567    25404516.0504   25404528.1104
 80  9  1 21  4  9.0000000  0  7 30 24 17  5  6 10 13               -0.000000151
  -1827052.219 9  -1417596.32349  20589642.599    20589642.7974   20589651.0934
   -517827.621 9   -411608.22947  22047820.317    22047820.0224   22047829.0114
  -2837959.652 9  -2198760.85046  23638031.479    23638030.7424   23638049.4324
   -691689.843 9   -542728.89748  20959248.817    20959248.2344   20959257.9854
  -2568078.534 9  -1983268.65847  22005118.589    22005118.3644   22005128.6664
  -1796301.894 9  -1393400.24948  20820282.374    20820281.5494   20820290.3734
  -1529733.210 8  -1180616.92445  25404224.355    25404224.5314   25404236.8734
 80  9  1 21  4 10.0000000  0  7 30 24 17  5  6 10 13               -0.000000149
  -1827377.930 9  -1417850.12349  20589580.641    20589580.8404   20589589.1434
   -515440.836 9   -409748.39547  22048274.482    22048274.1884   22048283.1804
  -2840588.442 9  -2200809.24946  23637531.215    23637530.4794   23637549.1784
   -689597.517 9   -541098.51548  20959646.968    20959646.3884   20959656.1384
  -2570206.513 9  -1984926.82047  22004713.624    22004713.4044   22004723.6914
  -1796537.175 9  -1393583.58448  20820237.621    20820236.8004   20820245.6194
  -1531263.275 8  -1181809.18245  25403933.163    25403932.4744   25403945.6444
 80  9  1 21  4 11.0000000  0  7 30 24 17  5  6 10 13               -0.000000148
  -1827702.943 9  -1418103.38049  20589518.779    20589518.9734   20589527.2694
   -513053.855 9   -407888.41147  22048728.717    22048728.4234   22048737.4174
  -2843216.939 9  -2202857.42046  23637031.027    23637030.3044   23637048.9944
   -687504.645 9   -539467.71048  20960045.221    20960044.6434   20960054.3894
  -2572334.354 9  -1986584.87347  22004308.718    22004308.4944   22004318.7824
  -1796771.742 9  -1393766.35948  20820192.973    20820192.1414   20820200.9734
  -1532792.927 8  -1183001.11245  25403642.083    25403641.6454   25403654.5264
 80  9  1 21  4 12.0000000  0  7 30 24 17  5  6 10 13               -0.000000146
  -1828027.313 9  -1418356.13549  20589457.063    20589457.2454   20589465.5444
   -510666.715 9   -406028.30547  22049182.989    22049182.6894   22049191.6904
  -2845845.216 9  -2204905.41346  23636530.878    23636530.1614   23636548.8624
   -685411.272 9   -537836.51348  20960443.591    20960443.0174   20960452.7604
  -2574462.094 9  -1988242.84447  22003903.819    22003903.5954   22003913.8774
  -1797005.658 9  -1393948.63148  20820148.464    20820147.6324   20820156.4724
  -1534322.278 8  -1184192.80945  25403351.029    25403349.9774   25403363.4714
 80  9  1 21  4 13.0000000  0  7 30 24 17  5  6 10 13               -0.000000145
  -1828351.106 9  -1418608.43949  20589395.443    20589395.6284   20589403.9214
   -508279.454 9   -404168.09847  22049637.262    22049636.9744   22049645.9634
  -2848473.313 9  -2206953.27046  23636030.757    23636030.0474   23636048.7504
   -683317.454 9   -536204.96948  20960842.027    20960841.4514   20960851.2044
  -2576589.815 9  -1989900.80547  22003498.926    22003498.7054   22003508.9804
  -1797238.982 9  -1394130.43848  20820104.061    20820103.2234   20820112.0584
  -1535851.371 8  -1185384.30245  25403060.030    25403058.6984   25403072.4494
 80  9  1 21  4 14.0000000  0  7 30 24 17  5  6 10 13               -0.000000143
  -1828674.317 9  -1418860.29249  20589333.933    20589334.1214   20589342.4164
   -505892.116 9   -402307.84047  22050091.540    22050091.2404   22050100.2524
  -2851101.238 9  -2209000.99646  23635530.661    23635529.9534   23635548.6554
   -681223.184 9   -534573.07448  20961240.574    20961239.9954   20961249.7514
  -2578717.499 9  -1991558.73447  22003094.064    22003093.8354   22003104.1134
  -1797471.700 9  -1394311.77648  20820059.791    20820058.9534   20820067.7944
  -1537380.175 8  -1186575.57245  25402769.076    25402766.7904   25402781.4364
 80  9  1 21  4 15.0000000  0  7 30 24 17  5  6 10 13               -0.000000141
  -1828996.833 9  -1419111.60649  20589272.561    20589272.7534   20589281.0394
   -503504.573 9   -400447.42247  22050545.895    22050545.5954   22050554.5934
  -2853728.881 9  -2211048.50446  23635030.617    23635029.9204   23635048.6054
   -679128.353 9   -532940.74048  20961639.203    20961638.6194   20961648.3774
  -2580845.037 9  -1993216.55347  22002689.190    22002688.9564   22002699.2424
  -1797703.703 9  -1394492.55748  20820015.640    20820014.8044   20820023.6374
  -1538908.608 8  -1187766.55545  25402478.184    25402474.1934   25402490.4984
 80  9  1 21  4 16.0000000  0  7 30 24 17  5  6 10 13               -0.000000140
  -1829318.859 9  -1419362.53349  20589211.293    20589211.4854   20589219.7734
   -501116.983 9   -398586.96147  22051000.212    22050999.9204   22051008.9114
  -2856356.419 9  -2213095.93146  23634530.600    23634529.9064   23634548.5894
   -677033.137 9   -531308.10948  20962037.910    20962037.3344   20962047.0874
  -2582972.629 9  -1994874.41147  22002284.329    22002284.0964   22002294.3694
  -1797935.181 9  -1394672.92948  20819971.598    20819970.7544   20819979.5954
  -1540436.812 8  -1188957.36145  25402187.352    25402183.0354   25402199.6444
 80  9  1 21  4 17.0000000  0  7 30 24 17  5  6 10 13               -0.000000138
  -1829640.153 9  -1419612.89349  20589150.138    20589150.3284   20589158.6234
   -498729.165 9   -396726.32547  22051454.593    22051454.3064   22051463.2934
  -2858983.627 9  -2215143.09546  23634030.653    23634029.9524   23634048.6484
   -674937.322 9   -529675.01248  20962436.741    20962436.1574   20962445.9214
  -2585100.041 9  -1996532.13047  22001879.487    22001879.2664   22001889.5274
  -1798165.897 9  -1394852.71048  20819927.676    20819926.8254   20819935.6754
  -1541964.629 8  -1190147.86245  25401896.587    25401892.0564   25401908.8894
 80  9  1 21  4 18.0000000  0  7 30 24 17  5  6 10 13               -0.000000136
  -1829960.859 9  -1419862.79049  20589089.126    20589089.3204   20589097.6094
   -496341.240 9   -394865.60347  22051909.012    22051908.7214   22051917.7224
  -2861610.634 9  -2217190.09846  23633530.762    23633530.0684   23633548.7584
   -672841.036 9   -528041.54248  20962835.657    20962835.0614   20962844.8324
  -2587227.403 9  -1998189.81347  22001474.682    22001474.4464   22001484.7194
  -1798395.990 9  -1395032.00148  20819883.898    20819883.0554   20819891.8864
  -1543492.148 8  -1191338.13345  25401605.876    25401600.2084   25401618.1524
 80  9  1 21  4 19.0000000  0  7 30 24 17  5  6 10 13               -0.000000134
  -1830280.808 9  -1420112.10149  20589028.230    20589028.4224   20589036.7094
   -493953.029 9   -393004.66147  22052363.480    22052363.1874   22052372.1884
  -2864237.257 9  -2219236.81146  23633030.912    23633030.2244   23633048.9054
   -670744.097 9   -526407.56948  20963234.680    20963234.0954   20963243.8584
  -2589354.538 9  -1999847.32047  22001069.878    22001069.6564   22001079.9084
  -1798625.290 9  -1395210.67748  20819840.259    20819839.4154   20819848.2534
  -1545019.146 8  -1192527.99245  25401315.275    25401310.9684   25401327.5344
 80  9  1 21  4 20.0000000  0  7 30 24 17  5  6 10 13               -0.000000132
  -1830600.451 9  -1420361.17149  20588967.431    20588967.6144   20588975.9024
   -491564.992 9   -391143.85347  22052817.902    22052817.6124   22052826.6254
  -2866863.962 9  -2221283.58446  23632531.068    23632530.3804   23632549.0604
   -668646.977 9   -524773.44948  20963633.754    20963633.1494   20963642.9264
  -2591481.905 9  -2001505.00147  22000665.080    22000664.8574   22000675.1114
  -1798854.248 9  -1395389.08148  20819796.690    20819795.8354   20819804.6754
  -1546546.153 8  -1193717.86245  25401024.648    25401020.8294   25401036.8784
 80  9  1 21  4 21.0000000  0  7 30 24 17  5  6 10 13               -0.000000131
  -1830919.427 9  -1420609.72349  20588906.707    20588906.8964   20588915.1774
   -489176.796 9   -389282.92347  22053272.359    22053272.0874   22053281.0824
  -2869490.402 9  -2223330.15146  23632031.257    23632030.5664   23632049.2484
   -666549.309 9   -523138.90548  20964032.931    20964032.3424   20964042.1054
  -2593609.149 9  -2003162.58947  22000260.257    22000260.0374   22000270.2894
  -1799082.504 9  -1395566.94248  20819753.264    20819752.4154   20819761.2484
  -1548072.812 8  -1194907.46445  25400734.139    25400730.8404   25400746.3104
 80  9  1 21  4 22.0000000  0  7 30 24 17  5  6 10 13               -0.000000129
  -1831237.840 9  -1420857.83949  20588846.146    20588846.3184   20588854.6144
   -486788.493 9   -387421.90647  22053726.819    22053726.5524   22053735.5364
  -2872116.621 9  -2225376.54446  23631531.491    23631530.7934   23631549.4664
   -664451.181 9   -521504.00248  20964432.201    20964431.5964   20964441.3814
  -2595736.350 9  -2004820.14347  21999855.481    21999855.2574   21999865.5094
  -1799310.156 9  -1395744.33048  20819709.940    20819709.0854   20819717.9294
  -1549599.146 8  -1196096.81045  25400443.663    25400440.6314   25400455.7634
 80  9  1 21  4 23.0000000  0  7 30 24 17  5  6 10 13               -0.000000127
  -1831555.526 9  -1421105.38749  20588785.690    20588785.8704   20588794.1534
   -484399.964 9   -385560.71447  22054181.334    22054181.0684   22054190.0474
  -2874742.516 9  -2227422.68646  23631031.796    23631031.0984   23631049.7674
   -662352.449 9   -519868.63248  20964831.571    20964830.9604   20964840.7514
  -2597863.362 9  -2006477.55347  21999450.730    21999450.4974   21999460.7484
  -1799537.044 9  -1395921.12748  20819666.763    20819665.9054   20819674.7514
  -1551125.083 8  -1197285.84745  25400153.257    25400150.3214   25400165.3134
 80  9  1 21  4 24.0000000  0  7 30 24 17  5  6 10 13               -0.000000125
  -1831872.708 9  -1421352.54349  20588725.318    20588725.5024   20588733.7814
   -482011.413 9   -383699.50847  22054635.872    22054635.6134   22054644.5984
  -2877368.284 9  -2229468.72946  23630532.114    23630531.4044   23630550.0794
   -660253.327 9   -518232.95648  20965231.014    20965230.4034   20965240.1984
  -2599990.393 9  -2008134.97247  21999045.966    21999045.7284   21999055.9784
  -1799763.377 9  -1396097.48948  20819623.702    20819622.8454   20819631.6914
  -1552650.812 8  -1198474.71945  25399862.906    25399860.1024   25399874.8644
 80  9  1 21  4 25.0000000  0  7 30 24 17  5  6 10 13               -0.000000123
  -1832189.320 9  -1421599.25249  20588665.075    20588665.2644   20588673.5334
   -479622.753 9   -381838.21947  22055090.413    22055090.1594   22055099.1284
  -2879993.823 9  -2231514.59246  23630032.506    23630031.8014   23630050.4684
   -658153.726 9   -516596.91048  20965630.549    20965629.9564   20965639.7344
  -2602117.357 9  -2009792.33947  21998641.202    21998640.9684   21998651.2164
  -1799989.097 9  -1396273.37448  20819580.744    20819579.8854   20819588.7334
  -1554176.180 8  -1199663.31245  25399572.636    25399570.1224   25399584.4884
 80  9  1 21  4 26.0000000  0  7 30 24 17  5  6 10 13               -0.000000120
  -1832505.279 9  -1421845.45449  20588604.938    20588605.1254   20588613.4004
   -477233.942 9   -379976.80847  22055544.985    22055544.7344   22055553.7054
  -2882619.092 9  -2233560.24246  23629532.910    23629532.1974   23629550.8694
   -656053.596 9   -514960.44748  20966030.194    20966029.6004   20966039.3794
  -2604244.197 9  -2011449.61747  21998236.496    21998236.2584   21998246.4994
  -1800214.129 9  -1396448.72248  20819537.911    20819537.0544   20819545.8984
  -1555701.258 8  -1200851.67745  25399282.385    25399280.1734   25399294.1714
 80  9  1 21  4 27.0000000  0  7 30 24 17  5  6 10 13               -0.000000118
  -1832820.636 9  -1422091.18549  20588544.928    20588545.1174   20588553.3874
   -474845.045 9   -378115.32547  22055999.590    22055999.3394   22056008.3084
  -2885244.149 9  -2235605.73246  23629033.367    23629032.6434   23629051.3314
   -653952.975 9   -513323.60248  20966429.932    20966429.3434   20966439.1204
  -2606370.962 9  -2013106.83247  21997831.783    21997831.5484   21997841.7894
  -1800438.515 9  -1396623.56748  20819495.215    20819494.3544   20819503.1984
  -1557225.936 8  -1202039.73145  25398992.246    25398990.2944   25399004.0624
 80  9  1 21  4 28.0000000  0  7 30 24 17  5  6 10 13               -0.000000116
  -1833135.481 9  -1422336.51949  20588485.019    20588485.2084   20588493.4744
   -472456.097 9   -376253.81247  22056454.185    22056453.9254   22056462.9104
  -2887869.049 9  -2237651.09446  23628533.834    23628533.0984   23628551.8064
   -651851.944 9   -511686.43748  20966829.741    20966829.1564   20966838.9324
  -2608497.717 9  -2014764.03747  21997427.064    21997426.8284   21997437.0724
  -1800662.346 9  -1396797.97748  20819452.622    20819451.7644   20819460.6004
  -1558750.440 8  -1203227.65145  25398702.128    25398700.2854   25398713.9534
 80  9  1 21  4 29.0000000  0  7 30 24 17  5  6 10 13               -0.000000114
  -1833449.732 9  -1422581.39049  20588425.236    20588425.4204   20588433.6904
   -470067.069 9   -374392.23347  22056908.806    22056908.5504   22056917.5334
  -2890493.736 9  -2239696.29146  23628034.377    23628033.6344   23628052.3494
   -649750.436 9   -510048.90148  20967229.663    20967229.0794   20967238.8614
  -2610624.401 9  -2016421.18847  21997022.352    21997022.1194   21997032.3494
  -1800885.543 9  -1396971.89648  20819410.167    20819409.3034   20819418.1544
  -1560274.593 8  -1204415.29945  25398412.062    25398410.3564   25398423.9214
 80  9  1 21  4 30.0000000  0  7 30 24 17  5  6 10 13               -0.000000112
  -1833763.325 9  -1422825.74849  20588365.557    20588365.7414   20588374.0234
   -467677.894 9   -372530.53547  22057363.454    22057363.2054   22057372.1894
  -2893118.167 9  -2241741.28646  23627534.949    23627534.2094   23627552.9294
   -647648.399 9   -508410.95448  20967629.648    20967629.0624   20967638.8504
  -2612750.964 9  -2018078.24847  21996617.684    21996617.4494   21996627.6844
  -1801108.050 9  -1397145.27648  20819367.816    20819366.9524   20819375.8024
  -1561798.387 8  -1205602.66545  25398122.072    25398120.4864   25398133.9604
 80  9  1 21  4 31.0000000  0  7 30 24 17  5  6 10 13               -0.000000110
  -1834076.329 9  -1423069.64749  20588305.997    20588306.1824   20588314.4564
   -465288.622 9   -370668.76947  22057818.114    22057817.8604   22057826.8434
  -2895742.385 9  -2243786.11846  23627035.546    23627034.8154   23627053.5284
   -645545.885 9   -506772.63748  20968029.744    20968029.1554   20968038.9514
  -2614877.453 9  -2019735.24247  21996213.021    21996212.7794   21996223.0264
  -1801329.938 9  -1397318.17348  20819325.578    20819324.7114   20819333.5534
  -1563321.860 8  -1206789.77745  25397832.166    25397830.7374   25397844.0754
 80  9  1 21  4 32.0000000  0  7 30 24 17  5  6 10 13               -0.000000107
  -1834388.798 9  -1423313.12849  20588246.523    20588246.7044   20588254.9814
   -462899.344 9   -368806.99447  22058272.783    22058272.5264   22058281.5224
  -2898366.466 9  -2245830.84046  23626536.181    23626535.4604   23626554.1664
   -643442.961 9   -505133.99748  20968429.924    20968429.3384   20968439.1344
  -2617003.947 9  -2021392.24947  21995808.352    21995808.1094   21995818.3534
  -1801551.262 9  -1397490.63148  20819283.463    20819282.6014   20819291.4464
  -1564845.089 8  -1207976.70745  25397542.268    25397540.9094   25397554.1894
 80  9  1 21  4 33.0000000  0  7 30 24 17  5  6 10 13               -0.000000105
  -1834700.700 9  -1423556.16549  20588187.165    20588187.3454   20588195.6234
   -460510.004 9   -366945.17247  22058727.458    22058727.2014   22058736.1844
  -2900990.364 9  -2247875.42746  23626036.857    23626036.1464   23626054.8384
   -641339.588 9   -503495.00848  20968830.174    20968829.5914   20968839.3874
  -2619130.404 9  -2023049.22547  21995403.719    21995403.4794   21995413.7254
  -1801771.975 9  -1397662.61448  20819241.474    20819240.6104   20819249.4524
  -1566368.036 8  -1209163.41245  25397252.423    25397251.0494   25397264.3794
 80  9  1 21  4 34.0000000  0  7 30 24 17  5  6 10 13               -0.000000103
  -1835011.897 9  -1423798.65749  20588127.948    20588128.1264   20588136.4194
   -458120.452 9   -365083.18947  22059182.177    22059181.9264   22059190.9094
  -2903613.924 9  -2249919.75446  23625537.605    23625536.9114   23625555.5954
   -639235.608 9   -501855.54748  20969230.545    20969229.9644   20969239.7594
  -2621256.680 9  -2024706.05947  21994999.080    21994998.8394   21995009.0864
  -1801991.951 9  -1397834.02348  20819199.595    20819198.7394   20819207.5814
  -1567890.520 8  -1210349.75345  25396962.687    25396961.3394   25396974.6794
 80  9  1 21  4 35.0000000  0  7 30 24 17  5  6 10 13               -0.000000100
  -1835322.567 9  -1424040.73949  20588068.825    20588069.0164   20588077.2914
   -455730.900 9   -363221.19847  22059636.892    22059636.6414   22059645.6214
  -2906237.350 9  -2251963.96946  23625038.355    23625037.6674   23625056.3484
   -637131.213 9   -500215.76248  20969631.022    20969630.4374   20969640.2414
  -2623382.959 9  -2026362.89447  21994594.460    21994594.2294   21994604.4624
  -1802211.349 9  -1398004.98448  20819157.859    20819156.9984   20819165.8434
  -1569412.796 8  -1211535.93345  25396672.976    25396671.6904   25396684.9884
 80  9  1 21  4 36.0000000  0  7 30 24 17  5  6 10 13               -0.000000098
  -1835632.780 9  -1424282.46449  20588009.796    20588009.9774   20588018.2714
   -453341.414 9   -361359.26347  22060091.585    22060091.3174   22060100.3234
  -2908860.712 9  -2254008.13246  23624539.152    23624538.4734   23624557.1554
   -635026.475 9   -498575.71048  20970031.533    20970030.9494   20970040.7574
  -2625509.311 9  -2028019.78547  21994189.830    21994189.6004   21994199.8304
  -1802430.246 9  -1398175.55348  20819116.208    20819115.3464   20819124.1924
  -1570934.850 8  -1212721.94745  25396383.337    25396382.1004   25396395.3134
 80  9  1 21  4 37.0000000  0  7 30 24 17  5  6 10 13               -0.000000096
  -1835942.256 9  -1424523.61249  20587950.898    20587951.0784   20587959.3724
   -450951.668 9   -359497.12647  22060546.330    22060546.0724   22060555.0604
  -2911483.685 9  -2256051.99446  23624040.004    23624039.3384   23624058.0214
   -632921.076 9   -496935.14448  20970432.175    20970431.6024   20970441.3954
  -2627635.436 9  -2029676.49947  21993785.243    21993785.0104   21993795.2454
  -1802648.369 9  -1398345.51548  20819074.673    20819073.8254   20819082.6704
  -1572456.429 8  -1213907.58645  25396093.760    25396092.5904   25396105.7104
 80  9  1 21  4 38.0000000  0  7 30 24 17  5  6 10 13               -0.000000093
  -1836251.127 9  -1424764.29049  20587892.129    20587892.3194   20587900.6054
   -448561.836 9   -357634.92047  22061001.126    22061000.8574   22061009.8684
  -2914106.419 9  -2258095.67246  23623540.874    23623540.2144   23623558.9044
   -630815.189 9   -495294.19748  20970832.901    20970832.3254   20970842.1284
  -2629761.480 9  -2031333.15747  21993380.662    21993380.4304   21993390.6624
  -1802865.839 9  -1398514.97048  20819033.310    20819032.4644   20819041.3054
  -1573977.684 8  -1215092.96845  25395804.260    25395803.1604   25395816.2014
 80  9  1 21  4 39.0000000  0  7 30 24 17  5  6 10 13               -0.000000091
  -1836559.454 9  -1425004.54549  20587833.443    20587833.6394   20587841.9214
   -446171.992 9   -355772.70447  22061455.877    22061455.6024   22061464.6184
  -2916729.025 9  -2260139.24646  23623041.803    23623041.1494   23623059.8404
   -628708.871 9   -493652.91248  20971233.740    20971233.1674   20971242.9644
  -2631887.513 9  -2032989.80047  21992976.080    21992975.8504   21992986.0834
  -1803082.740 9  -1398683.98248  20818992.014    20818991.1624   20819000.0074
  -1575498.691 8  -1216278.15545  25395514.794    25395513.7714   25395526.7384
 80  9  1 21  4 40.0000000  0  7 30 24 17  5  6 10 13               -0.000000089
  -1836867.347 9  -1425244.46049  20587774.874    20587775.0604   20587783.3444
   -443782.187 9   -353910.51847  22061910.639    22061910.3774   22061919.3634
  -2919351.552 9  -2262182.76346  23622542.759    23622542.1154   23622560.8004
   -626602.189 9   -492011.34348  20971634.636    20971634.0704   20971643.8624
  -2634013.631 9  -2034646.50647  21992571.469    21992571.2404   21992581.4744
  -1803299.148 9  -1398852.60848  20818950.842    20818949.9914   20818958.8294
  -1577019.482 8  -1217463.18045  25395225.356    25395224.4224   25395237.2974
 80  9  1 21  4 41.0000000  0  7 30 24 17  5  6 10 13               -0.000000086
  -1837174.585 9  -1425483.86349  20587716.387    20587716.5704   20587724.8584
   -441392.241 9   -352048.22647  22062365.440    22062365.1634   22062374.1664
  -2921973.817 9  -2264226.08146  23622043.724    23622043.0904   23622061.7644
   -624494.968 9   -490369.35548  20972035.625    20972035.0524   20972044.8524
  -2636139.616 9  -2036303.11747  21992166.908    21992166.6804   21992176.9114
  -1803514.862 9  -1399020.69448  20818909.786    20818908.9294   20818917.7714
  -1578539.931 8  -1218647.94045  25394936.030    25394935.1124   25394948.0254
 80  9  1 21  4 42.0000000  0  7 30 24 17  5  6 10 13               -0.000000084
  -1837481.189 9  -1425722.77849  20587658.038    20587658.2214   20587666.5074
   -439002.167 9   -350185.83447  22062820.270    22062820.0074   22062828.9874
  -2924595.835 9  -2266269.20346  23621544.770    23621544.1454   23621562.8184
   -622387.221 9   -488726.96048  20972436.695    20972436.1244   20972445.9294
  -2638265.498 9  -2037959.64447  21991762.364    21991762.1404   21991772.3584
  -1803729.906 9  -1399188.26048  20818868.883    20818868.0284   20818876.8734
  -1580060.004 8  -1219832.40945  25394646.724    25394645.8234   25394658.7714
 80  9  1 21  4 43.0000000  0  7 30 24 17  5  6 10 13               -0.000000081
  -1837787.056 9  -1425961.11749  20587599.828    20587600.0214   20587608.3004
   -436611.841 9   -348323.24847  22063275.132    22063274.8624   22063283.8474
  -2927217.470 9  -2268312.02846  23621045.893    23621045.2714   23621063.9474
   -620278.809 9   -487084.04748  20972837.915    20972837.3474   20972847.1504
  -2640391.144 9  -2039615.99047  21991357.864    21991357.6404   21991367.8644
  -1803944.150 9  -1399355.20448  20818828.115    20818827.2664   20818836.1004
  -1581579.580 8  -1221016.48445  25394357.536    25394356.6334   25394369.6314
 80  9  1 21  4 44.0000000  0  7 30 24 17  5  6 10 13               -0.000000086
  -1838093.86016  -1426200.18449  20587541.467    20587541.6645   20587549.9464
   -434224.27315   -346462.80147  22063729.488    22063729.2105   22063738.1974
  -2929846.68615  -2270360.76046  23620545.541    23620544.9285   23620563.6064
   -618175.37015   -485445.00848  20973238.193    20973237.6075   20973247.4134
  -2642516.75715  -2041272.31047  21990953.356    21990953.1305   21990963.3624
  -1804163.40016  -1399526.04548  20818786.372    20818785.5215   20818794.3714
  -1583101.47115  -1222202.36245  25394067.916    25394067.0235   25394080.0444
 80  9  1 21  4 45.0000000  0  7 30 24 17  5  6 10 13               -0.000000086
  -1838398.18116  -1426437.39748  20587483.544    20587483.7855   20587492.1434
   -431835.12315   -344601.01047  22064184.104    22064183.8185   22064192.8344
  -2932469.86115  -2272404.79356         0.000           0.0005          0.0005
   -616066.89716   -483802.02948  20973639.435    20973638.6465   20973648.3904
  -2644643.82516  -2042929.77347  21990548.582    21990548.3545   21990558.6374
  -1804379.29816  -1399694.18648  20818745.305    20818744.4785   20818753.3854
  -1584626.34416  -1223390.57345  25393777.745    25393776.8155   25393789.8764
 80  9  1 21  4 46.0000000  0  3 30 24 10                            0.000000000
  -1838717.33416  -1426686.12148  20587422.805    20587423.0395   20587431.9514
   -429464.35615   -342753.62857         0.000           0.0005          0.0005
  -1804623.69515  -1399884.57258         0.000           0.0005          0.0005
 80  9  1 21  4 47.0000000  0  1 30                                  0.000000000
  -1839024.09916  -1426925.18048  20587364.401    20587364.5965   20587538.1714
 80  9  1 21  4 48.0000000  0  1 30                                  0.000000000
  -1839328.28119  -1427162.18558  20587306.533    20587306.7315          0.0005
 80  9  1 21  4 49.0000000  0  1 30                                  0.000000000
  -1839634.248 9  -1427400.56158  20587248.292    20587248.5404          0.0005
 80  9  1 21  4 50.0000000  0  1 30                                  0.000000000
  -1839939.593 9  -1427638.37858  20587190.170    20587190.2794          0.0005
 80  9  1 21  4 51.0000000  0  1 30                                  0.000000000
  -1840244.321 9  -1427875.86658  20587132.142    20587131.8134          0.0005
 80  9  1 21  4 52.0000000  0  1 30                                  0.000000000
  -1840549.34416  -1428113.54058  20587074.074    20586969.9375          0.0005
 80  9  1 21  4 53.0000000  0  1 30                                  0.000000000
  -1840852.40816  -1428349.73958  20587016.368    20586852.3895          0.0005
 80  9  1 21  4 54.0000000  0  1 30                                  0.000000000
  -1841154.98916  -1428585.50858  20586958.766    20586718.9215          0.0005
 80  9  1 21  4 55.0000000  0  1 30                                  0.000000000
  -1841456.86416  -1428820.93558  20586901.309    20586605.4805          0.0005
 80  9  1 21  4 56.0000000  0  1 30                                  0.000000000
  -1841757.98717  -1429055.79058  20586215.278    20586502.4715          0.0005
 80  9  1 21  4 57.0000000  0  1 30                                  0.000000000
  -1842058.65415  -1429290.18558         0.000           0.0005          0.0005
 80  9  1 21  5 18.0000000  0  1 10                                  0.000000000
     -2374.68919   1429290.185 1         0.000           0.0001          0.000
 80  9  1 21  5 19.0000000  0  6 30 24 17  5  6 10                   0.000000000
     -3003.56319   1429290.185 1         0.000           0.0001          0.000
      4758.75219    342753.628 1         0.000           0.0001          0.000
     -7028.196 9   1399884.572 1         0.000           0.000           0.000
      5290.82219    483802.029 1         0.000           0.0001          0.000
     -9278.26919   2042929.773 1         0.000           0.0001          0.000
     -3256.725 9   1399694.186 1         0.000           0.000           0.000
 80  9  1 21  5 20.0000000  0  6 30 24 17  5  6 10                   0.000000000
     -3977.887 9   1429290.185 1         0.000           0.000           0.000
      6461.729 9    342753.628 1         0.000           0.000           0.000
    -10332.722 9   1399884.572 1         0.000           0.000           0.000
      6726.600 9    483802.029 1         0.000           0.000           0.000
    -12092.040 9   2042929.773 1         0.000           0.000           0.000
     -4137.592 9   1399694.186 1         0.000           0.000           0.000
 80  9  1 21  5 21.0000000  0  6 30 24 17  5  6 10                   0.000000000
     -4951.184 9   1429290.185 1         0.000           0.000           0.000
      8165.194 9    342753.628 1         0.000           0.000           0.000
    -13636.668 9   1399884.572 1         0.000           0.000           0.000
      8163.263 9    483802.029 1         0.000           0.000           0.000
    -14905.339 9   2042929.773 1         0.000           0.000           0.000
     -5017.407 9   1399694.186 1         0.000           0.000           0.000
 80  9  1 21  5 22.0000000  0  6 30 24 17  5  6 10                   0.000000000
     -5923.64819      -235.58952         0.000           0.0005          0.0005
      9868.97119    342753.628 1         0.000           0.0001          0.000
    -16940.183 9   1399884.572 1         0.000           0.000           0.000
      9600.63019       347.76552         0.000           0.0005          0.0005
    -17718.33819   2042929.773 1         0.000           0.0001          0.000
     -5896.34919      -213.43952         0.000           0.0005          0.0005
 80  9  1 21  5 23.0000000  0  6 30 24 17  5  6 10                   0.000764128
     -6895.710 9      -992.90042         0.000           0.0004          0.0004
     11572.600 9      1733.69942         0.000           0.0004          0.0004
    -20243.714 9   1399884.572 1         0.000           0.000           0.000
     11038.268 9      1467.89042         0.000           0.0004          0.0004
    -20531.452 9     -2863.36942         0.000           0.0004          0.0004
     -6774.839 9      -897.87742         0.000           0.0004          0.0004
 80  9  1 21  5 24.0000000  0  6 30 24 17  5  6 10                   0.000763689
     -7867.156 9     -1748.90142         0.000           0.0004          0.0004
     13276.316 9      3060.93742         0.000           0.0004          0.0004
    -23547.036 9   1399884.572 1         0.000           0.000           0.000
     12476.390 9      2588.11642         0.000           0.0004          0.0004
    -23344.492 9     -5055.79842         0.000           0.0004          0.0004
     -7652.681 9     -1581.98042         0.000           0.0004          0.0004
 80  9  1 21  5 25.0000000  0  6 30 24 17  5  6 10                   0.000763256
     -8838.576 9     -2494.97652         0.000           0.0004          0.0005
     14979.566 9      4388.11252         0.000           0.0004          0.0005
    -26850.216 9   1399884.572 1         0.000           0.000           0.000
     13914.417 9      3708.65152         0.000           0.0004          0.0005
    -26158.010 9     -7248.10152         0.000           0.0004          0.0005
     -8530.440 9     -2265.93852         0.000           0.0004          0.0005
 80  9  1 21  5 26.0000000  0  6 30 24 17  5  6 10                   0.000762820
     -9809.501 9     -3239.81652         0.000           0.0004          0.0005
     16682.796 9      5715.31143         0.000           0.0004   22311727.6944
    -30153.845 9   1399884.572 1         0.000           0.000           0.000
     15352.825 9      4829.48844         0.000           0.0004   21219057.4514
    -28971.553 9     -9440.45244         0.000           0.0004   22202856.2694
     -9407.648 9     -2949.45744         0.000           0.0004   21046070.4644
 80  9  1 21  5 27.0000000  0  6 30 24 17  5  6 10                   0.000762390
    -10779.594 9     -3977.49652         0.000           0.0004          0.0005
     18386.316 9      7042.76145         0.000           0.0004   22312051.9824
    -33457.046 9   1399884.572 1         0.000           0.000           0.000
     16791.927 9      5950.88545         0.000           0.0004   21219331.2374
    -31784.802 9    -11632.55945         0.000           0.0004   22202321.1644
    -10283.985 9     -3632.29945         0.000           0.0004   21045903.1864
 80  9  1 21  5 28.0000000  0  6 30 24 17  5  6 10                   0.000761961
    -11748.237 9     -4718.33952         0.000           0.0004          0.0005
     20090.782 9      8370.94145         0.000           0.0004   22312377.0904
    -36759.22219   1399884.572 1         0.000           0.0001          0.000
     18232.373 9      7073.32546         0.000           0.0004   21219605.3284
    -34597.122 9    -13823.95045         0.000           0.0004   22201786.3074
    -11158.820 9     -4313.97646         0.000           0.0004   21045736.3084
 80  9  1 21  5 29.0000000  0  6 30 24 17  5  6 10                   0.000762177
    -12715.433 9     -5458.15152         0.000           0.0004          0.0005
     21796.144 9      9699.80945         0.000           0.0004   22312701.6454
    -40060.351 9     -3320.77142         0.000           0.0004          0.0004
     19674.144 9      8196.79046         0.000           0.0004   21219879.6034
    -37408.527 9    -16014.63845         0.000           0.0004   22201251.2684
    -12032.161 9     -4994.49946         0.000           0.0004   21045569.8774
 80  9  1 21  5 30.0000000  0  6 30 24 17  5  6 10                   0.000761741
    -13681.318 9     -6196.86752         0.000           0.0004          0.0005
     23502.302 9     11029.28245         0.000           0.0004   22313026.7284
    -43360.601 9     -5892.32042         0.000           0.0004          0.0004
     21117.092 9      9321.16346         0.000           0.0004   21220154.3174
    -40219.156 9    -18204.73146         0.000           0.0004   22200716.6074
    -12904.146 9     -5673.96746         0.000           0.0004   21045404.1024
 80  9  1 21  5 31.0000000  0  6 30 24 17  5  6 10                   0.000761306
    -14645.552 9     -6934.07452         0.000           0.0004          0.0005
     25209.626 9     12359.66346         0.000           0.0004   22313350.9554
    -46659.592 9     -8462.92942         0.000           0.0004          0.0004
     22561.598 9     10446.74646         0.000           0.0004   21220429.1694
    -43028.632 9    -20393.93246         0.000           0.0004   22200182.1314
    -13774.413 9     -6352.09847         0.000           0.0004   21045238.4644
 80  9  1 21  5 32.0000000  0  6 30 24 17  5  6 10                   0.000760872
    -15608.210 9     -7670.13352         0.000           0.0004          0.0005
     26918.017 9     13690.87246         0.000           0.0004   22313676.1934
    -49957.406 9    -11032.63842         0.000           0.0004          0.0004
     24007.559 9     11573.46547         0.000           0.0004   21220704.3184
    -45837.055 9    -22582.31146         0.000           0.0004   22199647.4014
    -14643.047 9     -7028.95747         0.000           0.0004   21045073.1804
 80  9  1 21  5 33.0000000  0  6 30 24 17  5  6 10                   0.000760440
    -16569.212 9     -8404.92952         0.000           0.0004          0.0005
     28627.545 9     15022.96946         0.000           0.0004   22314001.5944
    -53253.978 9    -13601.38842         0.000           0.0004          0.0004
     25455.061 9     12701.38647         0.000           0.0004   21220979.7104
    -48644.342 9    -24769.80446         0.000           0.0004   22199113.1694
    -15509.981 9     -7704.48947         0.000           0.0004   21044908.1394
 80  9  1 21  5 34.0000000  0  6 30 24 17  5  6 10                   0.000760010
    -17528.467 9     -9138.47152         0.000           0.0004          0.0005
     30338.298 9     16356.01946         0.000           0.0004   22314327.0454
    -56549.215 9    -16169.10142         0.000           0.0004          0.0004
     26904.211 9     13830.58947         0.000           0.0004   21221255.4224
    -51450.406 9    -26956.34346         0.000           0.0004   22198579.1694
    -16375.111 9     -8378.61547         0.000           0.0004   21044743.4694
 80  9  1 21  5 35.0000000  0  6 30 24 17  5  6 10                   0.000759579
    -18486.132 9     -9870.71352         0.000           0.0004          0.0005
     32050.118 9     17689.90546         0.000           0.0004   22314652.8924
    -59843.274 9    -18735.89842         0.000           0.0004          0.0004
     28354.830 9     14960.93747         0.000           0.0004   21221531.4484
    -54255.409 9    -29142.05946         0.000           0.0004   22198045.3924
    -17238.603 9     -9051.46747         0.000           0.0004   21044579.1614
 80  9  1 21  5 36.0000000  0  6 30 24 17  5  6 10                   0.000759149
    -19442.070 9    -10601.54052         0.000           0.0004          0.0005
     33763.15219     19024.74146         0.000           0.0005   22314978.8784
    -63136.014 9    -21301.66942         0.000           0.0004          0.0004
     29807.05219     16092.53747         0.000           0.0005   21221807.8104
    -57059.21719    -31326.83746         0.000           0.0005   22197511.7434
    -18100.31719     -9722.93147         0.000           0.0005   21044415.2204
 80  9  1 21  5 37.0000000  0  6 30 24 17  5  6 10                   0.000758722
    -20396.329 9    -11331.10452         0.000           0.0004          0.0005
     35477.33519     20360.46246         0.000           0.0005   22315305.0684
    -66427.470 9    -23866.43942         0.000           0.0004          0.0004
     31260.84819     17225.36147         0.000           0.0005   21222084.4654
    -59861.85119    -33510.70247         0.000           0.0005   22196978.3684
    -18960.31319    -10393.05747         0.000           0.0005   21044251.5644
 80  9  1 21  5 38.0000000  0  6 30 24 17  5  6 10                   0.000758295
    -21348.871 9    -12059.27152         0.000           0.0004          0.0005
     37192.70719     21697.11246         0.000           0.0005   22315631.5014
    -69717.636 9    -26430.20542         0.000           0.0004          0.0004
     32716.23019     18359.42347         0.000           0.0005   21222361.4114
    -62663.31019    -35693.65647         0.000           0.0005   22196445.2764
    -19818.54419    -11061.80847         0.000           0.0005   21044088.2314
 80  9  1 21  5 39.0000000  0  6 30 24 17  5  6 10                   0.000757865
    -22300.345 9    -12786.67552         0.000           0.0004          0.0005
     38908.60419     23034.17346         0.000           0.0005   22315958.0624
    -73007.154 9    -28993.46442         0.000           0.0004          0.0004
     34172.55219     19494.21347         0.000           0.0005   21222638.5784
    -65464.23619    -37876.19147         0.000           0.0005   22195912.2614
    -20675.67419    -11729.70148         0.000           0.0005   21043925.1244
 80  9  1 21  5 40.0000000  0  6 30 24 17  5  6 10                   0.000757437
    -23250.566 9    -13513.09352         0.000           0.0004          0.0005
     40625.23819     24371.81146         0.000           0.0005   22316284.7844
    -76295.818 9    -31556.05942         0.000           0.0004          0.0004
     35630.01419     20629.89447         0.000           0.0005   21222915.9084
    -68264.40519    -40058.13347         0.000           0.0005   22195379.3684
    -21531.50219    -12396.57748         0.000           0.0005   21043762.2824
 80  9  1 21  5 41.0000000  0  6 30 24 17  5  6 10                   0.000757011
    -24199.531 9    -14238.41052         0.000           0.0004          0.0005
     42342.59219     25710.00847         0.000           0.0005   22316611.5914
    -79583.649 9    -34118.00542         0.000           0.0004          0.0004
     37088.59419     21766.44747         0.000           0.0005   21223193.4644
    -71063.85819    -42239.52447         0.000           0.0005   22194846.6294
    -22386.04219    -13062.45148         0.000           0.0005   21043599.6744
 80  9  1 21  5 42.0000000  0  6 30 24 17  5  6 10                   0.000756582
    -25147.547 9    -14963.00452         0.000           0.0004          0.0005
     44060.36319     27048.53047         0.000           0.0005   22316938.4994
    -82870.938 9    -36679.52742         0.000           0.0004          0.0004
     38547.99519     22903.63948         0.000           0.0005   21223471.1824
    -73862.87419    -44420.56547         0.000           0.0005   22194313.9684
    -23239.58619    -13727.54948         0.000           0.0005   21043437.2254
 80  9  1 21  5 43.0000000  0  6 30 24 17  5  6 10                   0.000756154
    -26094.425 9    -15686.81652         0.000           0.0004          0.0005
     45778.74519     28387.52747         0.000           0.0005   22317265.4814
    -86157.496 9    -39240.48242         0.000           0.0004          0.0004
     40008.41019     24041.61948         0.000           0.0005   21223749.1014
    -76661.26219    -46601.12947         0.000           0.0005   22193781.4504
    -24091.94819    -14391.72648         0.000           0.0005   21043275.0274
 80  9  1 21  5 44.0000000  0  6 30 24 17  5  6 10                   0.000755728
    -27040.285 9    -16409.70252         0.000           0.0004          0.0005
     47497.61819     29726.90847         0.000           0.0005   22317592.5504
    -89443.443 9    -41800.95942         0.000           0.0004          0.0004
     41469.69619     25180.28148         0.000           0.0005   21224027.1824
    -79459.16019    -48781.30647         0.000           0.0005   22193249.0374
    -24943.25119    -15055.07748         0.000           0.0005   21043113.0374
 80  9  1 21  5 45.0000000  0  6 30 24 17  5  6 10                   0.000755301
    -27984.795 9    -17131.55552         0.000           0.0004          0.0005
     49217.31119     31066.92547         0.000           0.0005   22317919.7684
    -92728.470 9    -44360.72042         0.000           0.0004          0.0004
     42932.19219     26319.88648         0.000           0.0005   21224305.4874
    -82256.23119    -50960.83147         0.000           0.0005   22192716.7334
    -25793.15219    -15717.33448         0.000           0.0005   21042951.3094
 80  9  1 21  5 46.0000000  0  6 30 24 17  5  6 10                   0.000754876
    -28927.625 9    -17852.14852         0.000           0.0004          0.0005
     50938.12319     32407.81947         0.000           0.0005   22318247.2584
    -96012.227 9    -46919.49142         0.000           0.0004          0.0004
     44396.20919     27460.67748         0.000           0.0005   21224584.1034
    -85052.14019    -53139.45747         0.000           0.0005   22192184.6494
    -26641.33719    -16378.25448         0.000           0.0005   21042789.8554
 80  9  1 21  5 47.0000000  0  6 30 24 17  5  6 10                   0.000754455
    -29869.036 9    -18571.62652         0.000           0.0004          0.0005
     52659.80619     33749.38947         0.000           0.0005   22318574.8914
    -99294.973 9    -49477.47542         0.000           0.0004          0.0004
     45861.49919     28602.45748         0.000           0.0005   21224862.9454
    -87847.14719    -55317.38147         0.000           0.0005   22191652.7404
    -27488.05719    -17038.03848         0.000           0.0005   21042628.7354
 80  9  1 21  5 48.0000000  0  6 30 24 17  5  6 10                   0.000754031
    -30810.114 9    -19290.82152         0.000           0.0004          0.0005
     54381.28819     35090.80047         0.000           0.0005   22318902.4884
   -102577.810 9    -52035.55242         0.000           0.0004          0.0004
     47326.97319     29744.38048         0.000           0.0005   21225141.8144
    -90642.35019    -57495.46347         0.000           0.0005   22191120.7964
    -28334.40119    -17697.52748         0.000           0.0005   21042467.7034
 80  9  1 21  5 49.0000000  0  6 30 24 17  5  6 10                   0.000753610
    -31750.054 9    -20009.26052         0.000           0.0004          0.0005
     56103.36619     36432.67947         0.000           0.0005   22319230.1814
   -105859.905 9    -54585.74942         0.000           0.0004          0.0004
     48793.43619     30887.07748         0.000           0.0005   21225420.9034
    -93436.89819    -59673.02247         0.000           0.0005   22190589.0074
    -29179.55119    -18356.08448         0.000           0.0005   21042306.8604
 80  9  1 21  5 50.0000000  0  6 30 24 17  5  6 10                   0.000753184
    -32688.653 9    -20726.27852         0.000           0.0004          0.0005
     57826.217 9     37775.15647  22319549.338    22319549.0984   22319558.0534
   -109141.075 9    -57140.76842         0.000           0.0004          0.0004
     50261.097 9     32030.70548  21225690.714    21225690.1804   21225700.1904
    -96230.630 9    -61849.95647  22190047.174    22190047.0604   22190057.3414
    -30023.308 9    -19013.55848  21042138.087    21042137.6314   21042146.3104
 80  9  1 21  5 51.0000000  0  6 30 24 17  5  6 10                   0.000752760
    -33625.985 9    -21442.38452         0.000           0.0004          0.0005
     59549.819 9     39118.22147  22319877.335    22319876.9814   22319886.0394
   -112421.407 9    -59695.11552         0.000           0.0004          0.0005
     51729.874 9     33175.20248  21225970.075    21225969.5274   21225979.6934
    -99023.625 9    -64026.30947  22189515.873    22189515.9484   22189525.8504
    -30865.746 9    -19670.00448  21041977.868    21041977.3324   21041985.9844
 80  9  1 21  5 52.0000000  0  6 30 24 17  5  6 10                   0.000752337
    -34562.281 9    -22157.62752         0.000           0.0004          0.0005
     61273.922 9     40461.67947  22320205.525    22320205.1344   22320214.1144
   -115701.086 9    -62248.97052         0.000           0.0004          0.0005
     53199.549 9     34320.39948  21226250.010    21226249.2334   21226259.3554
   -101816.064 9    -66202.23147  22188984.438    22188984.3864   22188994.4614
    -31707.091 9    -20325.59748  21041817.854    21041817.2434   21041825.8904
 80  9  1 21  5 53.0000000  0  6 30 24 17  5  6 10                   0.000751916
    -35497.456 9    -22872.01152         0.000           0.0004          0.0005
     62998.591 9     41805.57347  22320533.624    22320532.8074   22320542.3044
   -118980.070 9    -64802.31552         0.000           0.0004          0.0005
     54670.196 9     35466.35448  21226530.066    21226529.2104   21226539.2124
   -104607.919 9    -68377.69747  22188453.209    22188452.8244   22188463.1664
    -32547.268 9    -20980.27948  21041657.909    21041657.3044   21041666.0094
 80  9  1 21  5 54.0000000  0  6 30 24 17  5  6 10                   0.000751493
    -36431.450 9    -23585.47552         0.000           0.0004          0.0005
     64723.917 9     43149.98247  22320862.032    22320861.3194   22320870.6184
   -122258.302 9    -67355.03052         0.000           0.0004          0.0005
     56141.885 9     36613.12148  21226809.979    21226809.1864   21226819.2674
   -107399.108 9    -70552.64747  22187922.234    22187921.5924   22187931.9844
    -33386.200 9    -21633.99048  21041498.280    21041497.6044   21041506.3914
 80  9  1 21  5 55.0000000  0  6 30 24 17  5  6 10                   0.000751072
    -37364.415 9    -24298.08852         0.000           0.0004          0.0005
     66449.750 9     44494.79047  22321190.358    22321190.1214   22321199.0344
   -125535.892 9    -69907.22752         0.000           0.0004          0.0005
     57614.463 9     37760.58248  21227090.108    21227089.5324   21227099.4964
   -110189.760 9    -72727.17847  22187391.029    22187390.7694   22187400.9614
    -34224.022 9    -22286.83748  21041338.876    21041338.2154   21041346.9504
 80  9  1 21  5 56.0000000  0  6 30 24 17  5  6 10                   0.000750649
    -38296.119 9    -25009.72352         0.000           0.0004          0.0005
     68176.283 9     45840.14147  22321518.783    22321518.6244   22321527.5804
   -128812.649 9    -72458.83452         0.000           0.0004          0.0005
     59088.156 9     38908.91048  21227370.326    21227369.9684   21227379.9314
   -112979.680 9    -74901.13847  22186860.255    22186859.9464   22186870.0394
    -35060.535 9    -22938.66448  21041179.806    21041179.0254   21041187.7504
 80  9  1 21  5 57.0000000  0  6 30 24 17  5  6 10                   0.000750225
    -39226.641 9    -25720.42052         0.000           0.0004          0.0005
     69903.463 9     47185.99147  22321847.384    22321847.3074   22321856.2454
   -132088.655 9    -75009.86352         0.000           0.0004          0.0005
     60562.886 9     40058.04648  21227650.863    21227650.5434   21227660.5564
   -115768.933 9    -77074.57947  22186329.507    22186329.2644   22186339.2374
    -35895.802 9    -23589.52248  21041021.132    21041020.0454   21041028.8124
 80  9  1 21  5 58.0000000  0  6 30 24 17  5  6 10                   0.000749802
    -40156.090 9    -26430.25152         0.000           0.0004          0.0005
     71631.176 9     48532.25347  22322176.131    22322176.1294   22322185.0294
   -135363.986 9    -77560.30252         0.000           0.0004          0.0005
     62038.565 9     41207.92348  21227931.599    21227931.3894   21227941.3954
   -118557.598 9    -79247.56047  22185798.650    22185798.6114   22185808.5664
    -36729.891 9    -24239.46148  21040862.629    21040861.3354   21040870.0764
 80  9  1 21  5 59.0000000  0  6 30 24 17  5  6 10                   0.000749380
    -41084.367 9    -27139.15652         0.000           0.0004          0.0005
     73359.528 9     49879.02047  22322505.171    22322504.9924   22322513.8994
   -138638.574 9    -80110.18252         0.000           0.0004          0.0005
     63515.271 9     42358.59948  21228212.674    21228212.4044   21228222.4004
   -121345.608 9    -81420.03047  22185267.786    22185268.0484   22185278.0074
    -37562.754 9    -24888.44448  21040704.408    21040702.8744   21040711.6034
 80  9  1 21  6  0.0000000  0  6 30 24 17  5  6 10                   0.000748959
    -42011.905 9    -27847.38552         0.000           0.0004          0.0005
     75088.097 9     51225.95547  22322834.142    22322833.8344   22322842.8194
   -141912.842 9    -82659.86052         0.000           0.0004          0.0005
     64992.577 9     43509.74148  21228493.955    21228493.5204   21228503.5134
   -124133.388 9    -83592.32147  22184737.392    22184737.5664   22184747.4924
    -38394.806 9    -25536.79448  21040546.262    21040544.5344   21040553.2654
 80  9  1 21  6  1.0000000  0  6 30 24 17  5  6 10                   0.000748540
    -42938.452 9    -28554.88552         0.000           0.0004          0.0005
     76817.090 9     52573.22247  22323163.201    22323162.7764   22323171.8344
   -145186.530 9    -85209.03752         0.000           0.0004          0.0005
     66470.735 9     44661.55248  21228775.440    21228774.8254   21228784.8184
   -126920.676 9    -85764.23147  22184207.237    22184207.1834   22184217.1044
    -39225.776 9    -26184.30048  21040387.968    21040386.4044   21040395.1494
 80  9  1 21  6  2.0000000  0  6 30 24 17  5  6 10                   0.000748117
    -43864.031 9    -29261.55252         0.000           0.0004          0.0005
     78546.532 9     53920.84447  22323492.327    22323491.8984   22323500.9474
   -148459.676 9    -87757.76152         0.000           0.0004          0.0005
     67949.716 9     45814.00148  21229056.879    21229056.2704   21229066.2384
   -129707.523 9    -87935.79647  22183677.231    22183676.8404   22183686.7704
    -40055.714 9    -26831.00348  21040229.898    21040228.4534   21040237.2094
 80  9  1 21  6  3.0000000  0  6 30 24 17  5  6 10                   0.000747695
    -44788.756 9    -29967.55352         0.000           0.0004          0.0005
     80276.277 9     55268.69247  22323821.489    22323821.0504   22323830.0874
   -151732.394 9    -90306.21652         0.000           0.0004          0.0005
     69429.409 9     46967.00748  21229338.571    21229337.8554   21229347.8194
   -132494.020 9    -90107.08747  22183147.069    22183146.5674   22183156.4944
    -40884.739 9    -27476.99548  21040071.963    21040070.7124   21040079.4764
 80  9  1 21  6  4.0000000  0  6 30 24 17  5  6 10                   0.000747272
    -45712.124 9    -30672.45152         0.000           0.0004          0.0005
     82006.850 9     56617.19247  22324150.757    22324150.3724   22324159.3934
   -155004.161 9    -92853.94052         0.000           0.0004          0.0005
     70910.325 9     48120.96548  21229620.348    21229619.6404   21229629.6084
   -135279.620 9    -92277.67547  22182617.154    22182616.4444   22182626.4054
    -41712.302 9    -28121.84548  21039914.037    21039913.2114   21039921.9914
